[[{"header":{"parameterUnit":"m.s-1","parameterCategory":1,"la1":30.6,"la2":29.2853,"lo1":-89.7004,"lo2":-87.6739,"dy":0.0162,"dx":0.0183,"nx":112,"ny":82,"refTime":"2023-06-30T12:00:00:Z","depth":0,"parameterNumber":2,"parameterNumberName":"U-component_of_WINDS"},"data":[0.0,0.0,0.0,0.0,0.0,0.0,0.0,0.0,0.0,0.0,0.0,0.0,0.0,0.0,0.0,0.0,0.0,0.0,0.0,0.0,0.0,0.0,0.0,0.0,0.0,0.0,0.0,0.0,0.0,0.0,0.0,0.0,0.0,0.0,0.0,0.0,0.0,0.0,0.0,0.0,0.0,0.0,0.0,0.0,0.0,0.0,0.0,0.0,0.0,0.0,0.0,0.0,0.0,0.0,0.0,0.0,0.0,0.0,0.0,0.0,0.0,0.0,0.0,0.0,0.0,0.0,0.0,0.0,0.0,0.0,0.0,0.0,0.0,0.0,0.0,0.0,0.0,0.0,0.0,0.0,0.0,0.0,0.0,0.0,0.0,0.0,0.0,0.0,0.0,0.0,0.6828,0.6568,0.5712,0.542,0.6101,0.6051,0.6024,0.6141,0.0,0.0,0.0,0.0,0.0,0.0,0.0,0.0,0.0,0.0,0.0,0.0,0.0,0.0,0.0,0.0,0.0,0.0,0.0,0.0,0.0,0.0,0.0,0.0,0.0,0.0,0.0,0.0,0.0,0.0,0.0,0.0,0.0,0.0,0.0,0.0,0.0,0.0,0.0,0.0,0.0,0.0,0.0,0.0,0.0,0.0,0.0,0.0,0.0,0.0,0.0,0.0,0.0,0.0,0.0,0.0,0.0,0.0,0.0,0.0,0.0,0.0,0.0,0.0,0.0,0.0,0.0,0.0,0.0,0.0,0.0,0.0,0.0,0.0,0.0,0.0,0.0,0.0,0.0,0.0,0.0,0.0,0.0,0.0,0.0,0.0,0.0,0.0,0.0,0.0,0.0,0.0,0.0,0.0,0.0,0.0,0.0,0.0,0.0,0.0,0.0,0.0,0.0,0.0,0.5524,0.4931,0.4657,0.4799,0.548,0.4903,0.4783,0.5407,0.0,0.0,0.0,0.0,0.0,0.0,0.0,0.0,0.0,0.0,0.0,0.0,0.0,0.0,0.0,0.0,0.0,0.0,0.0,0.0,0.0,0.0,0.0,0.0,0.0,0.0,0.0,0.0,0.0,0.0,0.0,0.0,0.0,0.0,0.0,0.0,0.0,0.0,0.0,0.0,0.0,0.0,0.0,0.0,0.0,0.0,0.0,0.0,0.0,0.0,0.0,0.0,0.0,0.0,0.0,0.0,0.0,0.0,0.0,0.0,0.0,0.0,0.0,0.0,0.0,0.0,0.0,0.0,0.0,0.0,0.0,0.0,0.0,0.0,0.0,0.0,0.0,0.0,0.0,0.0,0.0,0.0,0.0,0.0,0.0,0.0,0.0,0.0,0.0,0.0,0.0,0.0,0.0,0.0,0.0,0.0,0.0,0.0,0.0,0.0,0.0,0.0,0.0,0.4718,0.4401,0.3894,0.3791,0.3973,0.454,0.3977,0.3936,0.4708,0.458,0.0,0.0,0.0,0.0,0.0,0.0,0.0,0.0,0.0,0.0,0.0,0.0,0.0,0.0,0.0,0.0,0.0,0.0,0.0,0.0,0.0,0.0,0.0,0.0,0.0,0.0,0.0,0.0,0.0,0.0,0.0,0.0,0.0,0.0,0.0,0.0,0.0,0.0,0.0,0.0,0.0,0.0,0.0,0.0,0.0,0.0,0.0,0.0,0.0,0.0,0.0,0.0,0.0,0.0,0.0,0.0,0.0,0.0,0.0,0.0,0.0,0.0,0.0,0.0,0.0,0.0,0.0,0.0,0.0,0.0,0.0,0.0,0.0,0.0,0.0,0.0,0.0,0.0,0.0,0.0,0.0,0.0,0.0,0.0,0.0,0.0,0.0,0.0,0.0,0.0,0.0,0.0,0.0,0.0,0.0,0.0,0.0,0.0,0.0,0.0,0.0,0.0,0.3872,0.3668,0.3296,0.3141,0.3204,0.3541,0.3204,0.3254,0.3912,0.3695,0.0,0.0,0.0,0.0,0.0,0.0,0.0,0.0,0.0,0.0,0.0,0.0,0.0,0.0,0.0,0.0,0.0,0.0,0.0,0.0,0.0,0.0,0.0,0.0,0.0,0.0,0.0,0.0,0.0,0.0,0.0,0.0,0.0,0.0,0.0,0.0,0.0,0.0,0.0,0.0,0.0,0.0,0.0,0.0,0.0,0.0,0.0,0.0,0.0,0.0,0.0,0.0,0.0,0.0,0.0,0.0,0.0,0.0,0.0,0.0,0.0,0.0,0.0,0.0,0.0,0.0,0.0,0.0,0.0,0.0,0.0,0.0,0.0,0.0,0.0,0.0,0.0,0.0,0.0,0.0,0.0,0.0,0.0,0.0,0.0,0.0,0.0,0.0,0.0,0.0,0.0,0.0,0.0,0.0,0.0,0.0,0.0,0.0,0.0,0.0,0.0,0.0,0.3745,0.3696,0.3175,0.2891,0.2693,0.2604,0.2628,0.2707,0.2897,0.3231,0.0,0.0,0.0,0.0,0.0,0.0,0.0,0.0,0.0,0.0,0.0,0.0,0.0,0.0,0.0,0.0,0.0,0.0,0.0,0.0,0.0,0.0,0.0,0.0,0.0,0.0,0.0,0.0,0.0,0.0,0.0,0.0,0.0,0.0,0.0,0.0,0.0,0.0,0.0,0.0,0.0,0.0,0.0,0.0,0.0,0.0,0.0,0.0,0.0,0.0,0.0,0.0,0.0,0.0,0.0,0.0,0.0,0.0,0.0,0.0,0.0,0.0,0.0,0.0,0.0,0.0,0.0,0.0,0.0,0.0,0.0,0.0,0.0,0.0,0.0,0.0,0.0,0.0,0.0,0.0,0.0,0.0,0.0,0.0,0.0,0.0,0.0,0.0,0.0,0.0,0.0,0.0,0.0,0.0,0.0,0.0,0.0,0.0,0.0,0.0,0.0,0.0,0.3488,0.3254,0.2896,0.2507,0.2232,0.2135,0.2064,0.2191,0.2531,0.0,0.0,0.0,0.0,0.0,0.0,0.0,0.0,0.0,0.0,0.0,0.0,0.0,0.0,0.0,0.0,0.0,0.0,0.0,0.0,0.0,0.0,0.0,0.0,0.0,0.0,0.0,0.0,0.0,0.0,0.0,0.0,0.0,0.0,0.0,0.0,0.0,0.0,0.0,0.0,0.0,0.0,0.0,0.0,0.0,0.0,0.0,0.0,0.0,0.0,0.0,0.0,0.0,0.0,0.0,0.0,0.0,0.0,0.0,0.0,0.0,0.0,0.0,0.0,0.0,0.0,0.0,0.0,0.0,0.0,0.0,0.0,0.0,0.0,0.0,0.0,0.0,0.0,0.0,0.0,0.0,0.0,0.0,0.0,0.0,0.0,0.0,0.0,0.0,0.0,0.0,0.0,0.0,0.0,0.0,0.0,0.0,0.0,0.0,0.0,0.0,0.0,0.3166,0.3048,0.279,0.246,0.2022,0.1648,0.141,0.1383,0.1516,0.1841,0.0,0.0,0.0,0.0,0.0,0.0,0.0,0.0,0.0,0.0,0.0,0.0,0.0,0.0,0.0,0.0,0.0,0.0,0.0,0.0,0.0,0.0,0.0,0.0,0.0,0.0,0.0,0.0,0.0,0.0,0.0,0.0,0.0,0.0,0.0,0.0,0.0,0.0,0.0,0.0,0.0,0.0,0.0,0.0,0.0,0.0,0.0,0.0,0.0,0.0,0.0,0.0,0.0,0.0,0.0,0.0,0.0,0.0,0.0,0.0,0.0,0.0,0.0,0.0,0.0,0.0,0.0,0.0,0.0,0.0,0.0,0.0,0.0,0.0,0.0,0.0,0.0,0.0,0.0,0.0,0.0,0.0,0.0,0.0,0.0,0.0,0.0,0.0,0.0,0.0,0.0,0.0,0.0,0.0,0.0,0.0,0.0,0.0,0.0,0.0,0.0,0.0,0.2214,0.2369,0.2314,0.1844,0.1444,0.0962,0.0351,0.054,0.069,0.0,0.0,0.0,0.0,0.0,0.0,0.0,0.0,0.0,0.0,0.0,0.0,0.0,0.0,0.0,0.0,0.0,0.0,0.0,0.0,0.0,0.0,0.0,0.0,0.0,0.0,0.0,0.0,0.0,0.0,0.0,0.0,0.0,0.0,0.0,0.0,0.0,0.0,0.0,0.0,0.0,0.0,0.0,0.0,0.0,0.0,0.0,0.0,0.0,0.0,0.0,0.0,0.0,0.0,0.0,0.0,0.0,0.0,0.0,0.0,0.0,0.0,0.0,0.0,0.0,0.0,0.0,0.0,0.0,0.0,0.0,0.0,0.0,0.0,0.0,0.0,0.0,0.0,0.0,0.0,0.0,0.0,0.0,0.0,0.0,0.0,0.0,0.0,0.0,0.0,0.0,0.0,0.0,0.0,0.0,0.0,0.0,0.0,0.0,0.0,0.0,0.0,0.0,0.2302,0.231,0.2126,0.1698,0.1301,0.0806,0.0213,-0.0164,-0.0011,0.0785,0.0,0.0,0.0,0.0,0.0,0.0,0.0,0.0,0.0,0.0,0.0,0.0,0.0,0.0,0.0,0.0,0.0,0.0,0.0,0.0,0.0,0.0,0.0,0.0,0.0,0.0,0.0,0.0,0.0,0.0,0.0,0.0,0.0,0.0,0.0,0.0,0.0,0.0,0.0,0.0,0.0,0.0,0.0,0.0,0.0,0.0,0.0,0.0,0.0,0.0,0.0,0.0,0.0,0.0,0.0,0.0,0.0,0.0,0.0,0.0,0.0,0.0,0.0,0.0,0.0,0.0,0.0,0.0,0.0,0.0,0.0,0.0,0.0,0.0,0.0,0.0,0.0,0.0,0.0,0.0,0.0,0.0,0.0,0.0,0.0,0.0,0.0,0.0,0.0,0.0,0.0,0.0,0.0,0.0,0.0,0.0,0.0,0.0,0.0,0.0,0.0,0.0,0.1962,0.1838,0.1608,0.1317,0.0846,0.0336,-0.0208,-0.0833,-0.1054,-0.0716,0.0,0.0,0.0,0.0,0.0,0.0,0.0,0.0,0.0,0.0,0.0,0.0,0.0,0.0,0.0,0.0,0.0,0.0,0.0,0.0,0.0,0.0,0.0,0.0,0.0,0.0,0.0,0.0,0.0,0.0,0.0,0.0,0.0,0.0,0.0,0.0,0.0,0.0,0.0,0.0,0.0,0.0,0.0,0.0,0.0,0.0,0.0,0.0,0.0,0.0,0.0,0.0,0.0,0.0,0.0,0.0,0.0,0.0,0.0,0.0,0.0,0.0,0.0,0.0,0.0,0.0,0.0,0.0,0.0,0.0,0.0,0.0,0.0,0.0,0.0,0.0,0.0,0.0,0.0,0.0,0.0,0.0,0.0,0.0,0.0,0.0,0.0,0.0,0.0,0.0,0.0,0.0,0.0,0.0,0.0,0.0,0.0,0.0,0.0,0.0,0.0,0.0,0.1349,0.116,0.0941,0.0771,0.0221,-0.034,-0.0849,-0.1533,-0.2264,-0.3035,0.0,0.0,0.0,0.0,0.0,0.0,0.0,0.0,0.0,0.0,0.0,0.0,0.0,0.0,0.0,0.0,0.0,0.0,0.0,0.0,0.0,0.0,0.0,0.0,0.0,0.0,0.0,0.0,0.0,0.0,0.0,0.0,0.0,0.0,0.0,0.0,0.0,0.0,0.0,0.0,0.0,0.0,0.0,0.0,0.0,0.0,0.0,0.0,0.0,0.0,0.0,0.0,0.0,0.0,0.0,0.0,0.0,0.0,0.0,0.0,-0.4265,-0.4827,0.0,0.0,0.0,0.0,0.0,0.0,0.0,0.0,0.0,0.0,0.0,0.0,0.0,0.0,0.0,0.0,0.0,0.0,0.0,0.0,0.0,0.0,0.0,0.0,0.0,0.0,0.0,0.0,0.0,0.0,0.0,0.0,0.0,0.0,0.0,0.0,0.0,0.0,0.0,0.0,0.1133,0.1116,0.0886,0.0376,-0.0076,-0.067,-0.1513,-0.2447,-0.2989,-0.3016,-0.2876,0.0,0.0,0.0,0.0,0.0,0.0,0.0,0.0,0.0,0.0,0.0,0.0,0.0,0.0,0.0,0.0,0.0,0.0,0.0,0.0,0.0,0.0,0.0,0.0,0.0,0.0,0.0,0.0,0.0,0.0,0.0,0.0,0.0,0.0,0.0,0.0,0.0,0.0,0.0,0.0,0.0,0.0,0.0,0.0,0.0,0.0,0.0,0.0,0.0,0.0,0.0,0.0,0.0,0.0,0.0,0.0,0.0,0.0,0.0,-0.5271,-0.5533,0.0,0.0,0.0,0.0,0.0,0.0,0.0,0.0,0.0,0.0,0.0,0.0,0.0,0.0,0.0,0.0,0.0,0.0,0.0,0.0,0.0,0.0,0.0,0.0,0.0,0.0,0.0,0.0,0.0,0.0,0.0,0.0,0.0,0.0,0.0,0.0,0.0,0.0,0.0,0.0,0.0695,0.0659,0.0461,0.0056,-0.0473,-0.1062,-0.1741,-0.2803,-0.3366,-0.321,-0.3476,0.0,0.0,0.0,0.0,0.0,0.0,0.0,0.0,0.0,0.0,0.0,0.0,0.0,0.0,0.0,0.0,0.0,0.0,0.0,0.0,0.0,0.0,0.0,0.0,0.0,0.0,0.0,0.0,0.0,0.0,0.0,0.0,0.0,0.0,0.0,0.0,0.0,0.0,0.0,0.0,0.0,0.0,0.0,0.0,0.0,0.0,0.0,0.0,0.0,0.0,0.0,0.0,0.0,-1.0075,-1.0076,-1.0587,-0.9863,-0.9726,-0.9925,-0.7525,-0.7606,-0.9368,-0.8623,0.0,0.0,0.0,0.0,0.0,0.0,0.0,0.0,0.0,0.0,0.0,0.0,0.0,0.0,0.0,0.0,0.0,0.0,0.0,0.0,0.0,0.0,-0.0206,0.042,0.0359,0.0392,0.1192,0.0,0.0,0.0,0.0,0.0,0.0,0.0,0.0,0.0,0.0,0.0,0.0166,0.0077,-0.0077,-0.031,-0.1034,-0.1653,-0.2027,-0.3073,-0.3667,-0.359,-0.3803,-0.3739,0.0,0.0,0.0,0.0,0.0,0.0,0.0,0.0,0.0,0.0,0.0,0.0,0.0,0.0,0.0,0.0,0.0,0.0,0.0,0.0,0.0,0.0,0.0,0.0,0.0,0.0,0.0,0.0,0.0,0.0,0.0,0.0,-0.3366,-0.2863,0.0,0.0,0.0,0.0,0.0,0.0,0.0,0.0,0.0,0.0,0.0,0.0,0.0,0.0265,-0.3979,-0.7379,-1.068,-1.3871,-1.1056,-1.1176,-1.3776,-1.0957,-1.1065,-1.344,-1.3295,0.0,-0.9699,-1.2391,0.0,0.0,0.0,0.0,0.0,0.0,0.0,0.0,0.0,0.0,0.0,0.0,0.0,0.0,0.0,0.0,0.0,0.0,0.0,0.0,0.0,0.0,-0.1638,-0.0922,-0.0953,-0.1003,-0.0483,0.0534,0.1389,0.1552,0.0825,0.0092,0.0,0.0,0.0,0.0,0.0,0.0,-0.035,-0.0319,-0.0476,-0.0861,-0.1966,-0.2792,-0.3085,-0.3731,-0.4178,-0.4336,-0.4116,-0.3835,-0.3492,-0.325,0.0,0.0,0.0,0.0,0.0,0.0,0.0,0.0,0.0,0.0,0.0,0.0,0.0,0.0,0.0,0.0,0.0,0.0,0.0,0.0,0.0,0.0,0.0,0.0,0.0,0.0,0.0,0.0,0.0,-0.4344,-0.5367,-0.4707,-0.3827,-0.2656,0.0,0.0,0.0,0.0,0.0,0.0,0.0,0.0,0.0,-0.2514,0.0065,-0.0852,-0.5828,-0.9984,-1.2801,-1.425,-1.2927,-1.4009,-1.716,-1.5658,-1.5732,-1.7042,-1.7156,-1.6434,-1.5139,-1.4694,-1.3706,-1.2752,0.0,0.0,0.0,0.0,-1.568,-1.6613,-1.6293,-1.6227,-1.6202,-1.5718,0.0,0.0,0.0,0.0,0.0,0.0,0.0,-0.4377,-0.3197,-0.2897,-0.2781,-0.2341,-0.2237,-0.2131,-0.1733,-0.1527,-0.1095,-0.0057,-0.0679,-0.1353,-0.1247,-0.2383,0.0,0.0,0.0,-0.1391,-0.1208,-0.1158,-0.1443,-0.2265,-0.2706,-0.3254,-0.3973,-0.4174,-0.4336,-0.4544,-0.4453,-0.4323,-0.418,-0.388,-0.3914,0.0,0.0,0.0,0.0,0.0,0.0,0.0,0.0,0.0,0.0,0.0,0.0,0.0,0.0,0.0,0.0,0.0,0.0,0.0,0.0,0.0,0.0,0.0,0.0,0.0,0.0,0.0,0.0,-0.6589,-0.7693,-0.7225,-0.5969,-0.4644,0.0,0.0,0.0,0.0,0.0,0.0,-0.0847,-0.1115,-0.3495,-0.8475,-0.4711,-0.4615,-0.8829,-1.294,-1.5095,-1.5294,-1.5411,-1.6766,-1.9246,-1.9184,-1.9216,-1.936,-2.0189,-2.067,-2.0585,-1.7154,-1.5868,-1.6319,-1.8966,-1.8498,-1.6365,-1.6674,-1.7497,-1.8401,-1.8139,-1.831,-1.851,-1.7614,-1.6905,-1.6133,-1.4822,0.0,0.0,0.0,0.0,-0.6301,-0.5078,-0.4644,-0.4475,-0.4267,-0.4129,-0.391,-0.3376,-0.3892,-0.3812,-0.1692,-0.2486,-0.3247,-0.2486,-0.3412,0.0,-0.2872,-0.2453,-0.2202,-0.2075,-0.1893,-0.2161,-0.317,-0.3367,-0.3709,-0.4409,-0.4616,-0.4705,-0.4685,-0.4706,-0.4701,-0.4627,-0.4273,-0.4231,-0.4557,0.0,0.0,0.0,0.0,0.0,0.0,0.0,0.0,0.0,0.0,0.0,0.0,0.0,0.0,0.0,0.0,0.0,0.0,0.0,0.0,0.0,0.0,0.0,0.0,0.0,0.0,0.0,0.0,0.0,-1.0591,-0.8415,0.0,0.0,0.0,0.0,-0.4167,-0.4074,-0.4486,-0.5507,-0.7472,-0.8954,-0.9779,-1.0943,-1.1956,-1.2799,-1.624,-1.8193,-1.8556,-1.8574,-1.8753,-1.9104,-1.923,-1.9289,-1.9455,-2.2593,-2.4081,-2.3981,-2.0486,-1.934,-1.9755,-1.9933,-1.9964,-1.969,-1.7577,-1.8227,-2.0031,-1.901,-1.9415,-2.0223,-1.9356,-1.7443,-1.5444,-1.5351,-1.4035,0.0,0.0,-0.9825,-0.9362,-0.759,-0.7207,-0.7248,-0.7048,-0.7085,-0.6889,-0.5849,-0.6207,-0.5861,-0.2897,-0.4124,-0.5265,-0.409,0.0,-0.5547,-0.4284,-0.3611,-0.3106,-0.2792,-0.2302,-0.2228,-0.2857,-0.3933,-0.4479,-0.4159,-0.5171,-0.5562,-0.4917,-0.4826,-0.4686,-0.4422,-0.397,-0.38,-0.3946,-0.3931,0.0,0.0,0.0,0.0,0.0,0.0,0.0,0.0,0.0,0.0,0.0,0.0,0.0,0.0,0.0,0.0,0.0,0.0,0.0,0.0,0.0,0.0,0.0,0.0,0.0,0.0,0.0,0.0,-1.4943,-1.1499,0.0,-1.0517,-0.9945,-0.9199,-0.8443,-0.8675,-0.9057,-0.9541,-1.0032,-1.0293,-1.0222,-1.3721,-1.5857,-1.6376,-1.986,-2.1757,-2.2012,-2.2205,-2.2318,-2.2392,-2.2568,-2.2585,-2.2537,-2.3823,-2.4481,-2.4519,-2.3276,-2.2943,-2.3215,-2.3221,-2.1953,-2.0174,-2.0432,-2.1118,-2.1872,-2.1524,-2.1469,-2.1449,-2.0963,-1.9809,-1.8315,-1.6665,-1.5368,-1.3965,-1.1655,-1.0588,-0.9854,-0.8647,-0.7973,-0.761,-0.753,-0.7519,-0.7421,-0.705,-0.7598,-0.7695,-0.6005,-0.6194,-0.6519,-0.6181,-0.6582,-0.6543,-0.535,-0.476,-0.4383,-0.4167,-0.388,-0.4187,-0.5515,-0.574,-0.5799,-0.5829,-0.5794,-0.5551,-0.5051,-0.493,-0.481,-0.4657,-0.4547,-0.447,-0.447,-0.4345,-0.4437,0.0,0.0,0.0,0.0,0.0,0.0,0.0,0.0,0.0,0.0,0.0,0.0,0.0,0.0,0.0,0.0,0.0,0.0,0.0,0.0,0.0,0.0,0.0,0.0,0.0,-1.7449,-1.9306,-1.9121,-1.6417,-1.4926,-1.5932,-1.5555,-1.4589,-1.3082,-1.3448,-1.3597,-1.3258,-1.2711,-1.2258,-1.1912,-1.668,-1.9501,-1.9979,-2.3471,-2.5283,-2.5425,-2.5701,-2.5864,-2.5964,-2.6098,-2.6079,-2.5964,-2.6172,-2.6296,-2.6397,-2.6397,-2.6462,-2.6477,-2.5473,-2.37,-2.1755,-2.1748,-2.2173,-2.2852,-2.3548,-2.3269,-2.2604,-2.2433,-2.1478,-2.007,-1.839,-1.7107,-1.5736,-1.3428,-1.236,-1.1659,-1.0507,-0.9822,-0.9428,-0.9423,-0.9361,-0.923,-0.8915,-0.9297,-0.9441,-0.8495,-0.8207,-0.7948,-0.7455,-0.7632,-0.7456,-0.6311,-0.5863,-0.563,-0.5492,-0.5319,-0.5671,-0.6873,-0.6925,-0.6859,-0.6868,-0.6445,-0.608,-0.5849,-0.5247,-0.4994,-0.5231,-0.4949,-0.4795,-0.4794,-0.4647,-0.4467,-0.4249,0.0,0.0,0.0,0.0,0.0,0.0,0.0,0.0,0.0,0.0,0.0,0.0,0.0,0.0,0.0,0.0,0.0,0.0,0.0,0.0,0.0,0.0,0.0,-1.8885,-2.1732,-2.348,-2.3023,-2.3023,-2.2802,-2.2163,-2.2284,-2.1057,-1.7948,-1.8346,-1.8077,-1.6588,-1.5768,-1.5179,-1.4856,-2.0068,-2.3135,-2.3659,-2.6952,-2.8667,-2.8782,-2.9046,-2.93,-2.9556,-2.9556,-2.9556,-2.9556,-2.9757,-2.9852,-2.9852,-2.9852,-2.9777,-2.9419,-2.6483,-2.526,-2.4745,-2.146,-2.1397,-2.3199,-2.4966,-2.4799,-2.3782,-2.3724,-2.2255,-2.0499,-2.0457,-1.9231,-1.754,-1.5871,-1.5385,-1.4963,-1.3333,-1.2896,-1.2861,-1.2842,-1.2795,-1.2487,-1.1536,-1.1336,-1.1077,-1.015,-1.0075,-0.9629,-0.7914,-0.8257,-0.8381,-0.7251,-0.697,0.0,-0.669,-0.6576,-0.6556,-0.6697,-0.7401,-0.7648,-0.7081,-0.7084,-0.7172,-0.7242,-0.5785,-0.5267,-0.603,-0.5124,-0.4672,-0.4785,-0.4725,-0.4189,-0.3186,0.0,0.0,0.0,0.0,0.0,0.0,0.0,0.0,0.0,0.0,0.0,0.0,0.0,0.0,0.0,0.0,0.0,0.0,0.0,0.0,0.0,-1.9842,-2.0855,-2.0208,-2.2964,-2.4989,-2.4855,-2.5598,-2.5763,-2.4911,-2.4288,-2.3116,-2.1023,-2.1261,-2.0766,-1.9037,-1.8534,-1.763,-1.6136,-2.299,-2.6854,-2.7186,-2.8128,-2.9958,-3.265,-3.2741,-3.2906,-3.3165,-3.3165,-3.306,-3.2901,-3.3147,-3.325,-3.325,-3.325,-3.1842,-2.9626,-2.8793,-2.8499,-2.8142,-2.4866,-2.5565,-2.8045,-2.739,-2.6664,-2.5781,-2.437,-2.3512,-2.2797,-2.1613,-2.054,-1.9458,-1.8368,-1.7186,-1.6133,-1.5659,-1.5082,-1.4458,-1.3818,-1.3615,-1.3333,-1.2438,-1.219,-1.2072,-1.1765,-1.1704,-1.1358,-1.0285,-1.0219,-0.9968,-0.9021,-0.8728,-0.8549,-0.8366,-0.8739,-0.9015,-0.906,-0.9264,-0.8906,-0.7692,-0.7682,-0.733,-0.634,-0.5872,-0.5488,-0.5163,-0.4889,-0.4696,-0.4583,-0.4285,-0.3764,0.0,0.0,0.0,0.0,0.0,0.0,0.0,0.0,0.0,0.0,0.0,0.0,0.0,0.0,0.0,0.0,0.0,0.0,0.0,0.0,0.0,0.0,-2.2624,-2.3759,-2.3248,-2.4995,-2.6241,-2.6082,-2.6891,-2.723,-2.6624,-2.605,-2.5112,-2.3752,-2.4257,-2.4191,-2.3265,-2.314,-2.2968,-2.2721,-2.7708,-3.0513,-3.0789,-3.0899,-3.2816,-3.6478,-3.6478,-3.655,-3.6686,-3.6686,-3.6597,-3.6478,-3.6639,-3.5897,-3.4602,-3.4602,-3.3475,-3.1616,0.0,0.0,0.0,0.0,-2.8469,-3.0065,-2.913,-2.8281,-2.7343,-2.571,-2.4868,-2.4274,-2.2996,-2.2037,-2.1157,-1.9948,-1.8902,-1.7984,-1.7273,-1.673,-1.6215,-1.5686,-1.5485,-1.5169,-1.4294,-1.4035,-1.3731,-1.298,-1.3058,0.0,-1.2172,-1.1638,-1.1174,-1.0603,-1.0371,-1.021,-1.0065,-1.0313,-1.0378,-1.006,-0.9988,-0.9511,-0.8405,-0.8004,0.0,0.0,0.0,-0.5397,-0.4661,-0.4608,0.0,0.0,0.0,-0.3067,-0.2029,-0.0714,0.0,0.0,0.4048,0.445,0.0,0.0,0.0,0.0,0.0,0.0,0.0,0.0,0.0,0.0,0.0,0.0,0.0,0.0,0.0,0.0,-2.4496,-2.5914,-2.6861,-2.7278,-2.7341,-2.6923,-2.7517,-2.7906,-2.7744,-2.7625,-2.7192,-2.6344,-2.7195,-2.7874,-2.8205,-2.8421,0.0,0.0,0.0,-3.397,-3.442,-3.4654,-3.6373,-3.9602,-3.9602,-3.9808,-4.014,-4.014,-3.9934,-3.9602,-3.9602,-3.7906,-3.5146,-3.5146,-3.4943,-3.4344,-3.1411,-3.0374,-3.0452,-3.0261,-3.0204,-3.0185,-3.0051,0.0,0.0,-2.7287,-2.6247,-2.5343,-2.4638,-2.3813,-2.2775,-2.1278,-2.0735,-2.0234,-1.8743,-1.8288,-1.8165,-1.8006,-1.7805,-1.7395,-1.6506,-1.6224,-1.566,-1.4105,-1.4386,-1.463,-1.382,-1.2814,-1.2084,-1.196,-1.1819,-1.1709,-1.1633,-1.1504,-1.111,-1.0289,-1.0145,0.0,-0.8993,-0.8243,-0.813,-0.8861,-0.6799,-0.524,-0.4453,-0.4381,-0.4145,-0.3701,-0.3279,-0.227,-0.0671,0.0384,0.1863,0.3731,0.5252,0.5575,0.0,0.0,0.0,0.0,0.0,0.0,0.0,0.0,0.0,0.0,0.0,0.0,0.0,0.0,0.0,-2.4231,-2.5683,-2.6877,-2.7385,-2.8169,-2.8474,-2.7971,-2.8831,-2.9405,-2.9219,-2.947,-2.9537,-2.9378,-2.9624,-3.0131,-3.0815,-3.0982,-3.2484,-3.5551,-3.5799,-3.6675,-3.8305,-3.8207,-3.8648,-3.9602,-3.9602,0.0,-4.3557,-4.3557,-4.2111,-3.9602,-3.9602,-3.9245,-3.8643,-3.8643,-3.7137,-3.4774,-3.4131,-3.3904,-3.3637,-3.1119,-3.0204,-3.007,-2.9153,-2.8829,-2.8695,-2.7816,-2.7402,-2.7197,-2.711,-2.6011,0.0,-2.4428,-2.3351,-2.2226,-2.1844,-2.1233,-2.0526,-1.9802,-1.904,-1.8221,-1.7279,-1.7026,-1.6832,-1.638,-1.6423,-1.6434,-1.6087,-1.4296,-1.2851,-1.2788,-1.2649,-1.2499,-1.2318,-1.2596,-1.2287,-1.0961,-1.1135,-1.0572,-0.8676,-0.8893,-0.8715,-0.7714,-0.6645,-0.5622,-0.4609,-0.4647,-0.4167,-0.302,-0.2849,-0.2044,-0.0532,0.0853,0.2067,0.3108,0.4443,0.5158,0.0,0.0,0.0,0.0,0.0,0.0,0.0,0.0,0.0,0.0,0.0,-2.2442,-2.2739,0.0,-2.4366,-2.5945,-2.6792,-2.7735,-2.9137,-2.9699,-2.9928,-2.9904,-3.0015,-3.027,-3.071,-3.0592,-3.0523,-3.061,-3.1456,-3.2244,-3.2766,-3.368,-3.4979,-3.6638,-3.7493,-3.8356,-3.9275,-4.0952,-4.1911,-4.214,-4.214,-4.3006,-4.4605,-4.4605,-4.3649,-4.1961,-4.029,-3.9602,-3.962,-3.9703,-3.7835,-3.4927,-3.5019,-3.5054,-3.4863,-3.3287,-3.2344,-3.1694,-3.0586,-3.0199,-3.0002,-2.8759,-2.8345,-2.8274,-2.7908,-2.7231,-2.6378,-2.5534,-2.4697,-2.3832,-2.293,-2.2345,-2.1767,-2.0866,-2.0267,-1.9526,-1.8193,-1.8143,-1.8061,-1.7125,-1.7247,-1.7311,-1.6744,-1.5576,-1.4607,-1.4172,-1.3923,-1.3609,-1.3076,-1.3092,-1.2689,-1.1481,-1.153,-1.1024,-0.948,-0.9353,-0.8824,-0.7581,-0.691,-0.6054,-0.4942,-0.484,-0.4278,-0.317,-0.275,-0.1801,-0.0301,0.0777,0.1982,0.3329,0.4343,0.4986,0.0,0.0,0.0,0.0,0.0,0.0,0.0,-2.3261,-2.2978,-2.2816,-2.3437,-2.4143,-2.4612,-2.4766,-2.5461,-2.7441,-2.7942,-2.8817,-3.0891,-3.1227,-3.1412,-3.1946,-3.1323,-3.1148,-3.1981,-3.1674,-3.1447,-3.1529,-3.3022,-3.4027,-3.4275,-3.5747,-3.6816,-3.7236,-3.8592,-3.9525,-4.0001,-4.2772,-4.4344,-4.4667,-4.4719,-4.4738,-4.4712,-4.4712,-4.4659,-4.4354,-4.108,-3.965,-3.9674,-3.9823,-3.8319,-3.5932,-3.6115,-3.5974,-3.5608,-3.5092,-3.4308,-3.3356,-3.2397,-3.1929,-3.1503,-2.9985,-2.9513,-2.9346,-2.8537,-2.8172,-2.7712,-2.6205,-2.5657,-2.5165,-2.3579,-2.2999,-2.2635,-2.1851,-2.1356,-2.0665,-1.9245,-1.922,-1.904,-1.7601,-1.7808,-1.7954,-1.716,-1.6912,-1.6441,-1.534,-1.4943,-1.4469,-1.3581,-1.3243,-1.2714,-1.1788,-1.1713,-1.1379,-1.0461,-0.9697,-0.8878,-0.8025,-0.746,-0.664,-0.5436,-0.5083,-0.4456,-0.349,-0.2819,-0.1774,-0.0338,0.0409,0.1643,0.3309,0.4135,0.479,-1.5126,-1.5253,-1.5398,-1.5394,-1.8,-2.1394,0.0,-2.6359,-2.7185,-2.6486,-2.7013,-2.7382,-2.6655,-2.7139,-2.7701,-2.7937,-2.9202,-3.0492,-3.1411,-3.2037,-3.2667,-3.3372,-3.3016,-3.2667,-3.2624,-3.318,-3.354,-3.3505,-3.4484,-3.5169,-3.5247,-3.6159,-3.7441,-3.9139,-3.9253,-4.0419,-4.2835,-4.2875,-4.3473,-4.4621,-4.4796,-4.484,-4.4808,-4.4808,-4.4738,-4.4497,-4.1279,-3.9867,-3.9867,-3.9889,-3.9745,-3.9526,-3.9662,-3.8779,-3.7124,-3.4676,-3.3651,-3.3429,-3.2891,-3.2694,-3.2513,-3.1602,-3.1308,-3.1149,-3.0285,-2.9473,-2.8682,-2.7773,-2.6964,-2.6132,-2.5099,-2.4257,-2.3613,-2.3377,-2.2093,-2.083,-2.0526,-1.9904,-1.9301,-1.8927,-1.8919,-1.8873,-1.8521,-1.841,-1.7629,-1.5441,-1.488,-1.4401,-1.3532,-1.3137,-1.2588,-1.1699,-1.1974,-1.1818,-1.0831,-0.9965,-0.9308,-0.8971,-0.8436,-0.7496,-0.6062,-0.5576,-0.4696,-0.3356,-0.3004,-0.2288,-0.1157,-0.0188,0.0805,0.1859,0.2953,0.4364,-1.5109,-1.5244,-1.5147,-1.508,-1.896,-2.3474,-2.6058,-2.6909,-2.7177,-2.7426,-2.7799,-2.7991,-2.761,-2.7847,-2.8261,-2.8737,-2.9835,-3.1065,-3.2346,-3.313,-3.366,-3.3906,-3.4072,-3.4043,-3.3771,-3.4396,-3.4847,-3.484,-3.618,-3.7026,-3.71,-3.8434,-3.9558,-4.0346,-4.1261,-4.2277,-4.3408,-4.3721,-4.4143,-4.4719,-4.4796,-4.4865,-4.4865,-4.4889,-4.4895,-4.4762,-4.2462,-4.0908,-4.0015,-4.0058,-4.0158,-4.0214,-3.9655,-3.8578,-3.721,-3.6029,-3.5174,-3.4504,-3.3753,-3.3532,-3.3412,-3.2574,-3.2006,-3.1584,-3.1181,-3.0445,-2.9589,-2.8739,-2.786,-2.6969,-2.6047,-2.5075,-2.4247,-2.3672,-2.2528,-2.1392,-2.0819,-1.9942,-1.9251,-1.9067,-1.8966,-1.8861,-1.8676,-1.8524,-1.7897,-1.6374,-1.5693,-1.4827,-1.3411,-1.3031,-1.2657,-1.2011,-1.1954,-1.1749,-1.1262,-1.0341,-0.9682,-0.9408,-0.8711,-0.7844,-0.6835,-0.6416,-0.5619,-0.4358,-0.3808,-0.2928,-0.1654,-0.0788,0.016,0.1207,0.2332,0.3406,-1.4931,-1.5663,-1.638,-1.7262,-2.1682,-2.6077,-2.71,-2.7338,-2.7501,-2.8056,-2.8423,-2.8597,-2.843,-2.8612,-2.8912,-2.9326,-3.0527,-3.1836,-3.3054,-3.4078,-3.4545,-3.4198,-3.4706,-3.4902,-3.4372,-3.512,-3.5642,-3.5722,-3.7521,-3.8643,-3.8672,-4.0387,-4.1472,-4.1674,-4.2863,-4.3599,-4.3825,-4.441,-4.4719,-4.4796,-4.484,-4.4846,-4.4919,-4.501,-4.5057,-4.4966,-4.3183,-4.1793,-4.0784,-4.0368,-4.0271,-4.0285,-3.9531,-3.8738,-3.7951,-3.7444,-3.645,-3.5281,-3.4596,-3.4381,-3.429,-3.3437,-3.2793,-3.2257,-3.1744,-3.1124,-3.0369,-2.9289,-2.8339,-2.7433,-2.651,-2.5551,-2.4633,-2.3975,-2.3052,-2.2092,-2.1198,-2.0209,-1.939,-1.9037,-1.8861,-1.8732,-1.8542,-1.8385,-1.7945,-1.7007,-1.6342,-1.5373,-1.3851,-1.3274,-1.2768,-1.2246,-1.1805,-1.1519,-1.1399,-1.0619,-1.0004,-0.9681,-0.8876,-0.8115,-0.7445,-0.6902,-0.6157,-0.5207,-0.4422,-0.3435,-0.2266,-0.1667,-0.0731,0.0526,0.1583,0.2379,-1.4875,-1.6947,-1.9991,-2.3351,-2.6556,-2.8515,-2.7231,-2.8365,-2.9532,-2.8981,-2.9594,-3.0006,-2.9303,-2.9901,-3.027,-2.9513,-3.1543,-3.3242,-3.33,-3.465,-3.5324,-3.4399,-3.493,-3.4995,-3.4009,-3.5116,-3.5913,-3.5977,-3.8339,-3.9717,-3.9656,-4.1312,-4.2616,-4.3416,-4.3473,-4.3863,-4.4674,-4.4693,-4.4719,-4.4796,-4.4889,-4.4919,-4.4991,-4.5122,-4.5189,-4.5058,-4.2869,-4.2201,-4.2504,-4.0883,-4.0196,-4.0215,-4.0319,-4.0329,-4.0111,-3.8466,-3.6773,-3.5293,-3.5281,-3.5266,-3.512,-3.4323,-3.405,-3.3705,-3.2095,-3.1484,-3.1026,-2.9377,-2.8226,-2.731,-2.6432,-2.5498,-2.4757,-2.4594,-2.3845,-2.2912,-2.198,-2.0984,-2.0009,-1.9074,-1.8789,-1.8622,-1.8351,-1.826,-1.7872,-1.6956,-1.6512,-1.5978,-1.515,-1.3945,-1.291,-1.2173,-1.1564,-1.1192,-1.1108,-1.0715,-1.0285,-0.9829,-0.9096,-0.8392,-0.7725,-0.6676,-0.5891,-0.5395,-0.4553,-0.3786,-0.3171,-0.294,-0.2009,-0.0435,0.0566,0.1449,-1.4822,-1.8759,-2.3116,-2.4044,-2.6527,-2.8664,-2.8346,-2.8535,-2.8875,-2.9399,-2.9832,-3.0068,-2.9963,-3.022,-3.0402,-3.0224,-3.1466,-3.2656,-3.3281,-3.4298,-3.4832,-3.4482,-3.5078,-3.516,-3.4191,-3.535,-3.6407,-3.6936,-3.8281,-3.9572,-4.0696,-4.1876,-4.2883,-4.3734,-4.4284,-4.4678,-4.4895,-4.4943,-4.4943,-4.4919,-4.4991,-4.5103,-4.5192,-4.5148,-4.5213,-4.5226,-4.3272,-4.2585,-4.2718,-4.1069,-4.0396,-4.0396,-4.046,-3.98,-3.8723,-3.8116,-3.6803,-3.5285,-3.53,-3.53,-3.5266,-3.4963,-3.4136,-3.313,-3.2565,-3.1565,-3.0476,-2.9861,-2.8977,-2.8036,-2.716,-2.6169,-2.5252,-2.4662,-2.378,-2.2993,-2.2665,-2.1387,-2.0173,-1.9777,-1.9127,-1.8566,-1.833,-1.8201,-1.7919,-1.73,-1.6232,-1.5305,-1.478,-1.3772,-1.2962,-1.2546,-1.163,-1.0991,-1.0849,-1.0336,-0.988,-0.9487,-0.8889,-0.8241,-0.7526,-0.6821,-0.6071,-0.5273,-0.4549,-0.3774,-0.2989,-0.2603,-0.1792,-0.0561,0.0266,0.1051,-1.7851,-2.2457,-2.6437,-2.5899,-2.7204,-2.8662,-2.8923,-2.8728,-2.8719,-2.9476,-2.9751,-2.9915,-3.0123,-3.0254,-3.0359,-3.0509,-3.1345,-3.2298,-3.3231,-3.4101,-3.4602,-3.4534,-3.5216,-3.5417,-3.4762,-3.5782,-3.681,-3.7583,-3.8918,-4.0195,-4.1341,-4.2484,-4.3338,-4.3869,-4.4687,-4.508,-4.5033,-4.508,-4.5103,-4.5061,-4.5148,-4.5213,-4.5338,-4.5256,-4.5281,-4.5304,-4.3561,-4.2852,-4.2792,-4.1154,-4.0499,-4.0502,-4.0492,-3.9835,-3.8815,-3.8155,-3.7203,-3.614,-3.553,-3.5289,-3.5258,-3.5258,-3.4305,-3.31,-3.2813,-3.1718,-3.0479,-3.0133,-2.9304,-2.8378,-2.7804,-2.6689,-2.5558,-2.4949,-2.41,-2.3345,-2.3015,-2.2009,-2.1025,-2.0585,-1.9678,-1.8913,-1.8728,-1.8267,-1.7772,-1.7296,-1.6336,-1.5468,-1.4924,-1.4015,-1.3174,-1.2627,-1.1532,-1.0753,-1.0472,-0.997,-0.9487,-0.9085,-0.8512,-0.7907,-0.7237,-0.6554,-0.5814,-0.5017,-0.4288,-0.3531,-0.2642,-0.2099,-0.1333,-0.0393,0.0439,0.1154,-2.3498,-2.7485,-2.9718,-2.9046,-2.8793,-2.8764,-2.8943,-2.9067,-2.9189,-2.927,-2.9455,-2.9644,-2.9855,-3.0049,-3.0234,-3.037,-3.1194,-3.2162,-3.311,-3.4042,-3.4634,-3.4603,-3.5314,-3.5775,-3.5681,-3.6389,-3.7189,-3.7905,-4.0095,-4.1456,-4.1605,-4.3101,-4.3939,-4.3914,-4.4709,-4.5125,-4.5125,-4.5125,-4.5148,-4.5213,-4.5256,-4.5338,-4.5418,-4.54,-4.54,-4.5323,-4.3748,-4.3019,-4.2772,-4.1207,-4.055,-4.0499,-4.0492,-4.0469,-4.0239,-3.852,-3.7874,-3.7597,-3.5883,-3.5248,-3.5198,-3.5193,-3.4533,-3.3606,-3.282,-3.1917,-3.0947,-3.012,-2.9207,-2.8445,-2.8316,-2.7065,-2.5746,-2.5445,-2.4799,-2.4007,-2.3067,-2.2772,-2.2402,-2.1444,-2.0403,-1.9612,-1.9408,-1.8376,-1.7432,-1.6977,-1.6783,-1.6422,-1.5628,-1.4592,-1.351,-1.2448,-1.1308,-1.0437,-1.0021,-0.9607,-0.9139,-0.8622,-0.8015,-0.744,-0.6907,-0.6013,-0.5214,-0.4614,-0.3881,-0.3057,-0.219,-0.146,-0.075,-0.0079,0.0953,0.1602,-2.5232,-2.7361,-3.0188,-3.2004,-3.1419,-3.035,-3.0129,-3.0131,-2.9947,-2.93,-2.9307,-2.9511,-2.9717,-2.9924,-3.0109,-3.0297,-3.0627,-3.1193,-3.2191,-3.3135,-3.3945,-3.453,-3.5349,-3.6073,-3.658,-3.7332,-3.8132,-3.8948,-3.9512,-4.0353,-4.1601,-4.2676,-4.3522,-4.4116,-4.49,-4.532,-4.5317,-4.5317,-4.5339,-4.5341,-4.538,-4.5419,-4.5457,-4.5419,-4.5419,-4.5419,-4.4419,-4.3593,-4.2904,-4.1879,-4.1104,-4.0492,-4.0489,-4.0108,-3.9404,-3.8293,-3.7459,-3.6706,-3.5656,-3.5261,-3.5212,-3.5198,-3.4151,-3.2858,-3.2602,-3.1452,-3.0173,-2.9827,-2.9476,-2.9044,-2.8292,-2.7707,-2.6993,-2.5656,-2.5177,-2.4754,-2.381,-2.3113,-2.2504,-2.2039,-2.0604,-1.9391,-1.915,-1.8221,-1.7415,-1.7101,-1.6757,-1.6385,-1.5933,-1.4986,-1.394,-1.285,-1.1696,-1.0624,-0.9762,-0.9197,-0.8759,-0.846,-0.7844,-0.7278,-0.685,-0.6004,-0.5222,-0.4469,-0.3777,-0.3029,-0.2183,-0.1398,-0.0661,0.0091,0.1103,0.1747,-2.7067,-2.9252,-3.1778,-3.2243,-3.19,-3.1247,-3.0381,-3.0181,-2.9958,-2.913,-2.9089,-2.9286,-2.9474,-2.9681,-2.9902,-3.0122,-3.0314,-3.0907,-3.2336,-3.3015,-3.3816,-3.5034,-3.5919,-3.6729,-3.7502,-3.826,-3.9052,-3.9908,-3.9856,-4.0254,-4.1212,-4.203,-4.2842,-4.3652,-4.4441,-4.5036,-4.54,-4.5055,-4.5055,-4.54,-4.5419,-4.5457,-4.5495,-4.5495,-4.5303,-4.4919,-4.411,-4.3265,-4.2384,-4.1555,-4.0938,-4.0495,-4.046,-4.0159,-3.9586,-3.8287,-3.7507,-3.69,-3.5649,-3.5196,-3.5196,-3.5196,-3.3982,-3.2507,-3.2476,-3.1216,-2.9771,-2.9645,-2.9512,-2.9258,-2.863,-2.8128,-2.7409,-2.5976,-2.539,-2.4856,-2.3887,-2.3322,-2.2783,-2.2112,-2.0779,-1.9555,-1.8978,-1.8033,-1.7272,-1.6977,-1.6617,-1.6258,-1.5826,-1.4989,-1.3967,-1.2761,-1.1653,-1.0596,-0.967,-0.9073,-0.8702,-0.8626,-0.7845,-0.719,-0.6673,-0.5831,-0.4974,-0.4157,-0.3508,-0.2846,-0.214,-0.125,-0.0419,0.0333,0.1212,0.1844,-2.9172,-3.1834,-3.3327,-3.1414,-3.1597,-3.1873,-3.0313,-2.988,-2.9608,-2.8919,-2.8863,-2.9007,-2.923,-2.9435,-2.9662,-2.9931,-3.0136,-3.0906,-3.276,-3.3167,-3.3897,-3.5527,-3.6554,-3.7422,-3.8237,-3.9051,-3.9855,-4.0649,-4.066,-4.0646,-4.0687,-4.1412,-4.2197,-4.2989,-4.3689,-4.444,-4.5266,-4.4556,-4.4633,-4.5438,-4.5379,-4.534,-4.534,-4.528,-4.4857,-4.4093,-4.3395,-4.2552,-4.1637,-4.0946,-4.0598,-4.0466,-4.0432,-4.0398,-4.017,-3.8359,-3.7729,-3.7536,-3.5717,-3.5147,-3.5181,-3.5062,-3.3834,-3.2386,-3.2274,-3.1033,-2.9683,-2.9531,-2.939,-2.924,-2.9108,-2.8416,-2.7464,-2.6351,-2.5523,-2.4734,-2.3625,-2.3407,-2.3082,-2.2031,-2.0948,-1.9915,-1.8993,-1.7914,-1.7052,-1.6722,-1.6448,-1.608,-1.5536,-1.4819,-1.3842,-1.2407,-1.1425,-1.0501,-0.9645,-0.9052,-0.8782,-0.8862,-0.7945,-0.7141,-0.6544,-0.5643,-0.4737,-0.3891,-0.3222,-0.2668,-0.2139,-0.1058,-0.0096,0.0677,0.1351,0.1968,-3.1992,-3.2323,-3.1802,-3.2873,-3.3186,-3.2811,-3.1157,-3.0333,-2.9656,-2.8804,-2.8694,-2.8821,-2.9089,-2.931,-2.9513,-2.9801,-2.9958,-3.0509,-3.1855,-3.2725,-3.3613,-3.4704,-3.6223,-3.7503,-3.8303,-3.9101,-3.9927,-4.0707,-4.0773,-4.0725,-4.0621,-4.147,-4.2324,-4.3073,-4.3214,-4.3712,-4.4572,-4.4391,-4.4739,-4.564,-4.4855,-4.4511,-4.4491,-4.3835,-4.3417,-4.3229,-4.3073,-4.2535,-4.1694,-4.1545,-4.1065,-4.0413,-4.0396,-4.0344,-4.0042,-3.8323,-3.7714,-3.7468,-3.57,-3.5111,-3.4997,-3.4276,-3.3348,-3.2327,-3.1559,-3.0563,-2.9663,-2.9472,-2.9328,-2.9156,-2.8905,-2.8628,-2.8008,-2.6332,-2.5792,-2.5218,-2.3661,-2.3102,-2.2841,-2.2591,-2.125,-2.0069,-1.961,-1.8177,-1.6986,-1.6591,-1.6301,-1.5968,-1.5477,-1.5002,-1.4026,-1.2248,-1.1539,-1.072,-0.9462,-0.8757,-0.8446,-0.8657,-0.7805,-0.7126,-0.6689,-0.5775,-0.4937,-0.4226,-0.3336,-0.2739,-0.233,-0.1086,-0.0,0.0941,0.1629,0.2307,-3.1082,-3.1781,-3.1826,-3.2775,-3.3267,-3.3027,-3.1291,-3.0553,-2.993,-2.8702,-2.8466,-2.8576,-2.8881,-2.9112,-2.9332,-2.9644,-2.9799,-3.0333,-3.1538,-3.252,-3.3653,-3.5059,-3.6796,-3.8193,-3.8988,-3.9793,-4.0441,-4.0809,-4.0848,-4.0804,-4.072,-4.1544,-4.216,-4.2468,-4.2487,-4.2892,-4.3721,-4.3265,-4.3692,-4.4966,-4.4983,-4.4985,-4.4951,-4.4566,-4.4126,-4.3647,-4.3225,-4.2535,-4.1673,-4.1219,-4.0745,-4.0307,-4.029,-3.9948,-3.9319,-3.8061,-3.7337,-3.6785,-3.5457,-3.502,-3.4887,-3.3979,-3.3126,-3.2351,-3.1863,-3.0734,-2.9551,-2.9394,-2.9203,-2.8998,-2.881,-2.8543,-2.7861,-2.6072,-2.4856,-2.3902,-2.3007,-2.2712,-2.2552,-2.247,-2.1102,-1.9907,-1.9584,-1.8088,-1.6825,-1.6517,-1.6179,-1.5812,-1.5329,-1.4516,-1.3459,-1.2059,-1.1447,-1.0646,-0.9446,-0.876,-0.8498,-0.8703,-0.7841,-0.7073,-0.6471,-0.561,-0.4744,-0.3961,-0.3123,-0.2554,-0.2237,-0.0874,0.0252,0.1172,0.1788,0.2422,-2.9515,-3.1028,-3.1955,-3.2447,-3.3009,-3.2958,-3.1121,-3.0606,-3.0089,-2.8586,-2.8246,-2.8353,-2.8687,-2.9051,-2.9363,-2.9531,-2.9849,-3.0405,-3.1437,-3.2443,-3.3759,-3.558,-3.74,-3.8817,-3.9633,-4.0454,-4.0924,-4.0927,-4.0888,-4.0856,-4.08,-4.1409,-4.1705,-4.1649,-4.1629,-4.2035,-4.2868,-4.2232,-4.2626,-4.408,-4.454,-4.4886,-4.5047,-4.4874,-4.4376,-4.3703,-4.3052,-4.2266,-4.1368,-4.0647,-4.0308,-4.0196,-4.0177,-3.9623,-3.8689,-3.7813,-3.6977,-3.6159,-3.523,-3.4927,-3.4832,-3.4074,-3.3167,-3.2335,-3.2109,-3.0847,-2.9492,-2.9314,-2.9097,-2.8839,-2.8626,-2.8291,-2.7561,-2.568,-2.3863,-2.2497,-2.2332,-2.2349,-2.2321,-2.2135,-2.095,-1.9887,-1.9563,-1.8119,-1.6871,-1.6561,-1.6102,-1.561,-1.5118,-1.4087,-1.2975,-1.1946,-1.1265,-1.0489,-0.9579,-0.8894,-0.8593,-0.8658,-0.7799,-0.693,-0.6136,-0.5308,-0.4439,-0.3561,-0.2839,-0.2269,-0.1834,-0.0551,0.052,0.1508,0.1992,0.2471,-2.9287,-3.0513,-3.1353,-3.278,-3.3154,-3.2673,-3.0868,-3.0379,-2.9923,-2.8418,-2.8126,-2.8191,-2.8484,-2.9344,-2.9871,-2.9483,-3.0246,-3.1044,-3.1446,-3.2378,-3.3691,-3.5585,-3.7407,-3.8846,-3.9712,-4.0524,-4.0986,-4.0982,-4.0878,-4.0815,-4.08,-4.0866,-4.088,-4.0816,-4.0803,-4.1235,-4.2093,-4.1977,-4.2371,-4.3288,-4.2518,-4.2566,-4.3297,-4.2439,-4.1999,-4.1923,-4.1797,-4.1262,-4.0494,-4.0291,-4.0215,-4.0196,-4.0137,-3.9583,-3.8706,-3.7812,-3.6957,-3.6083,-3.521,-3.4849,-3.479,-3.4653,-3.36,-3.224,-3.1374,-3.0396,-2.9531,-2.9291,-2.9052,-2.8773,-2.829,-2.7982,-2.7297,-2.518,-2.3533,-2.2332,-2.2084,-2.2147,-2.2135,-2.1886,-2.1123,-2.0406,-2.0008,-1.8591,-1.7377,-1.6939,-1.604,-1.5314,-1.4887,-1.416,-1.3233,-1.2103,-1.1061,-1.0256,-0.9788,-0.9096,-0.8574,-0.8277,-0.7447,-0.6611,-0.5873,-0.4957,-0.4128,-0.3426,-0.2733,-0.1929,-0.1004,-0.0364,0.0647,0.2006,0.2125,0.2675,-2.8102,-2.9722,-3.0926,-3.202,-3.2621,-3.2599,-3.1337,-3.0977,-3.0614,-2.9584,-2.8995,-2.8774,-2.9044,-2.958,-2.985,-2.9442,-3.0225,-3.1013,-3.1389,-3.1852,-3.3238,-3.6176,-3.7234,-3.8473,-4.0402,-4.0863,-4.1045,-4.0988,-4.0945,-4.0898,-4.0856,-4.082,-4.0803,-4.0759,-4.0759,-4.09,-4.115,-4.1175,-4.1576,-4.2345,-4.2017,-4.231,-4.3085,-4.267,-4.248,-4.2441,-4.1892,-4.1435,-4.1016,-4.0425,-4.0138,-4.002,-3.9464,-3.8722,-3.7867,-3.6914,-3.61,-3.5362,-3.4981,-3.4809,-3.4788,-3.4666,-3.3537,-3.2146,-3.1767,-3.0597,-2.9392,-2.9246,-2.898,-2.8626,-2.8264,-2.7021,-2.5631,-2.4596,-2.315,-2.1915,-2.1691,-2.1705,-2.1751,-2.1601,-2.0891,-2.0224,-1.9984,-1.8509,-1.7236,-1.694,-1.5904,-1.5013,-1.461,-1.3603,-1.2718,-1.2198,-1.1251,-1.0347,-0.9454,-0.8883,-0.8326,-0.7758,-0.6979,-0.6209,-0.5524,-0.4613,-0.3781,-0.3164,-0.2421,-0.1894,-0.1564,-0.0314,0.0813,0.1906,0.2242,0.2679,-2.6831,-2.8523,-2.9923,-3.1231,-3.1927,-3.2146,-3.1532,-3.1308,-3.1064,-3.0325,-2.977,-2.9414,-2.9426,-2.9872,-3.0045,0.0,0.0,-3.1242,-3.1318,-3.1922,-3.3392,-3.6241,-3.6929,-3.8102,-4.0488,-4.0938,-4.1042,-4.0999,-4.098,-4.0956,-4.0898,-4.061,-4.0544,-4.0784,-4.0803,-4.0759,-4.0668,-4.0668,-4.0935,-4.1443,-4.1463,-4.1909,-4.272,-4.2633,-4.2616,-4.2577,-4.1894,-4.1418,-4.1055,-4.0387,-3.9926,-3.9558,-3.8885,-3.7955,-3.6914,-3.6245,-3.5507,-3.4848,-3.4768,-3.4727,-3.4687,-3.4539,-3.3371,-3.2002,-3.1976,-3.0735,-2.927,-2.9156,-2.8543,-2.796,-2.7936,-2.6033,-2.411,-2.4096,-2.2843,-2.1556,-2.1371,-2.1386,-2.1386,-2.1293,-2.0733,-2.0241,-2.0067,-1.8579,-1.7319,-1.7073,-1.5792,-1.469,-1.4246,-1.3161,-1.2319,-1.2056,-1.1212,-1.0262,-0.93,-0.872,-0.8087,-0.7224,-0.6556,-0.5825,-0.5048,-0.4276,-0.3523,-0.2812,-0.2194,-0.1788,-0.1514,-0.0264,0.0876,0.1796,0.2242,0.275,-2.5629,-2.6917,-2.8128,-3.0582,-3.1194,-3.1212,-3.1129,-3.1145,-3.0984,-3.0264,-3.0152,-2.9982,-2.9319,-3.0232,-3.0636,-2.9247,-3.0788,-3.1958,-3.1284,-3.2851,-3.4462,-3.5488,-3.6491,-3.7815,-3.9637,-4.053,-4.0992,-4.0994,-4.0941,-4.0907,-4.0907,-4.0082,-3.9971,-4.0781,-4.0815,-4.079,-4.079,-4.0668,-4.0588,-4.0607,-4.0546,-4.096,-4.18,-4.1682,-4.1646,-4.17,-4.1475,-4.0959,-4.0215,-3.9994,-3.9437,-3.8698,-3.855,-3.7467,-3.6017,-3.6017,-3.5447,-3.4687,-3.4623,-3.4561,-3.4473,-3.434,-3.3171,-3.1782,-3.1714,-3.058,-2.924,-2.8975,-2.7743,-2.6638,-2.7085,-2.5128,-2.3167,-2.3769,-2.262,-2.1371,-2.123,-2.1215,-2.1135,-2.0926,-2.0844,-2.0712,-2.0429,-1.8987,-1.7764,-1.7368,-1.5698,-1.431,-1.3769,-1.301,-1.227,-1.1678,-1.0723,-0.9923,-0.9549,-0.8772,-0.7826,-0.6768,-0.613,-0.5404,-0.4456,-0.394,-0.3253,-0.2326,-0.2159,-0.1566,-0.0403,-0.0108,0.0616,0.179,0.2071,0.2898,-2.4821,-2.6718,-2.8387,-2.9231,-3.0223,-3.1009,-3.0958,-3.1411,-3.176,-3.1533,-3.1179,-3.0949,-3.0889,-3.1448,-3.1681,-3.0946,-3.2072,-3.3034,-3.3037,-3.3168,-3.4071,-3.6237,-3.7936,-3.9183,-3.9804,-4.0606,-4.1052,-4.0994,-4.0984,-4.0943,-4.0907,-4.0636,-4.0586,-4.0796,-4.0219,-4.0176,-4.0732,-4.0648,-4.0593,-4.0603,-4.0531,-4.0636,-4.0902,-4.0781,-4.0691,-4.0634,-3.9986,-3.9489,-3.9123,-3.8454,-3.8012,-3.7683,-3.6974,-3.6427,-3.592,-3.5227,-3.483,-3.4623,-3.4495,-3.445,-3.4427,-3.4316,-3.3171,-3.1782,-3.1668,-3.0429,-2.8998,-2.8543,-2.7522,-2.6545,-2.6371,-2.4675,-2.3,-2.2948,-2.2053,-2.1151,-2.0974,-2.0876,-2.081,-2.0662,-2.0444,-2.0289,-2.0166,-1.8699,-1.7467,-1.7132,-1.5468,-1.3973,-1.3306,-1.2543,-1.1799,-1.1057,-1.0205,-0.9509,-0.907,-0.8252,-0.7384,-0.6465,-0.5739,-0.5058,-0.4408,-0.3664,-0.3017,-0.2379,-0.1988,-0.1323,-0.0471,-0.0,0.084,0.2074,0.2519,0.32,-2.4296,-2.609,-2.7745,-2.8707,-2.9709,-3.0594,-3.1115,-3.1707,-3.2108,-3.2144,-3.1933,-3.1744,-3.1716,-3.2036,-3.2182,-3.1713,-3.2633,-3.3505,-3.3783,-3.3808,-3.4475,-3.627,-3.7862,-3.8973,-3.9375,-4.014,-4.0734,-4.1025,-4.0999,-4.098,-4.0945,-4.0625,-4.0558,-4.0819,-4.0303,-4.0064,-4.0254,-4.0165,-3.9976,-3.9625,-3.9554,-3.9525,-3.9506,-3.9387,-3.9315,-3.924,-3.8651,-3.8327,0.0,-3.7595,-3.7135,-3.671,-3.6136,-3.5722,-3.5405,-3.4771,-3.4539,-3.4539,-3.445,-3.4381,-3.426,-3.3892,-3.259,-3.1103,-3.0649,-2.974,-2.8707,-2.795,-2.6941,-2.5981,-2.5558,-2.4022,-2.254,-2.2507,-2.173,-2.099,-2.081,-2.0677,-2.0543,-2.0392,-2.0185,-1.9975,-1.9812,-1.8337,-1.7098,-1.6725,-1.5019,-1.3509,-1.2812,-1.2079,-1.1308,-1.0475,-0.9667,-0.895,-0.8277,-0.7675,-0.6972,-0.6118,-0.5399,-0.4701,-0.4108,-0.3419,-0.2815,-0.219,-0.1834,-0.1188,-0.0266,0.0551,0.1456,0.2355,0.299,0.3567,0.0,-2.5275,-2.661,-2.8869,-2.9626,-3.0127,-3.144,-3.193,0.0,-3.2179,-3.2353,-3.2378,-3.1889,-3.2166,-3.231,-3.1789,-3.2713,-3.3559,-3.377,-3.468,-3.5438,-3.5768,-3.6635,-3.7555,-3.8418,-3.9248,-4.004,-4.0842,-4.085,-4.0824,-4.0807,-4.0042,-3.9956,-4.0694,-4.0664,-4.0253,-3.9503,-3.938,-3.8857,-3.8001,-3.7928,-3.7904,-3.7885,-3.7764,-3.7712,-3.7695,-3.7566,-3.7433,-3.7275,-3.7171,-3.6594,-3.5816,-3.5807,-3.5315,-3.4583,-3.4583,-3.4539,-3.4473,-3.4427,-3.4255,-3.3931,-3.303,-3.1568,-2.9996,-2.9004,-2.8608,-2.8283,-2.7289,-2.6064,-2.5032,-2.4704,-2.3207,-2.1903,-2.2296,-2.1649,-2.0844,-2.0711,-2.0525,-2.0339,-2.01,-2.0025,-1.9827,-1.9413,-1.797,-1.6691,-1.6131,-1.4406,-1.2941,-1.2294,-1.1579,-1.0781,-0.9914,-0.9102,-0.8259,-0.7328,-0.7049,-0.655,-0.5696,-0.5101,-0.4357,-0.351,-0.3205,-0.267,-0.1825,-0.1737,-0.1051,0.0215,0.1439,0.2194,0.2542,0.3361,0.4005,-2.3734,0.0,-2.7891,-2.8506,-2.9642,-3.0698,0.0,0.0,0.0,-3.1984,-3.2283,-3.2619,-3.2679,-3.3067,-3.3458,-3.361,-3.4067,-3.449,-3.475,-3.521,-3.563,-3.584,-3.6699,-3.7368,-3.7578,-3.8327,-3.8896,-3.9096,-3.905,-3.9002,-3.9013,-3.8762,-3.8733,-3.8984,-3.8918,-3.9102,-3.9566,-3.8786,-3.8267,-3.8001,-3.7878,-3.7816,-3.7816,-3.775,-3.766,-3.7604,-3.6901,-3.6501,-3.6283,-3.5598,-3.5157,-3.4905,-3.4839,-3.4705,-3.4517,-3.4404,-3.4363,-3.434,-3.4269,-3.3788,-3.295,-3.1413,-3.0599,-2.9996,-2.9004,-2.8202,-2.7486,-2.6916,-2.5622,-2.4274,-2.3823,-2.2718,-2.1697,-2.1535,-2.115,-2.0761,-2.0475,-2.0339,-2.0235,-1.9854,-1.9654,-1.9413,-1.9026,-1.7596,-1.6302,-1.5671,-1.4088,-1.2602,-1.1678,-1.0874,-1.006,-0.9173,-0.8472,-0.7739,-0.693,-0.6459,-0.5953,-0.527,-0.4535,-0.3864,-0.3366,-0.281,-0.2297,-0.1896,-0.0934,0.0113,0.1268,0.1451,0.1887,0.2536,0.3197,0.3758,-2.2665,-2.5402,-2.8008,-2.8845,-3.0037,-3.1046,-3.1324,0.0,0.0,-3.2073,-3.2369,-3.2752,-3.3073,-3.3444,-3.3815,-3.4197,-3.4502,-3.4832,-3.5184,-3.5476,-3.5717,-3.5879,-3.6376,-3.6864,-3.7265,-3.768,-3.8068,-3.8423,-3.8424,-3.8393,-3.8355,-3.8316,-3.8316,-3.8355,-3.7967,-3.7948,-3.8413,-3.78,-3.727,-3.6818,-3.6711,-3.6654,-3.6604,-3.6568,-3.6498,-3.6369,-3.5931,-3.5647,-3.5411,-3.4938,-3.4687,-3.4602,-3.4561,-3.4517,-3.4495,-3.4427,-3.434,-3.4293,-3.4269,-3.3393,-3.207,-3.0649,-2.9886,-2.9326,-2.836,-2.7392,-2.6606,-2.6322,-2.5191,-2.3873,-2.3051,-2.2274,-2.1603,-2.1278,-2.0974,-2.0677,-2.0373,-2.0235,-2.0025,-1.9617,-1.9347,-1.9049,-1.8606,-1.7064,-1.5671,-1.507,-1.3435,-1.1959,-1.1094,-1.035,-0.9634,-0.8798,-0.8242,-0.7579,-0.6783,-0.6112,-0.5525,-0.4893,-0.4184,-0.3576,-0.3061,-0.2488,-0.1963,-0.1473,-0.0389,0.0627,0.1534,0.1709,0.2093,0.2774,0.3366,0.3924,-2.1681,-2.4408,-2.7469,-2.9169,-3.0468,-3.1462,-3.2004,0.0,0.0,-3.2318,-3.257,-3.288,-3.3262,-3.3549,-3.3842,-3.4173,-3.4561,-3.4945,-3.5364,-3.5577,-3.5754,-3.5879,-3.5966,-3.6298,-3.703,-3.7031,-3.7279,-3.7955,-3.8,-3.7967,-3.7918,-3.789,-3.789,-3.7889,-3.723,-3.6842,-3.6784,-3.6656,-3.6203,-3.5411,-3.532,-3.5245,-3.5198,-3.5196,-3.5126,-3.502,-3.5038,-3.4965,-3.4788,-3.4788,-3.4708,-3.4602,-3.4602,-3.4539,-3.4495,-3.4473,-3.4386,-3.4255,-3.399,-3.2868,-3.1407,-3.0277,-2.9357,-2.8499,-2.7561,-2.6613,-2.5804,-2.5551,-2.4646,-2.3559,-2.2462,-2.1911,-2.1587,-2.123,-2.0909,-2.0592,-2.0304,-2.0061,-1.9812,-1.9413,-1.9035,-1.8612,-1.8011,-1.64,-1.4968,-1.4352,-1.2613,-1.1201,-1.0634,-0.9958,-0.9269,-0.8566,-0.807,-0.7419,-0.658,-0.5828,-0.5117,-0.4451,-0.3898,-0.3242,-0.2576,-0.209,-0.1529,-0.0784,0.0056,0.0855,0.1532,0.201,0.2527,0.3102,0.3702,0.4204,-2.2312,-2.462,-2.6792,-2.8241,-3.0517,-3.2364,-3.2353,-3.2456,-3.2539,0.0,-3.2816,-3.3117,-3.3334,-3.3643,-3.3972,-3.4316,-3.4831,-3.527,-3.5457,-3.562,-3.5741,-3.5878,-3.5951,-3.6044,-3.6191,-3.613,-3.6124,-3.6197,-3.616,-3.6115,-3.6105,-3.6043,-3.6013,-3.6005,-3.5897,-3.5828,-3.5817,-3.5732,-3.5599,-3.5393,-3.5273,-3.5209,-3.5193,-3.5145,-3.511,-3.5075,-3.4983,-3.4888,-3.4788,-3.4747,-3.4666,-3.4583,-3.4539,-3.4473,-3.4427,-3.434,-3.4269,-3.3993,-3.2524,-3.1758,-3.117,-2.9515,-2.8846,-2.8424,-2.7417,-2.6486,-2.5525,-2.462,-2.3685,-2.285,-2.2203,-2.1777,-2.1432,-2.1023,-2.0695,-2.0339,-1.9955,-1.9797,-1.9581,-1.9011,-1.8616,-1.8021,-1.6863,-1.5582,-1.4344,-1.324,-1.1943,-1.0887,-1.0425,-0.9672,-0.888,-0.8107,-0.75,-0.672,-0.5707,-0.519,-0.457,-0.3736,-0.3254,-0.267,-0.1792,-0.1141,-0.061,-0.0168,0.0842,0.1425,0.1647,0.2176,0.2735,0.333,0.3946,0.4527,-2.0827,-2.3034,-2.5311,-2.687,-2.9699,-3.2172,-3.2484,-3.3024,-3.3298,-3.2731,-3.3293,-3.3659,-3.2819,-3.2975,-3.3383,-3.3845,-3.4696,-3.5364,-3.5477,-3.5243,-3.5088,-3.5184,-3.4839,-3.4603,-3.4607,-3.495,-3.5168,-3.5092,-3.5465,-3.5688,-3.5646,-3.5623,-3.5601,-3.5601,-3.5601,-3.5589,-3.5553,-3.5515,-3.5463,-3.5398,-3.5308,-3.5229,-3.5215,-3.5164,-3.511,-3.5038,-3.4945,-3.4831,-3.4747,-3.4666,-3.4602,-3.4495,-3.4473,-3.4386,-3.434,-3.4221,-3.3846,-3.3216,-3.1937,-3.114,-3.0467,-2.9143,-2.8637,-2.8276,-2.6849,-2.6037,-2.5323,-2.3789,-2.3041,-2.2561,-2.2084,-2.1718,-2.1401,-2.0991,-2.0628,-2.032,-1.999,-1.9617,-1.9236,-1.8745,-1.7963,-1.7169,-1.6563,-1.4903,-1.3482,-1.2957,-1.1491,-1.0303,-0.9772,-0.9006,-0.8268,-0.7702,-0.719,-0.6546,-0.5761,-0.517,-0.4361,-0.3163,-0.2509,-0.1988,-0.1437,-0.0716,-0.0056,0.0449,0.1178,0.1783,0.2414,0.2631,0.309,0.3757,0.4334,0.4888,-1.8927,-2.1107,-2.366,-2.5577,-2.847,-3.111,-3.2218,-3.2952,-3.3243,-3.2813,-3.3586,-3.3953,-3.2648,-3.2801,-3.3217,-3.3485,-3.4346,-3.5038,-3.5181,-3.4613,-3.4221,-3.4296,-3.3766,-3.3393,-3.3394,-3.3932,-3.4261,-3.4206,-3.4739,-3.5067,-3.5002,-3.5164,-3.5276,-3.527,-3.5456,-3.554,-3.5489,-3.5468,-3.5446,-3.5379,-3.5324,-3.5245,-3.5198,-3.52,-3.5129,-3.5001,-3.4927,-3.4811,-3.4666,-3.4623,-3.4517,-3.4386,-3.4386,-3.4228,-3.3966,-3.3802,-3.316,-3.2249,-3.1384,-3.0631,-2.9874,-2.8891,-2.841,-2.7867,-2.6231,-2.5543,-2.4945,-2.3171,-2.2605,-2.2443,-2.1986,-2.1691,-2.1339,-2.0942,-2.0595,-2.0235,-1.9884,-1.9398,-1.886,-1.8344,-1.7382,-1.6543,-1.6186,-1.4339,-1.285,-1.26,-1.1045,-0.9732,-0.9258,-0.8548,-0.7874,-0.7445,-0.6925,-0.6276,-0.5474,-0.48,-0.3869,-0.2637,-0.1911,-0.1457,-0.124,-0.0442,0.0336,0.1122,0.1458,0.2078,0.299,0.3129,0.3602,0.4251,0.4749,0.5223,-1.7493,-1.9479,-2.2108,-2.4729,-2.6782,-2.8818,-3.1235,-3.1296,-3.1279,-3.275,-3.3393,-3.3642,-3.3579,-3.4012,-3.4202,-3.3677,-3.387,-3.4146,-3.4283,-3.3722,-3.3313,-3.3387,-3.3392,-3.339,-3.3394,-3.3392,-3.3361,-3.3301,-3.3294,-3.3258,-3.3191,-3.3889,-3.4308,-3.4308,-3.5097,-3.5488,-3.5507,-3.5446,-3.5364,-3.5315,-3.5308,-3.5261,-3.5193,-3.5198,-3.5129,-3.5001,-3.4927,-3.4791,-3.4623,-3.4602,-3.4517,-3.4386,-3.4386,-3.3827,-3.2974,-3.2853,-3.2206,-3.1297,-3.0467,-3.0031,-2.9689,-2.8771,-2.7911,-2.7002,-2.5941,-2.505,-2.4138,-2.2936,-2.247,-2.2231,-2.1915,-2.1556,-2.1214,-2.081,-2.0392,-1.996,-1.931,-1.8974,-1.8539,-1.7558,-1.7037,-1.641,-1.5223,-1.3902,-1.2641,-1.1664,-1.0397,-0.9452,-0.9231,-0.8626,-0.7936,-0.7389,-0.6596,-0.5517,-0.3971,-0.3338,-0.2732,-0.2111,-0.1729,-0.1342,-0.095,-0.0336,0.0561,0.1685,0.1905,0.2278,0.2886,0.358,0.4247,0.4957,0.5229,0.5693,-1.6963,-1.8615,-2.0618,-2.3239,-2.4874,-2.6668,-2.9799,-3.1088,-3.1957,-3.3164,-3.3938,-3.4019,-3.2761,-3.2832,-3.2861,-3.2201,-3.3163,-3.3863,-3.3449,-3.2812,-3.2415,-3.248,-3.2073,-3.1573,-3.1034,-3.1441,-3.1714,-3.1642,-3.2055,-3.2492,-3.2964,-3.3262,-3.3397,-3.3384,-3.3698,-3.3884,-3.3891,-3.3859,-3.3832,-3.381,-3.4825,-3.5277,-3.5261,-3.5181,-3.5092,-3.5001,-3.4831,-3.4708,-3.4502,-3.3908,-3.3593,-3.3422,-3.2855,-3.2371,-3.1949,-3.1918,-3.1279,-3.037,-3.0035,-2.9515,-2.8915,-2.8522,-2.7789,-2.6853,-2.5826,-2.4892,-2.3937,-2.2801,-2.226,-2.1986,-2.1797,-2.1526,-2.1183,-2.0695,-2.0289,-1.9884,-1.925,-1.8669,-1.8054,-1.7271,-1.6472,-1.5598,-1.4576,-1.332,-1.2135,-1.1194,-1.0197,-0.9401,-0.8866,-0.8366,-0.776,-0.7098,-0.5861,-0.4684,-0.3713,-0.2938,-0.2294,-0.1906,-0.1628,-0.1178,-0.0393,-0.0,0.0728,0.1962,0.2073,0.2584,0.3445,0.3914,0.4537,0.5274,0.5657,0.6148,-1.5643,-1.7199,-1.8999,-2.1371,0.0,-2.4807,-2.8273,-3.0296,-3.1673,-3.2637,-3.3341,-3.3345,-3.1753,-3.1856,-3.1977,-3.1307,-3.234,-3.2962,-3.2205,-3.1728,-3.1285,-3.0821,-3.0466,-2.9951,-2.918,-2.9628,-2.9942,-2.9874,-3.0585,-3.1235,-3.1746,-3.2244,-3.2513,-3.2499,-3.2762,-3.2904,-3.2897,-3.2885,-3.2872,-3.291,-3.3949,-3.4458,-3.4477,-3.4361,-3.4239,-3.4131,-3.3997,-3.3834,-3.3646,-3.2956,-3.26,-3.2427,-3.18,-3.1293,-3.0974,-3.0943,-3.0305,-2.9479,-2.9409,-2.8807,-2.8036,-2.7924,-2.7103,-2.6029,-2.5279,-2.4392,-2.3465,-2.2552,-2.2089,-2.1781,-2.1587,-2.1371,-2.1039,-2.0512,-1.9947,-1.9361,-1.8633,-1.8012,-1.733,-1.661,-1.5914,-1.515,-1.42,-1.3017,-1.186,-1.0896,-1.0031,-0.9263,-0.8583,-0.8129,-0.7541,-0.6589,-0.528,-0.4234,-0.3508,-0.2685,-0.2074,-0.1797,-0.1347,-0.0729,0.0112,0.0449,0.1064,0.2183,0.2319,0.2919,0.3872,0.4282,0.4861,0.5561,0.6017,0.6478,-1.3236,-1.505,-1.7243,-1.9225,-2.1069,-2.3307,-2.6708,-2.8637,-2.9962,-3.0921,-3.1302,-3.1339,-3.0793,-3.1522,-3.1959,-3.1288,-3.1352,-3.1243,-3.0482,-3.0443,-2.9893,-2.8282,-2.8688,-2.8852,-2.8241,-2.8192,-2.8158,-2.8094,-2.8822,-2.9217,-2.9094,-3.0737,-3.1635,-3.159,-3.241,-3.2878,-3.2878,-3.2799,-3.2826,-3.2872,-3.2675,-3.2603,-3.2691,-3.2622,-3.2492,-3.2298,-3.2298,-3.2143,-3.1871,-3.1827,-3.1695,-3.156,-3.144,-3.0846,-3.0076,-2.9944,-2.9334,-2.8587,-2.8518,-2.7875,-2.7107,-2.7004,-2.5798,-2.4355,-2.4147,-2.3449,-2.2615,-2.2226,-2.1882,-2.1617,-2.1293,-2.1039,-2.0763,-2.0239,-1.9325,-1.8332,-1.7385,-1.688,-1.631,-1.5463,-1.544,-1.5248,-1.4093,-1.3076,-1.1994,-1.0874,-0.9887,-0.9039,-0.8364,-0.8078,-0.7281,-0.5764,-0.4959,-0.4128,-0.3186,-0.2517,-0.2074,-0.1797,-0.0842,-0.0112,0.0393,0.0898,0.157,0.2354,0.2715,0.328,0.4,0.481,0.5467,0.5892,0.6222,0.6679,-1.2767,-1.4708,-1.6958,-1.9379,-2.1768,-2.4002,-2.5777,-2.775,-2.9655,-3.1219,-3.1159,-3.0878,-3.0902,-3.1205,-3.1028,-2.9772,-3.0157,-3.0132,-2.8824,-2.9014,-2.9004,-2.8197,-2.7931,-2.7713,-2.738,-2.7315,-2.7289,-2.7257,-2.7396,-2.77,-2.8231,-2.8698,-2.924,-2.9817,-3.0086,-3.0521,-3.1136,-3.1072,-3.1053,-3.1066,-3.0967,-3.1575,-3.2752,-3.2559,-3.2406,-3.2279,-3.2143,-3.1979,-3.1768,-3.0993,-3.0323,-2.9761,-2.9619,-2.9424,-2.9156,-2.905,-2.8786,-2.842,-2.7689,-2.7271,-2.6933,-2.6242,-2.5183,-2.4147,-2.4014,-2.3172,-2.2226,-2.1969,-2.1691,-2.1386,-2.1023,-2.0663,-2.0311,-1.9925,-1.8975,-1.7978,-1.7198,-1.6355,-1.5647,-1.5278,-1.5066,-1.458,-1.3258,-1.268,-1.1859,-1.0224,-0.9602,-0.8996,-0.8126,-0.7392,-0.6608,-0.571,-0.4732,-0.3846,-0.3016,-0.224,-0.157,-0.101,-0.0336,0.0112,0.0336,0.101,0.1588,0.2028,0.2689,0.3435,0.431,0.4988,0.5664,0.6288,0.6745,0.7204,-1.2016,-1.3868,-1.5962,-1.8492,-2.0976,-2.3396,-2.563,-2.7211,-2.8566,-3.0009,-2.9727,-2.9269,-2.9493,-2.9614,-2.9383,-2.8531,-2.9059,-2.9063,-2.7634,-2.8027,-2.8016,-2.6735,-2.6227,-2.5849,-2.5483,-2.5735,-2.5909,-2.5882,-2.6377,-2.6908,-2.7354,-2.7659,-2.8233,-2.9079,-2.9129,-2.9544,-3.0383,-3.0328,-3.0316,-3.0336,-3.0207,-3.0706,-3.1713,-3.1504,-3.1351,-3.1205,-3.0966,-3.0772,-3.0623,-2.9916,-2.9368,-2.8923,-2.8761,-2.8712,-2.8676,-2.825,-2.8023,-2.7821,-2.6895,-2.631,-2.5851,-2.5253,-2.4348,-2.3465,-2.3285,-2.2666,-2.1953,-2.1691,-2.1417,-2.1023,-2.0349,-2.0023,-1.9763,-1.9224,-1.8237,-1.7206,-1.6295,-1.5419,-1.4765,-1.4533,-1.4482,-1.3993,-1.2591,-1.2257,-1.1566,-0.9864,-0.9199,-0.8618,-0.7824,-0.6968,-0.6162,-0.549,-0.4529,-0.3624,-0.2961,-0.224,-0.1457,-0.0673,-0.0,0.0505,0.0785,0.1347,0.1812,0.2192,0.2953,0.3714,0.4415,0.529,0.5986,0.6548,0.7138,0.7596,-1.1162,-1.2775,-1.4596,-1.7022,-1.9535,-2.2331,-2.5988,-2.6778,-2.6991,-2.7905,-2.7455,-2.6943,-2.7075,-2.7191,-2.7279,-2.7287,-2.7862,-2.7864,-2.6601,-2.7066,-2.6713,-2.4527,-2.4023,-2.3659,-2.3155,-2.3823,-2.4252,-2.4209,-2.5601,-2.6445,-2.6371,-2.719,-2.8046,-2.8868,-2.8931,-2.9357,-3.0166,-3.011,-3.0143,-3.0283,-3.0065,-3.0022,-3.0087,-2.994,-2.9771,-2.9549,-2.9222,-2.9062,-2.897,-2.8852,-2.8785,-2.8785,-2.8637,-2.8551,-2.8388,-2.7572,-2.7148,-2.6867,-2.6032,-2.5159,-2.4327,-2.4112,-2.3388,-2.249,-2.2152,-2.191,-2.1652,-2.1274,-2.0927,-2.0447,-1.9425,-1.9196,-1.8994,-1.8156,-1.7234,-1.6186,-1.4933,-1.4264,-1.3803,-1.3457,-1.372,-1.3535,-1.2042,-1.1798,-1.1221,-0.9636,-0.8746,-0.8074,-0.7506,-0.6723,-0.5952,-0.5246,-0.4348,-0.3555,-0.2892,-0.24,-0.1624,-0.0617,0.0168,0.0898,0.1515,0.174,0.2079,0.2703,0.3453,0.4041,0.4543,0.5642,0.6388,0.678,0.7456,0.8047,-1.0882,-1.2359,-1.4106,-1.7082,-2.1058,-2.4457,-2.5387,-2.5456,-2.5698,-2.6987,-2.6257,-2.5418,-2.5545,-2.559,-2.5451,-2.4946,-2.5505,-2.5637,-2.4571,-2.4186,-2.3986,-2.3985,-2.3194,-2.2781,-2.3077,-2.326,-2.3371,-2.3369,-2.4216,-2.4742,-2.4714,-2.5487,-2.6359,-2.7265,-2.7266,-2.7615,-2.8434,-2.8382,-2.8653,-2.9308,-2.9164,-2.9406,-3.0022,-2.9822,-2.9589,-2.9347,-2.913,-2.8952,-2.8834,-2.8687,-2.8687,-2.8694,-2.851,-2.8088,-2.7543,-2.7256,-2.6698,-2.5946,-2.4986,-2.447,-2.4095,-2.3187,-2.2573,-2.2051,-2.1239,-2.0821,-2.0483,-2.0129,-1.9515,-1.8921,-1.8915,-1.8233,-1.7334,-1.631,-1.6089,-1.5816,-1.4706,-1.3851,-1.3321,-1.3385,-1.324,-1.2811,-1.2005,-1.1613,-1.0787,-0.8986,-0.833,-0.7781,-0.6984,-0.6411,-0.5849,-0.5047,-0.4244,-0.3433,-0.2634,-0.2153,-0.1402,-0.0336,0.0393,0.1121,0.1736,0.1903,0.2209,0.2789,0.3533,0.4255,0.4844,0.5849,0.6591,0.7098,0.796,0.856,-1.0424,-1.1533,-1.2955,-1.5881,-1.8523,-2.0612,-2.1436,-2.1521,-2.1664,-2.2432,-2.3034,-2.3529,-2.3883,-2.3985,-2.3899,-2.3584,-2.3883,-2.3985,-2.3488,-2.2455,-2.2045,-2.2803,-2.2395,-2.2012,-2.1866,-2.2226,-2.2483,-2.2487,-2.3189,-2.3785,-2.418,-2.4599,-2.5425,-2.6764,-2.6773,-2.7136,-2.7941,-2.7875,-2.8052,-2.842,-2.8286,-2.8354,-2.8636,-2.9232,-2.9414,-2.924,-2.8929,-2.8761,-2.8687,-2.8562,-2.851,-2.8482,-2.7975,-2.7536,-2.7051,-2.6215,-2.5547,-2.4943,-2.3997,-2.3563,-2.3327,-2.2661,-2.1995,-2.1311,-2.0747,-2.0329,-1.992,-1.9217,-1.8842,-1.8463,-1.7736,-1.72,-1.6451,-1.5066,-1.5071,-1.5127,-1.4114,-1.3421,-1.2959,-1.2938,-1.2739,-1.2318,-1.1545,-1.0835,-0.9916,-0.8635,-0.8118,-0.7546,-0.6624,-0.6169,-0.5592,-0.4788,-0.4093,-0.3417,-0.267,-0.2111,-0.1459,-0.0561,0.0505,0.1345,0.1902,0.2237,0.2647,0.3149,0.3785,0.4432,0.5151,0.6137,0.6898,0.7466,0.8446,0.9081,-0.961,-1.0612,-1.1869,-1.431,-1.4878,-1.5197,-1.6529,-1.6842,-1.6884,-1.7032,-1.9148,-2.112,-2.1624,-2.186,-2.1977,-2.2023,-2.2125,-2.2274,-2.2532,-2.1216,-2.0555,-2.1473,-2.1578,-2.1285,-2.0576,-2.1152,-2.1593,-2.1589,-2.2481,-2.332,-2.3964,-2.4269,-2.5104,-2.654,-2.6592,-2.6919,-2.7563,-2.7507,-2.7507,-2.7589,-2.7561,-2.7388,-2.7118,-2.8311,-2.8894,-2.8953,-2.8707,-2.8612,-2.8594,-2.8288,-2.8182,-2.8092,-2.7233,-2.6744,-2.6399,-2.5066,-2.4325,-2.3911,-2.3022,-2.2557,-2.2319,-2.1993,-2.1245,-2.0388,-2.0029,-1.972,-1.9262,-1.8315,-1.8155,-1.7954,-1.6488,-1.6117,-1.5751,-1.4233,-1.4175,-1.428,-1.3493,-1.3047,-1.2697,-1.2437,-1.2212,-1.1783,-1.095,-0.9942,-0.9079,-0.8447,-0.8002,-0.737,-0.6422,-0.5963,-0.5389,-0.4557,-0.4043,-0.3456,-0.2747,-0.2174,-0.1572,-0.0842,0.0505,0.1457,0.2015,0.2629,0.3183,0.3683,0.4074,0.4718,0.555,0.654,0.7293,0.7892,0.8897,0.96,-0.7965,-0.9798,-1.1984,-1.3454,-1.342,-1.31,-1.3321,-1.3367,-1.352,-1.4053,-1.6016,-1.7677,-1.775,-1.8207,-1.8571,-1.8578,-1.9002,-1.9702,-2.0685,-1.9784,-1.9441,-2.0538,-2.0669,-2.0625,-2.0508,-2.066,-2.0742,-2.0678,-2.2179,-2.3134,-2.3247,-2.4622,-2.5527,-2.5751,-2.5749,-2.5771,-2.5822,-2.5774,-2.6044,-2.6677,-2.7139,-2.7234,-2.7027,-2.7042,-2.7419,-2.8095,-2.8446,-2.8637,-2.8615,-2.7677,-2.7312,-2.7273,-2.6343,-2.5461,-2.4703,-2.4501,-2.3814,-2.2877,-2.2013,-2.1559,-2.1204,-2.02,-1.9718,-1.9311,-1.8419,-1.7963,-1.763,-1.7152,-1.6427,-1.5794,-1.5819,-1.5221,-1.449,-1.4013,-1.3726,-1.348,-1.321,-1.292,-1.2662,-1.2508,-1.1782,-1.1016,-1.0477,-0.9795,-0.907,-0.8349,-0.7912,-0.7328,-0.6349,-0.595,-0.5417,-0.4523,-0.402,-0.345,-0.2607,-0.2279,-0.1628,-0.0393,0.0505,0.1233,0.179,0.2629,0.3352,0.391,0.4536,0.523,0.6076,0.6944,0.7759,0.8572,0.9346,0.9989,-0.7404,-0.8663,-1.0207,-1.2103,-1.1436,-1.0703,-1.2329,-1.231,-1.22,-1.295,-1.3917,-1.4927,-1.5877,-1.6309,-1.6668,-1.7146,-1.7582,-1.8133,-1.8978,-1.8376,-1.8147,-1.8945,-1.9464,-1.976,-1.9768,-2.0236,-2.0522,-2.0508,-2.1206,-2.1858,-2.2357,-2.3536,-2.4424,-2.49,-2.5362,-2.5579,-2.5512,-2.5468,-2.5543,-2.5726,-2.584,-2.5828,-2.5735,-2.5931,-2.6438,-2.7123,-2.718,-2.7181,-2.7163,-2.668,-2.6455,-2.6333,-2.5422,-2.4739,-2.4233,-2.371,-2.2885,-2.1945,-2.1498,-2.0899,-2.0274,-1.964,-1.8963,-1.8315,-1.7829,-1.7423,-1.6969,-1.6174,-1.581,-1.5524,-1.5101,-1.4523,-1.4007,-1.3728,-1.3391,-1.3082,-1.292,-1.2733,-1.2437,-1.1945,-1.1356,-1.0764,-1.0244,-0.9725,-0.9159,-0.8439,-0.7904,-0.728,-0.6386,-0.5964,-0.5412,-0.4554,-0.4223,-0.3695,-0.2697,-0.2233,-0.1569,-0.0673,0.0224,0.1065,0.1794,0.2573,0.3297,0.3855,0.457,0.527,0.5974,0.7036,0.7844,0.8374,0.9406,1.018,-0.6785,-0.742,-0.8044,-1.0125,-0.9533,-0.8947,-1.0904,-1.0994,-1.0806,-1.1284,-1.1431,-1.1918,-1.3306,-1.4204,-1.4966,-1.5623,-1.6064,-1.6576,-1.7236,-1.7129,-1.7192,-1.7832,-1.8469,-1.8877,-1.8867,-1.9653,-2.0178,-2.0188,-2.0586,-2.1111,-2.177,-2.2626,-2.3398,-2.4043,-2.4842,-2.5231,-2.5169,-2.5348,-2.5303,-2.5101,-2.4889,-2.476,-2.4685,-2.5041,-2.5443,-2.5905,-2.6046,-2.6087,-2.5997,-2.5793,-2.5625,-2.5447,-2.453,-2.4056,-2.3755,-2.3024,-2.2151,-2.1301,-2.095,-2.02,-1.9303,-1.8886,-1.814,-1.7369,-1.7258,-1.6887,-1.6368,-1.546,-1.537,-1.5287,-1.4409,-1.4007,-1.3741,-1.3493,-1.3151,-1.2803,-1.2591,-1.2437,-1.2102,-1.1356,-1.0981,-1.0582,-1.0019,-0.9616,-0.9128,-0.8455,-0.787,-0.7189,-0.6465,-0.597,-0.5394,-0.4646,-0.4348,-0.3804,-0.289,-0.2209,-0.1548,-0.1052,0.0056,0.1009,0.1684,0.2517,0.3241,0.3852,0.4622,0.536,0.6032,0.713,0.7881,0.8431,0.9501,1.0236,-0.5633,-0.6108,-0.603,-0.7233,-0.8015,-0.836,-0.7809,-0.8173,-0.8483,-0.7894,-0.7824,-0.8075,-0.8734,-1.1084,-1.2963,-1.3083,-1.375,-1.4551,-1.5403,-1.6158,-1.6941,-1.78,-1.7937,-1.7975,-1.7975,-1.876,-1.9285,-1.9355,-2.0834,-2.1757,-2.1797,-2.2635,-2.3116,-2.3161,-2.3956,-2.4341,-2.427,-2.4908,-2.5184,-2.5101,-2.4889,-2.4726,-2.4599,-2.4448,-2.4302,-2.4313,-2.5619,-2.6157,-2.6015,-2.5195,-2.4819,-2.4641,-2.3642,-2.3098,-2.2842,-2.2676,-2.201,-2.1075,-2.0166,-1.9266,-1.829,-1.7281,-1.6765,-1.6521,-1.6253,-1.5886,-1.5492,-1.5118,-1.47,-1.4308,-1.3987,-1.3728,-1.3459,-1.3267,-1.3012,-1.2685,-1.2222,-1.1957,-1.1664,-1.1132,-1.0715,-1.0273,-0.9793,-0.9346,-0.8854,-0.8291,-0.7753,-0.7202,-0.6562,-0.6019,-0.5463,-0.4859,-0.4268,-0.3711,-0.315,-0.2299,-0.1653,-0.1282,0.0055,0.1064,0.151,0.2516,0.3352,0.3965,0.4842,0.5754,0.6739,0.727,0.8091,0.9181,0.964,1.0232,-0.2263,-0.2315,-0.2444,-0.5096,-0.5399,-0.521,-0.5843,-0.6293,-0.6657,-0.699,-0.7582,-0.8032,-0.7993,-0.9293,-1.0547,-1.1149,-1.1948,-1.279,-1.3613,-1.3982,-1.4472,-1.5354,-1.5924,-1.6448,-1.6999,-1.7847,-1.8604,-1.9192,-1.9787,-2.0373,-2.0947,-2.1794,-2.2265,-2.2273,-2.3085,-2.3723,-2.413,-2.4841,-2.5145,-2.5038,-2.4884,-2.4757,-2.4666,-2.4465,-2.4266,-2.4133,-2.4618,-2.4726,-2.4532,-2.4167,-2.3945,-2.3697,-2.2735,-2.2534,-2.2591,-2.1395,-2.066,-2.0166,-1.9171,-1.8179,-1.7229,-1.6765,-1.6367,-1.6067,-1.5839,-1.5566,-1.5193,-1.4763,-1.4401,-1.4078,-1.3728,-1.3425,-1.3116,-1.2685,-1.2354,-1.2077,-1.176,-1.166,-1.1463,-1.1029,-1.0764,-1.0418,-0.998,-0.9634,-0.9274,-0.8708,-0.8036,-0.7398,-0.6823,-0.6147,-0.5458,-0.4753,-0.4385,-0.3839,-0.2994,-0.2444,-0.192,-0.133,-0.0215,0.0877,0.1905,0.2465,0.3077,0.3852,0.4574,0.5372,0.6271,0.7079,0.7942,0.8819,0.943,1.0157,0.0945,0.0623,0.0067,-0.2461,-0.2971,-0.308,-0.3875,-0.4329,-0.4756,-0.5429,-0.609,-0.6617,-0.6793,-0.7539,-0.851,-0.9671,-1.0584,-1.1427,-1.2259,-1.2852,-1.3426,-1.4006,-1.4799,-1.5526,-1.6106,-1.6948,-1.7823,-1.8701,-1.9029,-1.9584,-2.046,-2.1042,-2.1503,-2.178,-2.2348,-2.3104,-2.4102,-2.4533,-2.4836,-2.5,-2.4865,-2.4753,-2.4666,-2.4498,-2.4321,-2.4135,-2.3802,-2.3699,-2.3721,-2.3674,-2.3356,-2.2864,-2.2154,-2.1878,-2.173,-2.0425,-1.9739,-1.9275,-1.8519,-1.7581,-1.667,-1.6501,-1.6163,-1.574,-1.5507,-1.5225,-1.4887,-1.4447,-1.4111,-1.3835,-1.3547,-1.3185,-1.2733,-1.221,-1.1872,-1.1675,-1.1485,-1.14,-1.1239,-1.0888,-1.0687,-1.0418,-1.0019,-0.9744,-0.9426,-0.8935,-0.8193,-0.7489,-0.6956,-0.6227,-0.5453,-0.4748,-0.4378,-0.3809,-0.2982,-0.2543,-0.2038,-0.1463,-0.0481,0.0602,0.1796,0.23,0.2854,0.3633,0.4356,0.5073,0.5891,0.6931,0.7788,0.8498,0.9319,1.0274,0.0,0.0,0.0,0.0771,-0.083,-0.2151,-0.1773,-0.2165,-0.2677,-0.295,-0.3051,-0.3487,-0.4731,-0.5683,-0.6866,-0.8573,-0.9563,-1.0423,-1.1302,-1.2812,-1.3878,-1.3927,-1.4686,-1.5221,-1.526,-1.6058,-1.6914,-1.7795,-1.864,-1.9503,-2.0419,-2.0467,-2.0859,-2.1698,-2.1677,-2.243,-2.4017,-2.3927,-2.4217,-2.4917,-2.4795,-2.4663,-2.4524,-2.4472,-2.4317,-2.4081,-2.3161,-2.3133,-2.3732,-2.3649,-2.3048,-2.2127,-2.1844,-2.1146,-2.026,-1.9934,-1.9303,-1.856,-1.8264,-1.7507,-1.6644,-1.6367,-1.5966,-1.5536,-1.518,-1.4814,-1.4452,-1.4254,-1.3861,-1.348,-1.3391,-1.2861,-1.2294,-1.1945,-1.17,-1.149,-1.1421,-1.1201,-1.0905,-1.0659,-1.0428,-1.0205,-0.9862,-0.9527,-0.9199,-0.8861,-0.8185,-0.7545,-0.6999,-0.6264,-0.5572,-0.4888,-0.4276,-0.3704,-0.3258,-0.2549,-0.2012,-0.1715,-0.0647,0.0336,0.1178,0.2018,0.2745,0.3357,0.4245,0.4963,0.5622,0.6712,0.7621,0.8328,0.9386,1.0472,0.6441,0.0,0.0,0.0,0.0,0.0,0.1096,0.0293,-0.0433,-0.0601,-0.1957,-0.2783,-0.1753,-0.2824,-0.4167,-0.5084,-0.6963,-0.862,-0.949,-1.0019,-1.0773,-1.2037,-1.2921,-1.3674,-1.4293,-1.5158,-1.6019,-1.6895,-1.7174,-1.7979,-1.9484,-1.9612,-1.9726,-1.9912,-2.0476,-2.1223,-2.2211,-2.2758,-2.3065,-2.3114,-2.3082,-2.2994,-2.2854,-2.2794,-2.268,-2.2511,-2.2153,-2.2063,-2.2108,-2.1911,-2.1601,-2.1176,-2.0376,-2.0148,-2.0116,-1.8641,-1.8261,-1.8325,-1.7436,-1.6776,-1.6297,-1.6067,-1.5697,-1.5254,-1.4904,-1.4592,-1.4273,-1.3881,-1.3535,-1.316,-1.2603,-1.2246,-1.1957,-1.1623,-1.14,-1.1287,-1.126,-1.1147,-1.1023,-1.085,-1.0774,-1.0621,-1.0244,-0.9971,-0.9646,-0.9239,-0.8602,-0.7961,-0.7328,-0.6598,-0.5867,-0.5053,-0.4491,-0.3921,-0.3258,-0.2768,-0.2202,-0.1663,-0.079,0.0109,0.0952,0.1737,0.2462,0.3188,0.3855,0.457,0.5391,0.6538,0.7449,0.8156,0.9395,1.0292,0.0,0.0,0.712,0.5496,0.0,0.0,0.2422,0.1939,0.1624,0.1632,0.0175,-0.09,-0.0238,-0.1441,-0.2622,-0.2926,-0.494,-0.6927,-0.8214,-0.9002,-0.9819,-1.0838,-1.2004,-1.3074,-1.3923,-1.4457,-1.5269,-1.6503,-1.6594,-1.721,-1.8614,-1.8739,-1.8886,-1.9192,-1.9644,-2.041,-2.1482,-2.1933,-2.2244,-2.24,-2.2407,-2.2335,-2.2196,-2.2137,-2.2027,-2.1861,-2.1397,-2.1114,-2.0952,-2.0384,-2.0241,-2.034,-1.963,-1.9321,-1.9107,-1.789,-1.7617,-1.7704,-1.6943,-1.6432,-1.608,-1.5812,-1.5374,-1.4842,-1.4529,-1.4241,-1.3927,-1.3535,-1.3195,-1.2766,-1.2138,-1.1799,-1.1627,-1.1459,-1.1223,-1.1099,-1.1298,-1.1271,-1.1185,-1.1002,-1.0954,-1.0802,-1.0505,-1.0235,-0.9892,-0.9469,-0.8918,-0.8275,-0.753,-0.681,-0.6081,-0.5313,-0.4661,-0.4052,-0.3432,-0.283,-0.2259,-0.1673,-0.097,-0.0159,0.0713,0.1426,0.2153,0.291,0.3633,0.4601,0.5785,0.6525,0.7449,0.8392,0.9235,0.9881,0.0,0.0,0.0,0.6671,0.5151,0.0,0.286,0.3013,0.337,0.3564,0.2681,0.1588,0.0668,-0.058,-0.1467,-0.1453,-0.318,-0.5215,-0.7146,-0.8767,-0.984,-1.0033,-1.1507,-1.2824,-1.364,-1.381,-1.4545,-1.6198,-1.6493,-1.6938,-1.7677,-1.7804,-1.8183,-1.89,-1.8928,-1.966,-2.122,-2.1147,-2.1452,-2.2135,-2.2117,-2.2058,-2.1929,-2.1853,-2.1745,-2.1583,-2.0749,-2.029,-2.0065,-1.9165,-1.9084,-1.9521,-1.9269,-1.8613,-1.7749,-1.7549,-1.7272,-1.6968,-1.6722,-1.6367,-1.5911,-1.5566,-1.5013,-1.4406,-1.4163,-1.3835,-1.348,-1.3182,-1.2779,-1.2318,-1.1811,-1.1505,-1.1282,-1.1335,-1.1099,-1.0975,-1.141,-1.1459,-1.1384,-1.1201,-1.1078,-1.0916,-1.0753,-1.0418,-1.004,-0.9707,-0.9151,-0.8472,-0.7682,-0.7021,-0.6307,-0.562,-0.484,-0.4184,-0.3697,-0.292,-0.2235,-0.1762,-0.1185,-0.0461,0.0423,0.1169,0.1892,0.2674,0.3572,0.4808,0.6322,0.6625,0.7443,0.8687,0.8968,0.9259,0.7348,0.7334,0.7116,0.6261,0.5572,0.0,0.4057,0.3989,0.4109,0.4205,0.3517,0.3057,0.353,0.2664,0.1619,0.0894,-0.0927,-0.3023,-0.5293,-0.6441,-0.7574,-0.8996,-1.0064,-1.1033,-1.1893,-1.2564,-1.3396,-1.443,-1.58,-1.6392,-1.5933,-1.6566,-1.7031,-1.7177,-1.7131,-1.7898,-1.9542,-1.9383,-1.9707,-2.0462,-2.0349,-2.0295,-2.0251,-2.014,-2.0038,-1.9948,-1.9669,-1.9421,-1.9235,-1.886,-1.8691,-1.8633,-1.8481,-1.8124,-1.7687,-1.7439,-1.7158,-1.6876,-1.6501,-1.6077,-1.5623,-1.521,-1.469,-1.413,-1.3927,-1.3539,-1.3082,-1.2461,-1.2138,-1.1811,-1.1217,-1.1142,-1.1132,-1.0916,-1.0992,-1.1191,-1.1384,-1.1544,-1.1645,-1.1675,-1.1501,-1.1276,-1.0981,-1.0687,-1.0351,-0.9971,-0.9487,-0.891,-0.8177,-0.7565,-0.6859,-0.5836,-0.5226,-0.4574,-0.388,-0.3244,-0.2611,-0.1996,-0.1382,-0.0657,0.0204,0.1362,0.2135,0.2471,0.3744,0.4864,0.5729,0.6445,0.7213,0.7979,0.8339,0.8634,0.645,0.6601,0.6395,0.5907,0.5516,0.0,0.0,0.4491,0.4365,0.3361,0.3545,0.3735,0.3208,0.3322,0.3375,0.3006,0.0249,-0.2553,-0.4577,-0.5656,-0.6604,-0.7538,-0.8807,-0.9938,-1.077,-1.158,-1.2417,-1.3291,-1.4566,-1.5138,-1.4771,-1.5586,-1.6249,-1.6693,-1.6636,-1.7193,-1.8447,-1.8724,-1.902,-1.937,-1.9692,-1.983,-1.9795,-1.9699,-1.9601,-1.9485,-1.936,-1.917,-1.8931,-1.8698,-1.8489,-1.8287,-1.8197,-1.7961,-1.7618,-1.732,-1.6775,-1.6146,-1.5732,-1.5089,-1.4368,-1.425,-1.3829,-1.3376,-1.3457,-1.3104,-1.2544,-1.2138,-1.1774,-1.1404,-1.0992,-1.0916,-1.0954,-1.0916,-1.0992,-1.118,-1.1522,-1.1708,-1.1833,-1.1957,-1.1932,-1.1748,-1.1356,-1.1067,-1.0725,-1.0273,-0.9834,-0.927,-0.8545,-0.7855,-0.7147,-0.6343,-0.5658,-0.4966,-0.4316,-0.3584,-0.285,-0.2119,-0.1457,-0.0672,0.0196,0.1197,0.205,0.2706,0.3669,0.4548,0.523,0.5874,0.6538,0.727,0.7559,0.7841,0.5408,0.5534,0.5195,0.5332,0.5029,0.464,0.0,0.0,0.0,0.2797,0.3622,0.416,0.2557,0.3103,0.3884,0.4155,0.1132,-0.1933,-0.3876,-0.516,-0.6019,-0.6339,-0.7639,-0.8877,-0.9848,-1.0692,-1.152,-1.2405,-1.3129,-1.3681,-1.4078,-1.4761,-1.5544,-1.6423,-1.6371,-1.674,-1.7545,-1.8131,-1.8512,-1.8705,-1.9352,-1.971,-1.9776,-1.9563,-1.9471,-1.9456,-1.9179,-1.8899,-1.8644,-1.8412,-1.8078,-1.7789,-1.7954,-1.7856,-1.7486,-1.7011,-1.6264,-1.5399,-1.4795,-1.3974,-1.3173,-1.3185,-1.2843,-1.2519,-1.2883,-1.2555,-1.2018,-1.1847,-1.1413,-1.0941,-1.0754,-1.0603,-1.0593,-1.0829,-1.0966,-1.1207,-1.1697,-1.1895,-1.2066,-1.221,-1.2282,-1.2174,-1.1763,-1.1431,-1.1105,-1.0611,-1.0176,-0.9628,-0.8958,-0.8136,-0.7426,-0.6888,-0.613,-0.5361,-0.4748,-0.3957,-0.3117,-0.2322,-0.1521,-0.0727,0.0094,0.0948,0.1924,0.2968,0.3503,0.4097,0.4736,0.5179,0.5837,0.6598,0.6815,0.7139,0.2978,0.313,0.3368,0.4029,0.3887,0.3756,0.442,0.0,0.4536,0.4488,0.0,0.4669,0.433,0.0,0.0,0.3001,0.2359,0.0781,-0.2152,-0.3849,-0.5157,-0.6195,-0.6535,-0.7324,-0.89,-0.9823,-1.0698,-1.158,-1.1738,-1.2455,-1.402,-1.4182,-1.4658,-1.5527,-1.5485,-1.5825,-1.6639,-1.6663,-1.736,-1.8697,-1.8726,-1.9087,-1.9676,-1.8895,-1.885,-1.9368,-1.8514,-1.8032,-1.7819,-1.7684,-1.7045,-1.6262,-1.7394,-1.7658,-1.7294,-1.6241,-1.5668,-1.5226,-1.3998,-1.333,-1.294,-1.2507,-1.2163,-1.1998,-1.2177,-1.192,-1.1553,-1.1485,-1.0804,-1.0118,-0.9963,-0.9926,-0.9963,-1.017,-1.0762,-1.1356,-1.17,-1.2077,-1.2365,-1.2437,-1.2544,-1.252,-1.2113,-1.1737,-1.133,-1.0981,-1.0534,-1.004,-0.9478,-0.8699,-0.7957,-0.7287,-0.655,-0.5836,-0.5096,-0.418,-0.3429,-0.2854,-0.1787,-0.0942,-0.045,0.0747,0.1924,0.2968,0.3239,0.3619,0.4076,0.4577,0.5234,0.6109,0.6327,0.6657,0.2815,0.2689,0.2664,0.3636,0.3561,0.3447,0.4288,0.4648,0.4466,0.3352,0.0,0.0,0.0,0.0,0.0,0.0,0.1067,-0.0302,-0.2113,-0.3388,-0.4452,-0.5279,-0.5919,-0.6976,-0.8734,-0.9239,-0.9801,-1.0624,-1.0698,-1.1234,-1.2465,-1.3006,-1.3707,-1.4627,-1.4615,-1.4995,-1.5795,-1.6195,-1.6915,-1.7956,-1.7965,-1.8337,-1.8988,-1.8135,-1.7851,-1.7973,-1.7499,-1.7197,-1.6998,-1.6781,-1.6342,-1.586,-1.6172,-1.6144,-1.5896,-1.5639,-1.4825,-1.3791,-1.299,-1.2255,-1.1609,-1.1283,-1.14,-1.1601,-1.1239,-1.1255,-1.1302,-1.0955,-1.0381,-0.983,-0.9892,-0.9856,-0.9796,-0.9746,-1.0637,-1.1502,-1.1533,-1.2095,-1.2591,-1.272,-1.2861,-1.2931,-1.2768,-1.233,-1.1884,-1.1431,-1.0981,-1.0495,-0.9913,-0.9239,-0.8626,-0.8047,-0.7356,-0.6598,-0.5819,-0.4957,-0.4045,-0.3123,-0.1876,-0.0851,-0.0224,0.0501,0.1288,0.2162,0.2524,0.3018,0.3635,0.3996,0.4549,0.519,0.5668,0.6043,0.2292,0.2097,0.1953,0.3478,0.3518,0.3408,0.4309,0.4393,0.3744,0.1808,0.1673,0.0,0.0,0.0,0.1687,0.0876,0.0,-0.1108,-0.1933,-0.2962,-0.3898,-0.4592,-0.5588,-0.6741,-0.808,-0.843,-0.891,-0.9719,-0.9774,-1.0243,-1.1343,-1.2012,-1.2797,-1.3705,-1.3975,-1.4376,-1.4942,-1.5692,-1.6421,-1.7103,-1.7131,-1.751,-1.8136,-1.7318,-1.6948,-1.6978,-1.6602,-1.6349,-1.6192,-1.5884,-1.5505,-1.51,-1.4918,-1.4556,-1.4136,-1.4561,-1.3855,-1.2606,-1.2013,-1.1182,-1.0378,-1.0337,-1.0609,-1.085,-1.0428,-1.0603,-1.0846,-1.034,-0.9828,-0.9479,-0.9537,-0.9462,-0.9407,-0.9363,-1.0315,-1.1279,-1.1468,-1.2079,-1.269,-1.301,-1.3242,-1.3378,-1.3369,-1.2931,-1.2425,-1.1945,-1.1531,-1.1046,-1.0457,-0.9834,-0.9239,-0.8765,-0.8028,-0.7231,-0.6501,-0.5604,-0.4526,-0.3217,-0.1966,-0.0985,-0.0269,0.009,0.0648,0.1439,0.1905,0.2431,0.3101,0.3422,0.385,0.4333,0.4952,0.5464,0.0553,0.0676,0.0866,0.3364,0.3681,0.3643,0.4581,0.3589,0.205,0.0475,0.0116,-0.0438,-0.2153,-0.2324,-0.1931,-0.1065,-0.0479,0.0,0.0,-0.2334,-0.3564,-0.4489,-0.5609,-0.635,-0.6469,-0.7245,-0.8077,-0.8872,-0.8947,-0.9665,-1.1315,-1.1485,-1.1938,-1.2808,-1.3661,-1.4084,-1.4047,-1.4833,-1.5605,-1.6339,-1.6269,-1.663,-1.7318,-1.6445,-1.6396,-1.6947,-1.5968,-1.5492,-1.5411,-1.5074,-1.4313,-1.3413,-1.3875,-1.3243,-1.2167,-1.275,-1.2722,-1.225,-1.1131,-1.0249,-0.9702,-0.9999,-0.985,-0.9624,-0.9917,-1.0069,-1.0026,-0.9474,-0.9082,-0.8757,-0.8441,-0.8389,-0.8527,-0.8829,-0.9605,-1.0518,-1.1552,-1.2078,-1.2522,-1.3344,-1.3695,-1.3854,-1.3788,-1.3391,-1.2953,-1.2638,-1.2162,-1.1689,-1.1217,-1.0514,-0.9855,-0.9257,-0.8472,-0.769,-0.7021,-0.5947,-0.4609,-0.2998,-0.2279,-0.1563,-0.0895,-0.0537,0.0046,0.1,0.1486,0.1918,0.2325,0.2873,0.3283,0.3667,0.4324,0.4964,-0.0464,-0.0778,-0.0708,0.1846,0.1608,0.1417,0.3952,0.2599,0.0663,0.0135,-0.1671,-0.3358,-0.3955,-0.3141,-0.2336,-0.2154,-0.1693,-0.1531,0.0,-0.3121,-0.423,-0.5203,-0.5828,-0.6219,-0.6333,-0.7128,-0.7963,-0.8765,-0.8864,-0.9385,-1.0483,-1.0599,-1.1043,-1.192,-1.2224,-1.2894,-1.3998,-1.4227,-1.5006,-1.6298,-1.5695,-1.5798,-1.6486,-1.5659,-1.5355,-1.5447,-1.4971,-1.4712,-1.4585,-1.4189,-1.3715,-1.321,-1.3078,-1.2585,-1.2064,-1.2644,-1.2229,-1.1294,-1.0563,-0.9957,-0.9521,-0.9442,-0.9408,-0.9305,-0.8925,-0.9387,-0.9849,-0.901,-0.8822,-0.8781,-0.8454,-0.8454,-0.852,-0.8496,-0.9469,-1.0484,-1.0816,-1.1759,-1.2698,-1.3134,-1.3728,-1.417,-1.4138,-1.3993,-1.3702,-1.3091,-1.2626,-1.2198,-1.1726,-1.1159,-1.0601,-1.0,-0.9151,-0.8374,-0.7585,-0.6058,-0.4691,-0.3649,-0.2984,-0.2322,-0.1614,-0.1119,-0.0456,0.038,0.0964,0.1572,0.2215,0.2585,0.3091,0.372,0.4001,0.4427,-0.1623,-0.1935,-0.187,0.0418,0.0204,0.0028,0.228,0.088,-0.1055,-0.1616,-0.3388,-0.4835,-0.4868,-0.3985,-0.3182,-0.2988,-0.276,-0.2666,0.0,-0.3833,-0.4803,-0.5567,-0.5644,-0.5785,-0.6185,-0.6776,-0.7463,-0.8272,-0.8661,-0.9225,-1.0061,-1.0154,-1.045,-1.1016,-1.1347,-1.2163,-1.3558,-1.3788,-1.4564,-1.5872,-1.5289,-1.5237,-1.5668,-1.5141,-1.4823,-1.4691,-1.4458,-1.427,-1.4105,-1.3665,-1.3345,-1.3054,-1.263,-1.2235,-1.1921,-1.2208,-1.1604,-1.0545,-1.0122,-0.9672,-0.9286,-0.9026,-0.891,-0.8765,-0.8259,-0.8682,-0.9193,-0.8414,-0.8383,-0.8494,-0.8158,-0.8217,-0.8339,-0.8371,-0.9262,-1.0196,-1.0521,-1.1686,-1.2742,-1.3172,-1.396,-1.4525,-1.4493,-1.4493,-1.4241,-1.3589,-1.3148,-1.2731,-1.2234,-1.1726,-1.1169,-1.0467,-0.9746,-0.8804,-0.7612,-0.6313,-0.512,-0.4216,-0.3605,-0.299,-0.2237,-0.1744,-0.1087,-0.0186,0.0378,0.1052,0.1837,0.2295,0.283,0.3435,0.375,0.4069]},{"header":{"parameterUnit":"m.s-1","parameterCategory":1,"la1":30.6,"la2":29.2853,"lo1":-89.7004,"lo2":-87.6739,"dy":0.0162,"dx":0.0183,"nx":112,"ny":82,"refTime":"2023-06-30T12:00:00:Z","depth":0,"parameterNumber":3,"parameterNumberName":"V-component_of_WINDS"},"data":[0.0,0.0,0.0,0.0,0.0,0.0,0.0,0.0,0.0,0.0,0.0,0.0,0.0,0.0,0.0,0.0,0.0,0.0,0.0,0.0,0.0,0.0,0.0,0.0,0.0,0.0,0.0,0.0,0.0,0.0,0.0,0.0,0.0,0.0,0.0,0.0,0.0,0.0,0.0,0.0,0.0,0.0,0.0,0.0,0.0,0.0,0.0,0.0,0.0,0.0,0.0,0.0,0.0,0.0,0.0,0.0,0.0,0.0,0.0,0.0,0.0,0.0,0.0,0.0,0.0,0.0,0.0,0.0,0.0,0.0,0.0,0.0,0.0,0.0,0.0,0.0,0.0,0.0,0.0,0.0,0.0,0.0,0.0,0.0,0.0,0.0,0.0,0.0,0.0,0.0,-0.8818,-0.8916,-0.8796,-0.8427,-0.7774,-0.672,-0.5568,-0.434,0.0,0.0,0.0,0.0,0.0,0.0,0.0,0.0,0.0,0.0,0.0,0.0,0.0,0.0,0.0,0.0,0.0,0.0,0.0,0.0,0.0,0.0,0.0,0.0,0.0,0.0,0.0,0.0,0.0,0.0,0.0,0.0,0.0,0.0,0.0,0.0,0.0,0.0,0.0,0.0,0.0,0.0,0.0,0.0,0.0,0.0,0.0,0.0,0.0,0.0,0.0,0.0,0.0,0.0,0.0,0.0,0.0,0.0,0.0,0.0,0.0,0.0,0.0,0.0,0.0,0.0,0.0,0.0,0.0,0.0,0.0,0.0,0.0,0.0,0.0,0.0,0.0,0.0,0.0,0.0,0.0,0.0,0.0,0.0,0.0,0.0,0.0,0.0,0.0,0.0,0.0,0.0,0.0,0.0,0.0,0.0,0.0,0.0,0.0,0.0,0.0,0.0,0.0,0.0,-0.8755,-0.9035,-0.9091,-0.8884,-0.8318,-0.6938,-0.5777,-0.4998,0.0,0.0,0.0,0.0,0.0,0.0,0.0,0.0,0.0,0.0,0.0,0.0,0.0,0.0,0.0,0.0,0.0,0.0,0.0,0.0,0.0,0.0,0.0,0.0,0.0,0.0,0.0,0.0,0.0,0.0,0.0,0.0,0.0,0.0,0.0,0.0,0.0,0.0,0.0,0.0,0.0,0.0,0.0,0.0,0.0,0.0,0.0,0.0,0.0,0.0,0.0,0.0,0.0,0.0,0.0,0.0,0.0,0.0,0.0,0.0,0.0,0.0,0.0,0.0,0.0,0.0,0.0,0.0,0.0,0.0,0.0,0.0,0.0,0.0,0.0,0.0,0.0,0.0,0.0,0.0,0.0,0.0,0.0,0.0,0.0,0.0,0.0,0.0,0.0,0.0,0.0,0.0,0.0,0.0,0.0,0.0,0.0,0.0,0.0,0.0,0.0,0.0,0.0,-0.9016,-0.9175,-0.9401,-0.9443,-0.9304,-0.891,-0.7441,-0.6269,-0.5686,-0.4252,0.0,0.0,0.0,0.0,0.0,0.0,0.0,0.0,0.0,0.0,0.0,0.0,0.0,0.0,0.0,0.0,0.0,0.0,0.0,0.0,0.0,0.0,0.0,0.0,0.0,0.0,0.0,0.0,0.0,0.0,0.0,0.0,0.0,0.0,0.0,0.0,0.0,0.0,0.0,0.0,0.0,0.0,0.0,0.0,0.0,0.0,0.0,0.0,0.0,0.0,0.0,0.0,0.0,0.0,0.0,0.0,0.0,0.0,0.0,0.0,0.0,0.0,0.0,0.0,0.0,0.0,0.0,0.0,0.0,0.0,0.0,0.0,0.0,0.0,0.0,0.0,0.0,0.0,0.0,0.0,0.0,0.0,0.0,0.0,0.0,0.0,0.0,0.0,0.0,0.0,0.0,0.0,0.0,0.0,0.0,0.0,0.0,0.0,0.0,0.0,0.0,0.0,-0.9347,-0.9555,-0.971,-0.974,-0.9576,-0.9164,-0.7784,-0.6671,-0.6053,-0.4522,0.0,0.0,0.0,0.0,0.0,0.0,0.0,0.0,0.0,0.0,0.0,0.0,0.0,0.0,0.0,0.0,0.0,0.0,0.0,0.0,0.0,0.0,0.0,0.0,0.0,0.0,0.0,0.0,0.0,0.0,0.0,0.0,0.0,0.0,0.0,0.0,0.0,0.0,0.0,0.0,0.0,0.0,0.0,0.0,0.0,0.0,0.0,0.0,0.0,0.0,0.0,0.0,0.0,0.0,0.0,0.0,0.0,0.0,0.0,0.0,0.0,0.0,0.0,0.0,0.0,0.0,0.0,0.0,0.0,0.0,0.0,0.0,0.0,0.0,0.0,0.0,0.0,0.0,0.0,0.0,0.0,0.0,0.0,0.0,0.0,0.0,0.0,0.0,0.0,0.0,0.0,0.0,0.0,0.0,0.0,0.0,0.0,0.0,0.0,0.0,0.0,0.0,-0.904,-0.9565,-0.9771,-0.9838,-0.9549,-0.8721,-0.7688,-0.67,-0.5779,-0.4509,0.0,0.0,0.0,0.0,0.0,0.0,0.0,0.0,0.0,0.0,0.0,0.0,0.0,0.0,0.0,0.0,0.0,0.0,0.0,0.0,0.0,0.0,0.0,0.0,0.0,0.0,0.0,0.0,0.0,0.0,0.0,0.0,0.0,0.0,0.0,0.0,0.0,0.0,0.0,0.0,0.0,0.0,0.0,0.0,0.0,0.0,0.0,0.0,0.0,0.0,0.0,0.0,0.0,0.0,0.0,0.0,0.0,0.0,0.0,0.0,0.0,0.0,0.0,0.0,0.0,0.0,0.0,0.0,0.0,0.0,0.0,0.0,0.0,0.0,0.0,0.0,0.0,0.0,0.0,0.0,0.0,0.0,0.0,0.0,0.0,0.0,0.0,0.0,0.0,0.0,0.0,0.0,0.0,0.0,0.0,0.0,0.0,0.0,0.0,0.0,0.0,0.0,-0.9455,-0.9724,-0.9857,-0.9963,-0.9668,-0.8807,-0.7838,-0.6845,-0.5821,0.0,0.0,0.0,0.0,0.0,0.0,0.0,0.0,0.0,0.0,0.0,0.0,0.0,0.0,0.0,0.0,0.0,0.0,0.0,0.0,0.0,0.0,0.0,0.0,0.0,0.0,0.0,0.0,0.0,0.0,0.0,0.0,0.0,0.0,0.0,0.0,0.0,0.0,0.0,0.0,0.0,0.0,0.0,0.0,0.0,0.0,0.0,0.0,0.0,0.0,0.0,0.0,0.0,0.0,0.0,0.0,0.0,0.0,0.0,0.0,0.0,0.0,0.0,0.0,0.0,0.0,0.0,0.0,0.0,0.0,0.0,0.0,0.0,0.0,0.0,0.0,0.0,0.0,0.0,0.0,0.0,0.0,0.0,0.0,0.0,0.0,0.0,0.0,0.0,0.0,0.0,0.0,0.0,0.0,0.0,0.0,0.0,0.0,0.0,0.0,0.0,0.0,-0.8699,-0.9175,-0.942,-0.9511,-0.9614,-0.9229,-0.8101,-0.7371,-0.6566,-0.5542,0.0,0.0,0.0,0.0,0.0,0.0,0.0,0.0,0.0,0.0,0.0,0.0,0.0,0.0,0.0,0.0,0.0,0.0,0.0,0.0,0.0,0.0,0.0,0.0,0.0,0.0,0.0,0.0,0.0,0.0,0.0,0.0,0.0,0.0,0.0,0.0,0.0,0.0,0.0,0.0,0.0,0.0,0.0,0.0,0.0,0.0,0.0,0.0,0.0,0.0,0.0,0.0,0.0,0.0,0.0,0.0,0.0,0.0,0.0,0.0,0.0,0.0,0.0,0.0,0.0,0.0,0.0,0.0,0.0,0.0,0.0,0.0,0.0,0.0,0.0,0.0,0.0,0.0,0.0,0.0,0.0,0.0,0.0,0.0,0.0,0.0,0.0,0.0,0.0,0.0,0.0,0.0,0.0,0.0,0.0,0.0,0.0,0.0,0.0,0.0,0.0,0.0,-0.7186,-0.7996,-0.856,-0.8673,-0.8749,-0.8127,-0.6436,-0.6168,-0.572,0.0,0.0,0.0,0.0,0.0,0.0,0.0,0.0,0.0,0.0,0.0,0.0,0.0,0.0,0.0,0.0,0.0,0.0,0.0,0.0,0.0,0.0,0.0,0.0,0.0,0.0,0.0,0.0,0.0,0.0,0.0,0.0,0.0,0.0,0.0,0.0,0.0,0.0,0.0,0.0,0.0,0.0,0.0,0.0,0.0,0.0,0.0,0.0,0.0,0.0,0.0,0.0,0.0,0.0,0.0,0.0,0.0,0.0,0.0,0.0,0.0,0.0,0.0,0.0,0.0,0.0,0.0,0.0,0.0,0.0,0.0,0.0,0.0,0.0,0.0,0.0,0.0,0.0,0.0,0.0,0.0,0.0,0.0,0.0,0.0,0.0,0.0,0.0,0.0,0.0,0.0,0.0,0.0,0.0,0.0,0.0,0.0,0.0,0.0,0.0,0.0,0.0,0.0,-0.7138,-0.8054,-0.8448,-0.7906,-0.8455,-0.8183,-0.652,-0.5779,-0.5234,-0.4819,0.0,0.0,0.0,0.0,0.0,0.0,0.0,0.0,0.0,0.0,0.0,0.0,0.0,0.0,0.0,0.0,0.0,0.0,0.0,0.0,0.0,0.0,0.0,0.0,0.0,0.0,0.0,0.0,0.0,0.0,0.0,0.0,0.0,0.0,0.0,0.0,0.0,0.0,0.0,0.0,0.0,0.0,0.0,0.0,0.0,0.0,0.0,0.0,0.0,0.0,0.0,0.0,0.0,0.0,0.0,0.0,0.0,0.0,0.0,0.0,0.0,0.0,0.0,0.0,0.0,0.0,0.0,0.0,0.0,0.0,0.0,0.0,0.0,0.0,0.0,0.0,0.0,0.0,0.0,0.0,0.0,0.0,0.0,0.0,0.0,0.0,0.0,0.0,0.0,0.0,0.0,0.0,0.0,0.0,0.0,0.0,0.0,0.0,0.0,0.0,0.0,0.0,-0.6732,-0.7372,-0.7565,-0.7106,-0.757,-0.7336,-0.5953,-0.5187,-0.4266,-0.3042,0.0,0.0,0.0,0.0,0.0,0.0,0.0,0.0,0.0,0.0,0.0,0.0,0.0,0.0,0.0,0.0,0.0,0.0,0.0,0.0,0.0,0.0,0.0,0.0,0.0,0.0,0.0,0.0,0.0,0.0,0.0,0.0,0.0,0.0,0.0,0.0,0.0,0.0,0.0,0.0,0.0,0.0,0.0,0.0,0.0,0.0,0.0,0.0,0.0,0.0,0.0,0.0,0.0,0.0,0.0,0.0,0.0,0.0,0.0,0.0,0.0,0.0,0.0,0.0,0.0,0.0,0.0,0.0,0.0,0.0,0.0,0.0,0.0,0.0,0.0,0.0,0.0,0.0,0.0,0.0,0.0,0.0,0.0,0.0,0.0,0.0,0.0,0.0,0.0,0.0,0.0,0.0,0.0,0.0,0.0,0.0,0.0,0.0,0.0,0.0,0.0,0.0,-0.6083,-0.6261,-0.6297,-0.6281,-0.6324,-0.5986,-0.5007,-0.4389,-0.2965,-0.044,0.0,0.0,0.0,0.0,0.0,0.0,0.0,0.0,0.0,0.0,0.0,0.0,0.0,0.0,0.0,0.0,0.0,0.0,0.0,0.0,0.0,0.0,0.0,0.0,0.0,0.0,0.0,0.0,0.0,0.0,0.0,0.0,0.0,0.0,0.0,0.0,0.0,0.0,0.0,0.0,0.0,0.0,0.0,0.0,0.0,0.0,0.0,0.0,0.0,0.0,0.0,0.0,0.0,0.0,0.0,0.0,0.0,0.0,0.0,0.0,-0.1944,-0.2024,0.0,0.0,0.0,0.0,0.0,0.0,0.0,0.0,0.0,0.0,0.0,0.0,0.0,0.0,0.0,0.0,0.0,0.0,0.0,0.0,0.0,0.0,0.0,0.0,0.0,0.0,0.0,0.0,0.0,0.0,0.0,0.0,0.0,0.0,0.0,0.0,0.0,0.0,0.0,0.0,-0.533,-0.5951,-0.6108,-0.5377,-0.582,-0.5664,-0.4395,-0.2995,-0.1814,-0.0958,0.0811,0.0,0.0,0.0,0.0,0.0,0.0,0.0,0.0,0.0,0.0,0.0,0.0,0.0,0.0,0.0,0.0,0.0,0.0,0.0,0.0,0.0,0.0,0.0,0.0,0.0,0.0,0.0,0.0,0.0,0.0,0.0,0.0,0.0,0.0,0.0,0.0,0.0,0.0,0.0,0.0,0.0,0.0,0.0,0.0,0.0,0.0,0.0,0.0,0.0,0.0,0.0,0.0,0.0,0.0,0.0,0.0,0.0,0.0,0.0,-0.2514,-0.2507,0.0,0.0,0.0,0.0,0.0,0.0,0.0,0.0,0.0,0.0,0.0,0.0,0.0,0.0,0.0,0.0,0.0,0.0,0.0,0.0,0.0,0.0,0.0,0.0,0.0,0.0,0.0,0.0,0.0,0.0,0.0,0.0,0.0,0.0,0.0,0.0,0.0,0.0,0.0,0.0,-0.5109,-0.5468,-0.5547,-0.5097,-0.5272,-0.5106,-0.431,-0.2941,-0.1697,-0.0682,0.13,0.0,0.0,0.0,0.0,0.0,0.0,0.0,0.0,0.0,0.0,0.0,0.0,0.0,0.0,0.0,0.0,0.0,0.0,0.0,0.0,0.0,0.0,0.0,0.0,0.0,0.0,0.0,0.0,0.0,0.0,0.0,0.0,0.0,0.0,0.0,0.0,0.0,0.0,0.0,0.0,0.0,0.0,0.0,0.0,0.0,0.0,0.0,0.0,0.0,0.0,0.0,0.0,0.0,-0.3249,-0.3371,-0.3568,-0.3737,-0.4179,-0.4734,-0.3117,-0.3073,-0.4122,-0.3727,0.0,0.0,0.0,0.0,0.0,0.0,0.0,0.0,0.0,0.0,0.0,0.0,0.0,0.0,0.0,0.0,0.0,0.0,0.0,0.0,0.0,0.0,0.4722,0.5648,0.53,0.4985,0.5797,0.0,0.0,0.0,0.0,0.0,0.0,0.0,0.0,0.0,0.0,0.0,-0.5056,-0.5038,-0.5038,-0.5069,-0.4812,-0.4511,-0.4226,-0.3114,-0.1749,-0.0165,0.119,0.2382,0.0,0.0,0.0,0.0,0.0,0.0,0.0,0.0,0.0,0.0,0.0,0.0,0.0,0.0,0.0,0.0,0.0,0.0,0.0,0.0,0.0,0.0,0.0,0.0,0.0,0.0,0.0,0.0,0.0,0.0,0.0,0.0,-1.4437,-1.4903,0.0,0.0,0.0,0.0,0.0,0.0,0.0,0.0,0.0,0.0,0.0,0.0,0.0,-0.3917,-0.3123,-0.3209,-0.3835,-0.4946,-0.3942,-0.4013,-0.498,-0.3988,-0.447,-0.6019,-0.5204,0.0,-0.3993,-0.4726,0.0,0.0,0.0,0.0,0.0,0.0,0.0,0.0,0.0,0.0,0.0,0.0,0.0,0.0,0.0,0.0,0.0,0.0,0.0,0.0,0.0,0.0,0.393,0.5034,0.453,0.4098,0.5251,0.5187,0.4844,0.4671,0.4396,0.3514,0.0,0.0,0.0,0.0,0.0,0.0,-0.4851,-0.5029,-0.5056,-0.4945,-0.4576,-0.4101,-0.3503,-0.2132,-0.0917,0.0019,0.1539,0.2661,0.3214,0.3485,0.0,0.0,0.0,0.0,0.0,0.0,0.0,0.0,0.0,0.0,0.0,0.0,0.0,0.0,0.0,0.0,0.0,0.0,0.0,0.0,0.0,0.0,0.0,0.0,0.0,0.0,0.0,0.0,0.0,-1.3272,-1.5586,-1.6551,-1.6255,-1.5873,0.0,0.0,0.0,0.0,0.0,0.0,0.0,0.0,0.0,-0.8034,-0.5937,-0.5026,-0.5435,-0.5393,-0.5533,-0.5866,-0.5125,-0.5307,-0.6246,-0.5971,-0.6158,-0.667,-0.6372,-0.59,-0.5287,-0.5312,-0.4887,-0.4236,0.0,0.0,0.0,0.0,-0.2624,-0.204,-0.1748,-0.117,-0.053,-0.0377,0.0,0.0,0.0,0.0,0.0,0.0,0.0,0.3079,0.3211,0.3147,0.3199,0.3765,0.3461,0.3204,0.3803,0.3828,0.3851,0.4336,0.4005,0.3075,0.132,0.0031,0.0,0.0,0.0,-0.4189,-0.4671,-0.4824,-0.491,-0.4999,-0.4481,-0.4,-0.3672,-0.2496,-0.1315,-0.0248,0.0725,0.1542,0.2164,0.263,0.2753,0.0,0.0,0.0,0.0,0.0,0.0,0.0,0.0,0.0,0.0,0.0,0.0,0.0,0.0,0.0,0.0,0.0,0.0,0.0,0.0,0.0,0.0,0.0,0.0,0.0,0.0,0.0,0.0,-1.5153,-1.6498,-1.7661,-1.7093,-1.6467,0.0,0.0,0.0,0.0,0.0,0.0,-1.2119,-1.1077,-1.0446,-1.0327,-0.765,-0.6592,-0.7375,-0.7471,-0.7322,-0.6849,-0.6581,-0.6731,-0.7196,-0.7412,-0.7328,-0.6999,-0.7348,-0.7218,-0.6738,-0.6032,-0.5387,-0.4873,-0.4905,-0.4356,-0.3516,-0.3468,-0.3007,-0.2382,-0.2428,-0.1803,-0.097,-0.0885,-0.0553,-0.007,0.0259,0.0,0.0,0.0,0.0,0.2216,0.2328,0.2328,0.2317,0.2414,0.23,0.2212,0.2397,0.2432,0.2694,0.365,0.336,0.2537,0.1273,0.0209,0.0,-0.2762,-0.3408,-0.3893,-0.4399,-0.4543,-0.466,-0.4812,-0.4309,-0.3858,-0.3586,-0.2746,-0.1748,-0.0627,-0.0082,0.0494,0.1143,0.1781,0.2018,0.1807,0.0,0.0,0.0,0.0,0.0,0.0,0.0,0.0,0.0,0.0,0.0,0.0,0.0,0.0,0.0,0.0,0.0,0.0,0.0,0.0,0.0,0.0,0.0,0.0,0.0,0.0,0.0,0.0,0.0,-1.7539,-1.8466,0.0,0.0,0.0,0.0,-1.5969,-1.5206,-1.4559,-1.4162,-1.3007,-1.2156,-1.1707,-1.0116,-0.8928,-0.8154,-0.9095,-0.9121,-0.831,-0.827,-0.8057,-0.767,-0.7238,-0.7021,-0.7081,-0.8223,-0.8351,-0.7792,-0.7154,-0.6144,-0.4971,-0.4739,-0.4335,-0.3827,-0.3536,-0.3255,-0.2994,-0.2545,-0.2126,-0.168,-0.1226,-0.08,-0.0404,0.0067,0.0459,0.0,0.0,0.1381,0.1567,0.127,0.119,0.118,0.1195,0.109,0.1076,0.1404,0.1419,0.1667,0.2678,0.254,0.2141,0.181,0.0,-0.0048,-0.1475,-0.2256,-0.3026,-0.4006,-0.424,-0.4257,-0.408,-0.3967,-0.3562,-0.274,-0.2262,-0.1714,-0.1011,-0.0412,0.0112,0.0523,0.1242,0.1692,0.1798,0.2589,0.0,0.0,0.0,0.0,0.0,0.0,0.0,0.0,0.0,0.0,0.0,0.0,0.0,0.0,0.0,0.0,0.0,0.0,0.0,0.0,0.0,0.0,0.0,0.0,0.0,0.0,0.0,0.0,-1.8535,-1.8402,0.0,-1.8308,-1.6968,-1.5933,-1.5551,-1.495,-1.4285,-1.3562,-1.3496,-1.2825,-1.1453,-1.0768,-1.0005,-0.9171,-0.9848,-0.9858,-0.9174,-0.8803,-0.8567,-0.8372,-0.7826,-0.7777,-0.8147,-0.8203,-0.7895,-0.7379,-0.7172,-0.6579,-0.5788,-0.5682,-0.5018,-0.4196,-0.4296,-0.4057,-0.3611,-0.3313,-0.2874,-0.2396,-0.1742,-0.1472,-0.1281,-0.0691,-0.0302,0.0,0.0356,0.0601,0.0754,0.0662,0.0488,0.0332,0.0378,0.0098,-0.013,0.0062,0.0033,0.0034,0.0354,0.0967,0.1267,0.0786,-0.0014,-0.0876,-0.1738,-0.2531,-0.3303,-0.4007,-0.4179,-0.4374,-0.4731,-0.4326,-0.3766,-0.3099,-0.2687,-0.1993,-0.0936,-0.0836,-0.0837,-0.0916,-0.0458,0.0166,0.095,0.1287,0.1571,0.0,0.0,0.0,0.0,0.0,0.0,0.0,0.0,0.0,0.0,0.0,0.0,0.0,0.0,0.0,0.0,0.0,0.0,0.0,0.0,0.0,0.0,0.0,0.0,0.0,-1.8148,-1.9391,-1.9628,-1.9138,-1.8849,-1.8986,-1.7505,-1.6274,-1.559,-1.5067,-1.4454,-1.3669,-1.3811,-1.3378,-1.2281,-1.1626,-1.0866,-0.9961,-1.0573,-1.0667,-1.0272,-0.9673,-0.9286,-0.9003,-0.8606,-0.8663,-0.9003,-0.8378,-0.7914,-0.7569,-0.7569,-0.7339,-0.6909,-0.6174,-0.5526,-0.4923,-0.4772,-0.4461,-0.4132,-0.3888,-0.3529,-0.3076,-0.2556,-0.2305,-0.2065,-0.1569,-0.1196,-0.0894,-0.0498,-0.027,-0.0127,-0.0115,-0.0214,-0.0329,-0.0453,-0.0798,-0.1113,-0.1114,-0.1203,-0.1306,-0.1422,-0.0502,0.0156,-0.0293,-0.0988,-0.1653,-0.2188,-0.286,-0.3484,-0.3972,-0.4137,-0.4352,-0.4724,-0.4433,-0.394,-0.3294,-0.2954,-0.2364,-0.1404,-0.132,-0.1432,-0.1725,-0.1644,-0.1195,-0.0325,-0.0132,0.0224,0.0759,0.0,0.0,0.0,0.0,0.0,0.0,0.0,0.0,0.0,0.0,0.0,0.0,0.0,0.0,0.0,0.0,0.0,0.0,0.0,0.0,0.0,0.0,0.0,-1.6708,-1.8643,-1.9965,-2.0549,-2.0549,-1.9735,-1.7787,-1.7254,-1.6825,-1.6232,-1.56,-1.5101,-1.4676,-1.4012,-1.3848,-1.4222,-1.2847,-1.1598,-1.0534,-1.1233,-1.1582,-1.1556,-1.0932,-1.0232,-0.9532,-0.9532,-0.9532,-0.9532,-0.8814,-0.856,-0.856,-0.856,-0.8538,-0.8297,-0.6236,-0.5716,-0.6112,-0.4807,-0.4451,-0.4509,-0.429,-0.3983,-0.366,-0.3652,-0.3177,-0.2608,-0.2467,-0.2191,-0.1844,-0.1458,-0.1177,-0.1046,-0.1108,-0.093,-0.0871,-0.1321,-0.1571,-0.181,-0.206,-0.2178,-0.2279,-0.2484,-0.1799,-0.1225,-0.1342,-0.1736,-0.2226,-0.2747,-0.3121,0.0,-0.3882,-0.4109,-0.4177,-0.3984,-0.4251,-0.4088,-0.3208,-0.3007,-0.2789,-0.2423,-0.1852,-0.161,-0.1786,-0.2175,-0.2228,-0.1921,-0.1512,-0.1191,-0.0936,0.0,0.0,0.0,0.0,0.0,0.0,0.0,0.0,0.0,0.0,0.0,0.0,0.0,0.0,0.0,0.0,0.0,0.0,0.0,0.0,0.0,-1.0773,-1.2655,-1.5437,-1.707,-1.8073,-1.8224,-1.7024,-1.6413,-1.6961,-1.6383,-1.5813,-1.5556,-1.5026,-1.4406,-1.3705,-1.3098,-1.275,-1.272,-1.2548,-1.2097,-1.1331,-1.1507,-1.15,-1.1242,-1.1035,-1.0533,-0.9824,-0.9824,-1.0107,-1.0611,-0.9818,-0.9534,-0.9534,-0.9534,-0.913,-0.8425,-0.785,-0.7437,-0.7017,-0.6027,-0.5785,-0.577,-0.5262,-0.5002,-0.4836,-0.4297,-0.3987,-0.3764,-0.3375,-0.2887,-0.2432,-0.2174,-0.1844,-0.1589,-0.1611,-0.1685,-0.1807,-0.1881,-0.2187,-0.2441,-0.2446,-0.2675,-0.2926,-0.318,-0.3109,-0.2885,-0.2588,-0.2762,-0.3,-0.3195,-0.3682,-0.417,-0.4566,-0.502,-0.5284,-0.5284,-0.5322,-0.4962,-0.4047,-0.3809,-0.3321,-0.245,-0.2196,-0.1997,-0.1803,-0.1816,-0.1933,-0.2186,-0.1699,-0.1579,0.0,0.0,0.0,0.0,0.0,0.0,0.0,0.0,0.0,0.0,0.0,0.0,0.0,0.0,0.0,0.0,0.0,0.0,0.0,0.0,0.0,0.0,-1.0073,-1.1524,-1.3287,-1.5019,-1.6239,-1.6457,-1.5059,-1.4478,-1.5526,-1.5268,-1.5014,-1.4842,-1.4503,-1.4037,-1.3297,-1.2761,-1.2341,-1.2017,-1.2627,-1.2639,-1.1896,-1.1553,-1.1299,-1.1152,-1.1152,-1.0913,-1.0519,-1.0519,-1.0754,-1.1152,-1.0679,-1.0293,-0.9922,-0.9922,-0.9599,-0.9066,0.0,0.0,0.0,0.0,-0.6311,-0.6322,-0.5927,-0.569,-0.5501,-0.4998,-0.4721,-0.4499,-0.4106,-0.3688,-0.3256,-0.2892,-0.2614,-0.2408,-0.2274,-0.2351,-0.2496,-0.259,-0.294,-0.3224,-0.3202,-0.3532,-0.384,-0.3906,-0.4117,0.0,-0.3809,-0.381,-0.3902,-0.4044,-0.4509,-0.4952,-0.524,-0.5687,-0.5931,-0.5779,-0.5825,-0.5519,-0.4659,-0.4414,0.0,0.0,0.0,-0.2474,-0.2112,-0.1991,0.0,0.0,0.0,-0.2574,-0.3037,-0.3223,0.0,0.0,-0.2901,-0.3145,0.0,0.0,0.0,0.0,0.0,0.0,0.0,0.0,0.0,0.0,0.0,0.0,0.0,0.0,0.0,0.0,-0.9159,-1.0208,-1.0785,-1.272,-1.4309,-1.5001,-1.4096,-1.3535,-1.3908,-1.4228,-1.4382,-1.4229,-1.4082,-1.3822,-1.3227,-1.2803,0.0,0.0,0.0,-1.304,-1.2273,-1.1595,-1.1294,-1.1262,-1.1262,-1.1321,-1.151,-1.151,-1.1451,-1.1262,-1.1262,-1.0869,-1.0078,-1.0078,-0.9937,-0.9686,-0.8859,-0.8139,-0.7522,-0.6709,-0.642,-0.6416,-0.6388,0.0,0.0,-0.5676,-0.54,-0.5041,-0.4678,-0.4414,-0.4118,-0.3608,-0.3423,-0.3341,-0.3137,-0.3019,-0.304,-0.3378,-0.3785,-0.4096,-0.4115,-0.4499,-0.4825,-0.4685,-0.4953,-0.5145,-0.503,-0.4823,-0.476,-0.5015,-0.5386,-0.5711,-0.5864,-0.6278,-0.6382,-0.5851,-0.6096,0.0,-0.5166,-0.4977,-0.4861,-0.4761,-0.3808,-0.3071,-0.2676,-0.2606,-0.2796,-0.3274,-0.3485,-0.3854,-0.4363,-0.3985,-0.4259,-0.5111,-0.4792,-0.472,0.0,0.0,0.0,0.0,0.0,0.0,0.0,0.0,0.0,0.0,0.0,0.0,0.0,0.0,0.0,-0.6834,-0.7914,-0.8863,-0.9496,-1.0602,-1.1794,-1.2895,-1.2987,-1.3092,-1.3548,-1.3978,-1.4247,-1.417,-1.3972,-1.3573,-1.308,-1.2833,-1.2388,-1.1809,-1.2414,-1.2449,-1.1986,-1.223,-1.2001,-1.1262,-1.1262,0.0,-1.249,-1.249,-1.2075,-1.1262,-1.1262,-1.1161,-1.099,-1.099,-1.0212,-0.8912,-0.8748,-0.8611,-0.8309,-0.6899,-0.642,-0.6392,-0.6197,-0.6128,-0.6099,-0.5912,-0.57,-0.5533,-0.527,-0.488,0.0,-0.4307,-0.4117,-0.3969,-0.3999,-0.4079,-0.4129,-0.4254,-0.444,-0.4585,-0.4711,-0.4963,-0.5267,-0.552,-0.5695,-0.59,-0.6216,-0.5595,-0.5159,-0.5363,-0.5731,-0.6096,-0.6412,-0.7127,-0.731,-0.6521,-0.7094,-0.7064,-0.5824,-0.6026,-0.5906,-0.5154,-0.4503,-0.3991,-0.365,-0.3664,-0.372,-0.3762,-0.4013,-0.4563,-0.5404,-0.554,-0.5919,-0.6481,-0.4935,-0.4604,0.0,0.0,0.0,0.0,0.0,0.0,0.0,0.0,0.0,0.0,0.0,-0.1865,-0.2792,0.0,-0.4847,-0.5693,-0.6618,-0.7497,-0.8217,-0.9009,-1.0086,-1.1479,-1.2051,-1.2461,-1.2878,-1.3302,-1.351,-1.331,-1.3271,-1.2946,-1.2414,-1.2425,-1.2215,-1.1816,-1.2092,-1.2278,-1.2289,-1.2618,-1.2415,-1.1686,-1.1686,-1.1927,-1.237,-1.237,-1.231,-1.2032,-1.1553,-1.1262,-1.1267,-1.0824,-0.9873,-0.8627,-0.8246,-0.8093,-0.7969,-0.7227,-0.6875,-0.6737,-0.6501,-0.635,-0.624,-0.5982,-0.5767,-0.5624,-0.5362,-0.5047,-0.4829,-0.456,-0.4466,-0.4417,-0.4457,-0.4597,-0.4776,-0.4865,-0.51,-0.5232,-0.5217,-0.559,-0.5912,-0.5938,-0.6235,-0.6515,-0.668,-0.6492,-0.6276,-0.6199,-0.6604,-0.6934,-0.7026,-0.7635,-0.7852,-0.7314,-0.7704,-0.7683,-0.6856,-0.6764,-0.6529,-0.6031,-0.5399,-0.4969,-0.4751,-0.4883,-0.5053,-0.525,-0.5547,-0.5985,-0.6556,-0.6693,-0.697,-0.739,-0.6751,-0.644,0.0,0.0,0.0,0.0,0.0,0.0,0.0,0.2137,0.1506,0.0847,0.0,-0.0896,-0.1667,-0.2603,-0.3522,-0.4408,-0.5179,-0.5994,-0.6848,-0.7641,-0.8711,-1.0072,-1.1015,-1.1723,-1.2116,-1.2477,-1.2626,-1.2419,-1.2511,-1.2385,-1.1802,-1.1961,-1.1962,-1.174,-1.1983,-1.2273,-1.2517,-1.267,-1.2506,-1.2073,-1.1878,-1.1883,-1.198,-1.198,-1.2175,-1.2614,-1.1489,-1.1089,-1.1003,-1.0299,-0.9554,-0.8709,-0.8007,-0.7646,-0.7488,-0.7379,-0.7214,-0.709,-0.6812,-0.6569,-0.6409,-0.6032,-0.5804,-0.5638,-0.5289,-0.5221,-0.5136,-0.4798,-0.4755,-0.4835,-0.4797,-0.4994,-0.5278,-0.5448,-0.5722,-0.5877,-0.5792,-0.6199,-0.6556,-0.6406,-0.6747,-0.7072,-0.7108,-0.7441,-0.7536,-0.7031,-0.741,-0.7693,-0.7567,-0.7957,-0.8178,-0.7951,-0.8164,-0.8229,-0.7991,-0.7542,-0.7254,-0.7258,-0.6571,-0.6138,-0.6091,-0.6112,-0.6393,-0.6924,-0.7202,-0.7608,-0.8138,-0.8134,-0.8356,-0.8792,-0.9233,-0.8867,0.0958,0.02,-0.0605,-0.1043,0.1298,0.3628,0.0,0.312,0.2558,0.1736,0.1002,0.0239,-0.0523,-0.1244,-0.1998,-0.269,-0.3521,-0.4353,-0.5186,-0.6227,-0.7317,-0.8243,-0.978,-1.101,-1.1553,-1.1913,-1.2125,-1.2278,-1.2211,-1.2024,-1.1794,-1.1836,-1.1805,-1.1594,-1.2095,-1.2357,-1.2384,-1.2598,-1.2569,-1.2165,-1.1585,-1.1492,-1.1693,-1.1693,-1.1883,-1.2027,-1.0675,-1.0125,-1.0125,-1.0038,-0.9726,-0.9216,-0.8702,-0.8066,-0.7384,-0.6976,-0.6923,-0.7029,-0.6542,-0.6429,-0.6541,-0.6214,-0.6086,-0.5984,-0.5613,-0.5596,-0.5575,-0.5336,-0.5302,-0.5376,-0.5449,-0.5544,-0.5724,-0.61,-0.6283,-0.6418,-0.6669,-0.6805,-0.693,-0.7265,-0.75,-0.7769,-0.8246,-0.8536,-0.8362,-0.7324,-0.7623,-0.7901,-0.7695,-0.813,-0.8371,-0.8116,-0.874,-0.911,-0.8968,-0.8662,-0.8604,-0.8816,-0.8218,-0.783,-0.783,-0.7267,-0.7336,-0.8102,-0.8197,-0.9092,-1.0778,-1.078,-1.1162,-1.1906,-1.1844,-1.0939,0.1422,0.1636,0.1961,0.2019,0.3987,0.5798,0.5539,0.4745,0.394,0.3246,0.2493,0.1773,0.1205,0.0486,-0.0247,-0.0878,-0.1694,-0.2581,-0.3542,-0.4804,-0.5935,-0.6744,-0.8259,-0.9601,-1.0648,-1.1259,-1.1575,-1.1657,-1.1581,-1.1497,-1.1254,-1.1293,-1.1343,-1.1284,-1.1637,-1.1923,-1.1936,-1.2125,-1.2138,-1.1878,-1.1585,-1.1394,-1.1394,-1.1296,-1.1194,-1.1161,-1.0292,-0.9821,-0.9607,-0.934,-0.8903,-0.8456,-0.7978,-0.7586,-0.7149,-0.7085,-0.7076,-0.6942,-0.6714,-0.6518,-0.6419,-0.6332,-0.6077,-0.5783,-0.5709,-0.5711,-0.5618,-0.5586,-0.5605,-0.5671,-0.5775,-0.6078,-0.6327,-0.6509,-0.6673,-0.6848,-0.6966,-0.7111,-0.7293,-0.7655,-0.7953,-0.825,-0.8659,-0.8935,-0.8972,-0.8433,-0.8344,-0.8261,-0.7979,-0.8262,-0.8618,-0.8887,-0.9381,-0.9728,-0.979,-0.9559,-0.9514,-0.9785,-0.9342,-0.9225,-0.9495,-0.9336,-0.9588,-1.0266,-1.0461,-1.1024,-1.1956,-1.2025,-1.2225,-1.254,-1.2896,-1.2938,0.2365,0.3436,0.4736,0.5195,0.6836,0.816,0.7452,0.6437,0.5408,0.4758,0.4058,0.3321,0.2863,0.2126,0.1389,0.0768,-0.0133,-0.1112,-0.2166,-0.3507,-0.4701,-0.5569,-0.6825,-0.8058,-0.929,-1.0237,-1.0812,-1.0751,-1.0936,-1.099,-1.0816,-1.0916,-1.1015,-1.1167,-1.1485,-1.1682,-1.1743,-1.19,-1.1878,-1.1585,-1.1492,-1.1389,-1.1096,-1.0806,-1.0609,-1.0485,-0.987,-0.9553,-0.9322,-0.8765,-0.8376,-0.8013,-0.7595,-0.7267,-0.712,-0.7278,-0.7168,-0.6938,-0.6881,-0.6761,-0.651,-0.6499,-0.6226,-0.5906,-0.5883,-0.5909,-0.5903,-0.5826,-0.5894,-0.6019,-0.612,-0.643,-0.6773,-0.6875,-0.7103,-0.7285,-0.7247,-0.7406,-0.7638,-0.7885,-0.8201,-0.8537,-0.8943,-0.9217,-0.9391,-0.9282,-0.9152,-0.892,-0.8572,-0.8786,-0.9107,-0.9482,-0.9905,-1.0236,-1.0399,-1.0344,-1.0404,-1.0705,-1.0347,-1.034,-1.0833,-1.0887,-1.1281,-1.2048,-1.2316,-1.2708,-1.3186,-1.3334,-1.3398,-1.3388,-1.417,-1.481,0.3951,0.5547,0.703,0.7644,0.9144,1.0168,0.8913,0.7933,0.709,0.616,0.5485,0.482,0.4249,0.3605,0.2915,0.2128,0.1102,-0.0073,-0.1163,-0.2575,-0.3791,-0.4758,-0.5689,-0.6565,-0.7306,-0.8918,-0.9875,-0.964,-1.0183,-1.0549,-1.0626,-1.078,-1.112,-1.1532,-1.1547,-1.1753,-1.197,-1.1975,-1.1878,-1.1585,-1.1296,-1.1096,-1.0801,-1.0417,-1.0122,-0.9989,-0.921,-0.9066,-0.9326,-0.8783,-0.8636,-0.8548,-0.7837,-0.7474,-0.7253,-0.7129,-0.7148,-0.718,-0.6938,-0.7015,-0.7145,-0.6749,-0.6619,-0.6552,-0.6239,-0.6405,-0.6595,-0.6177,-0.6322,-0.6557,-0.6529,-0.6713,-0.6982,-0.7402,-0.7576,-0.7666,-0.7676,-0.7845,-0.7983,-0.7999,-0.8267,-0.8683,-0.9199,-0.9506,-0.9653,-0.9496,-0.9872,-1.0033,-0.9698,-0.9947,-0.9996,-0.9639,-1.0186,-1.0621,-1.0681,-1.1048,-1.1423,-1.1818,-1.1282,-1.1187,-1.1727,-1.1391,-1.1751,-1.2944,-1.3222,-1.3888,-1.4921,-1.5127,-1.5259,-1.5345,-1.6201,-1.6558,0.4215,0.5646,0.7289,0.8279,0.9918,1.1003,1.0177,0.9134,0.8212,0.7466,0.675,0.6117,0.5418,0.4719,0.4002,0.3177,0.22,0.114,0.0,-0.1123,-0.2207,-0.3396,-0.454,-0.549,-0.6183,-0.7756,-0.8825,-0.9209,-0.9545,-0.9775,-0.9864,-1.0054,-1.0295,-1.06,-1.0734,-1.0933,-1.1194,-1.0998,-1.0998,-1.1096,-1.0801,-1.0413,-1.0019,-1.0216,-0.992,-0.9201,-0.9099,-0.8858,-0.8594,-0.8076,-0.7852,-0.7852,-0.7408,-0.7107,-0.6915,-0.6978,-0.6987,-0.7019,-0.6942,-0.6942,-0.7015,-0.7034,-0.679,-0.644,-0.6478,-0.6494,-0.6547,-0.662,-0.689,-0.712,-0.7151,-0.7442,-0.772,-0.7776,-0.7841,-0.7973,-0.8082,-0.8049,-0.8099,-0.8344,-0.8516,-0.8756,-0.9239,-0.9576,-0.9933,-1.0343,-1.0143,-1.0034,-1.0253,-1.0284,-1.031,-1.0388,-1.061,-1.0801,-1.0944,-1.1429,-1.1826,-1.2143,-1.2179,-1.2393,-1.284,-1.2897,-1.3245,-1.3917,-1.4764,-1.5424,-1.5933,-1.6673,-1.7054,-1.7139,-1.7439,-1.7821,0.4534,0.5913,0.7643,0.9362,1.0716,1.1435,1.0814,1.0032,0.9262,0.8661,0.7972,0.7251,0.6609,0.5881,0.508,0.4084,0.3156,0.2046,0.087,-0.0223,-0.136,-0.2566,-0.3701,-0.4663,-0.5506,-0.6713,-0.7656,-0.8246,-0.8806,-0.9095,-0.907,-0.9418,-0.9806,-1.0027,-1.0214,-1.0511,-1.0708,-1.0511,-1.0413,-1.0507,-1.0216,-0.992,-0.943,-0.9723,-0.9418,-0.8806,-0.8764,-0.8524,-0.8221,-0.7628,-0.7415,-0.7507,-0.7231,-0.7024,-0.6844,-0.6986,-0.6979,-0.7025,-0.6987,-0.7099,-0.7253,-0.7253,-0.7135,-0.6885,-0.6825,-0.6814,-0.6897,-0.7095,-0.7442,-0.7737,-0.7907,-0.8032,-0.8181,-0.8287,-0.8298,-0.8324,-0.8434,-0.8393,-0.8441,-0.8738,-0.8864,-0.9072,-0.9491,-0.9867,-1.0312,-1.1019,-1.0812,-1.0631,-1.0893,-1.0803,-1.0763,-1.0928,-1.0944,-1.1038,-1.1279,-1.1725,-1.2143,-1.2447,-1.2799,-1.3159,-1.3539,-1.3818,-1.4124,-1.4467,-1.5593,-1.6262,-1.6449,-1.7413,-1.7939,-1.8003,-1.8295,-1.8871,0.4995,0.6409,0.8242,1.0932,1.1633,1.1549,1.1038,1.0651,1.0193,0.9652,0.9005,0.8361,0.7652,0.6937,0.6083,0.5014,0.3968,0.2814,0.1518,0.0223,-0.0983,-0.2116,-0.309,-0.4155,-0.5174,-0.5845,-0.639,-0.694,-0.8066,-0.8529,-0.8182,-0.8867,-0.944,-0.9736,-1.0117,-1.0314,-1.0314,-1.0314,-1.0216,-0.992,-0.9723,-0.943,-0.9137,-0.8928,-0.8825,-0.8707,-0.8207,-0.807,-0.8217,-0.7451,-0.7241,-0.7415,-0.7231,-0.7136,-0.7095,-0.7052,-0.7105,-0.7308,-0.7219,-0.7492,-0.7723,-0.7561,-0.7656,-0.7681,-0.7351,-0.7442,-0.7716,-0.772,-0.7963,-0.8291,-0.8657,-0.8534,-0.849,-0.8948,-0.8843,-0.8678,-0.8797,-0.8856,-0.8994,-0.9213,-0.9298,-0.9512,-1.0049,-1.0397,-1.084,-1.1505,-1.1752,-1.1822,-1.1617,-1.1555,-1.1488,-1.1307,-1.1259,-1.139,-1.1681,-1.2024,-1.2407,-1.2843,-1.3208,-1.3562,-1.3929,-1.4252,-1.4522,-1.4744,-1.586,-1.6496,-1.6634,-1.7576,-1.809,-1.8203,-1.898,-1.9799,0.6174,0.7076,0.8871,1.149,1.2218,1.2108,1.149,1.1265,1.0974,1.0232,0.9664,0.9022,0.8172,0.7461,0.6675,0.5547,0.4509,0.3485,0.2463,0.1374,0.0148,-0.1206,-0.2085,-0.3156,-0.4654,-0.5496,-0.5954,-0.6169,-0.7056,-0.7661,-0.7898,-0.8199,-0.8558,-0.8875,-0.9135,-0.9324,-0.9529,-0.9529,-0.9327,-0.9122,-0.9027,-0.8829,-0.863,-0.8726,-0.8726,-0.852,-0.8233,-0.808,-0.8049,-0.7573,-0.7248,-0.7231,-0.7139,-0.7162,-0.7214,-0.7097,-0.7197,-0.7385,-0.7254,-0.7334,-0.7565,-0.7723,-0.7571,-0.736,-0.7602,-0.7624,-0.7593,-0.7992,-0.8452,-0.888,-0.9124,-0.9338,-0.9492,-0.9401,-0.9288,-0.9194,-0.9259,-0.9163,-0.9264,-0.9755,-0.9883,-1.004,-1.0452,-1.0626,-1.0829,-1.1319,-1.1788,-1.2235,-1.2504,-1.2464,-1.2334,-1.2194,-1.2164,-1.2115,-1.1949,-1.2316,-1.2986,-1.3942,-1.4298,-1.4921,-1.5849,-1.6167,-1.6437,-1.6677,-1.7767,-1.8345,-1.8445,-1.9383,-2.0184,-2.084,-2.1045,-2.159,0.757,0.8595,1.002,1.1576,1.2165,1.223,1.1815,1.1737,1.15,1.0819,1.0301,0.9728,0.8941,0.8231,0.7386,0.6334,0.5345,0.4344,0.3256,0.2164,0.0886,-0.0612,-0.1647,-0.281,-0.4356,-0.5207,-0.5749,-0.5964,-0.667,-0.7007,-0.7082,-0.7506,-0.7844,-0.8189,-0.8538,-0.8856,-0.9031,-0.8962,-0.886,-0.8825,-0.8726,-0.8528,-0.8432,-0.8432,-0.8396,-0.8325,-0.8076,-0.7921,-0.7855,-0.7608,-0.7403,-0.7323,-0.7408,-0.7534,-0.7516,-0.7442,-0.7461,-0.7507,-0.7577,-0.7642,-0.7642,-0.7642,-0.7611,-0.758,-0.7797,-0.7928,-0.8047,-0.8431,-0.8952,-0.9436,-0.9718,-1.003,-1.018,-1.0102,-0.9937,-0.9854,-0.9956,-0.984,-0.9906,-1.0488,-1.0587,-1.0728,-1.0957,-1.0943,-1.1057,-1.1505,-1.2018,-1.2532,-1.3104,-1.2915,-1.2742,-1.2761,-1.2661,-1.2628,-1.2717,-1.3079,-1.3793,-1.4866,-1.5314,-1.5869,-1.6621,-1.6934,-1.7205,-1.7481,-1.8478,-1.9046,-1.9158,-2.0431,-2.1324,-2.1814,-2.2193,-2.2797,0.9128,1.042,1.107,1.1512,1.1971,1.2235,1.2094,1.2072,1.1963,1.1318,1.0863,1.0415,0.9709,0.9069,0.8226,0.7186,0.6268,0.5241,0.3877,0.2756,0.1406,-0.0233,-0.1436,-0.2699,-0.4103,-0.4881,-0.5513,-0.5894,-0.6349,-0.6438,-0.6171,-0.6837,-0.7346,-0.758,-0.8097,-0.8437,-0.8594,-0.856,-0.8575,-0.8627,-0.8411,-0.8301,-0.8301,-0.8086,-0.801,-0.8172,-0.7749,-0.7695,-0.7811,-0.7681,-0.7524,-0.7591,-0.7768,-0.7944,-0.799,-0.7979,-0.7934,-0.7808,-0.8,-0.7953,-0.7799,-0.7613,-0.7734,-0.8,-0.8047,-0.8243,-0.8511,-0.8958,-0.9408,-0.9926,-1.0308,-1.0554,-1.0749,-1.0847,-1.0703,-1.0562,-1.0705,-1.0667,-1.0764,-1.1226,-1.1315,-1.1325,-1.1469,-1.1358,-1.1394,-1.1872,-1.2282,-1.2791,-1.3446,-1.3227,-1.3021,-1.3132,-1.2971,-1.3084,-1.3584,-1.394,-1.4615,-1.5744,-1.6291,-1.6723,-1.7049,-1.7368,-1.7677,-1.7922,-1.8749,-1.9289,-1.9532,-2.1067,-2.1914,-2.2158,-2.2909,-2.3688,1.1172,1.1051,1.0641,1.2128,1.2739,1.2842,1.2509,1.2564,1.2512,1.1711,1.1303,1.0919,1.0301,0.9594,0.8812,0.7707,0.6985,0.6,0.4477,0.3295,0.1982,0.0454,-0.0711,-0.2047,-0.3435,-0.411,-0.4637,-0.5179,-0.5277,-0.5633,-0.6343,-0.6475,-0.6703,-0.7208,-0.7426,-0.7413,-0.7359,-0.7727,-0.7889,-0.7842,-0.7909,-0.7949,-0.7945,-0.7729,-0.7851,-0.8012,-0.7886,-0.7787,-0.7822,-0.7981,-0.7889,-0.7764,-0.7852,-0.8116,-0.842,-0.8146,-0.8102,-0.8221,-0.816,-0.8106,-0.808,-0.7992,-0.7929,-0.791,-0.8162,-0.8261,-0.8366,-0.9081,-0.96,-1.011,-1.0807,-1.1205,-1.1387,-1.1245,-1.1215,-1.1162,-1.0908,-1.1267,-1.1701,-1.1886,-1.1658,-1.1528,-1.1958,-1.1636,-1.1457,-1.2054,-1.2508,-1.2931,-1.3514,-1.3868,-1.3843,-1.3308,-1.357,-1.3783,-1.3831,-1.415,-1.5081,-1.6808,-1.7327,-1.7975,-1.889,-1.9189,-1.9441,-1.9668,-1.9938,-2.0462,-2.1279,-2.1633,-2.2539,-2.3946,-2.4046,-2.4521,1.1621,1.1646,1.1348,1.2336,1.2853,1.3093,1.2802,1.3048,1.3014,1.211,1.1864,1.1545,1.087,1.0238,0.946,0.8291,0.7637,0.6655,0.5136,0.4065,0.2796,0.1148,-0.0161,-0.1501,-0.2983,-0.3656,-0.4251,-0.483,-0.4835,-0.5191,-0.5813,-0.6116,-0.6489,-0.6916,-0.6919,-0.6985,-0.712,-0.724,-0.741,-0.7727,-0.7628,-0.773,-0.7926,-0.7858,-0.788,-0.7893,-0.7816,-0.7787,-0.7724,-0.7919,-0.8105,-0.8201,-0.838,-0.8582,-0.8717,-0.8612,-0.8449,-0.8324,-0.8431,-0.8327,-0.8295,-0.8393,-0.8259,-0.8141,-0.8389,-0.8523,-0.8753,-0.9268,-0.9913,-1.0555,-1.1059,-1.1677,-1.2187,-1.1882,-1.1856,-1.1852,-1.1849,-1.2076,-1.2372,-1.252,-1.2122,-1.1844,-1.2297,-1.1916,-1.1726,-1.2222,-1.2697,-1.3151,-1.3682,-1.3956,-1.3937,-1.3452,-1.3825,-1.4257,-1.4615,-1.4946,-1.5899,-1.7746,-1.825,-1.8791,-1.9481,-1.9726,-1.9952,-2.0142,-2.0288,-2.0801,-2.1741,-2.2248,-2.3143,-2.4405,-2.4799,-2.5157,1.1775,1.2144,1.2347,1.2699,1.3086,1.3316,1.321,1.3467,1.3475,1.2578,1.2428,1.2182,1.1373,1.0862,1.011,0.8888,0.8208,0.73,0.5827,0.4776,0.3548,0.1787,0.0408,-0.0932,-0.2424,-0.3273,-0.3941,-0.4482,-0.4659,-0.4926,-0.5371,-0.582,-0.6233,-0.6597,-0.6593,-0.6658,-0.6886,-0.6783,-0.7038,-0.7574,-0.7553,-0.7612,-0.7943,-0.7913,-0.7925,-0.7804,-0.7785,-0.7738,-0.7761,-0.7993,-0.8292,-0.8727,-0.8907,-0.8966,-0.9021,-0.8991,-0.8792,-0.8514,-0.8702,-0.8708,-0.8604,-0.8812,-0.8655,-0.8362,-0.8529,-0.8772,-0.9017,-0.9454,-1.0161,-1.0926,-1.1421,-1.2228,-1.2852,-1.2664,-1.2489,-1.2471,-1.2764,-1.2774,-1.2822,-1.3104,-1.265,-1.2366,-1.2765,-1.2395,-1.2201,-1.265,-1.2981,-1.3391,-1.3914,-1.4087,-1.4098,-1.3864,-1.4099,-1.4638,-1.5479,-1.5882,-1.6775,-1.8461,-1.8946,-1.9301,-1.9609,-1.9809,-2.0022,-2.0196,-2.0527,-2.1148,-2.2072,-2.2943,-2.3822,-2.4661,-2.5312,-2.5662,1.2281,1.2639,1.2907,1.3494,1.3818,1.3953,1.3743,1.3924,1.3794,1.2951,1.2744,1.2552,1.1872,1.1411,1.0725,0.9438,0.8744,0.7812,0.6398,0.5201,0.3988,0.2644,0.1061,-0.0339,-0.1647,-0.2567,-0.3226,-0.3946,-0.4567,-0.5102,-0.5371,-0.5471,-0.5654,-0.61,-0.6189,-0.6071,-0.6009,-0.6648,-0.6901,-0.6856,-0.721,-0.7506,-0.7634,-0.777,-0.7784,-0.777,-0.8219,-0.8207,-0.7963,-0.8564,-0.8823,-0.8911,-0.9174,-0.9229,-0.9203,-0.9078,-0.8958,-0.8913,-0.8942,-0.9094,-0.9241,-0.9448,-0.9003,-0.8338,-0.8554,-0.8716,-0.8958,-0.9588,-1.0288,-1.1045,-1.2081,-1.2826,-1.3314,-1.3672,-1.3179,-1.2764,-1.3074,-1.3045,-1.3104,-1.3478,-1.3263,-1.3189,-1.3751,-1.3322,-1.3094,-1.3656,-1.3639,-1.3728,-1.4189,-1.4727,-1.5023,-1.4879,-1.4678,-1.5063,-1.6289,-1.6752,-1.7483,-1.8699,-1.915,-1.9475,-1.9669,-1.988,-2.0068,-2.02,-2.1113,-2.2045,-2.2986,-2.3864,-2.4699,-2.5488,-2.5576,-2.5995,1.2512,1.3001,1.3367,1.384,1.4269,1.4514,1.4364,1.4445,1.4438,1.3874,1.352,1.3113,1.2403,1.1876,1.1012,0.9566,0.8953,0.8165,0.6672,0.5616,0.4597,0.3324,0.1951,0.0504,-0.0793,-0.1695,-0.269,-0.3676,-0.4123,-0.4569,-0.4926,-0.5374,-0.5644,-0.5819,-0.5819,-0.593,-0.6242,-0.6337,-0.6678,-0.7181,-0.7126,-0.727,-0.7597,-0.7812,-0.7873,-0.7866,-0.8143,-0.8336,-0.8438,-0.8685,-0.899,-0.9331,-0.9475,-0.9386,-0.9266,-0.9375,-0.9168,-0.8981,-0.9128,-0.9246,-0.9322,-0.9695,-0.938,-0.8915,-0.9109,-0.9209,-0.9338,-0.9786,-1.0548,-1.1421,-1.229,-1.3033,-1.37,-1.4272,-1.3841,-1.343,-1.3752,-1.3695,-1.3658,-1.3894,-1.3697,-1.3641,-1.4058,-1.3634,-1.3406,-1.384,-1.3886,-1.4,-1.442,-1.4715,-1.5156,-1.5825,-1.5557,-1.5707,-1.671,-1.7065,-1.7754,-1.8963,-1.9305,-1.9545,-1.975,-1.9982,-2.0156,-2.0262,-2.1249,-2.2204,-2.3092,-2.3963,-2.483,-2.5652,-2.5625,-2.6034,1.2798,1.3376,1.3794,1.4315,1.4718,1.499,1.4872,1.4933,1.49,1.4545,1.412,1.3638,1.2948,1.2297,1.1383,0.0,0.0,0.8444,0.7086,0.6205,0.5289,0.4209,0.2744,0.1331,0.0088,-0.1251,-0.242,-0.3317,-0.3765,-0.4214,-0.4569,-0.5166,-0.5518,-0.5641,-0.5644,-0.5819,-0.6169,-0.6169,-0.6483,-0.7121,-0.7125,-0.7295,-0.7533,-0.7902,-0.7995,-0.7987,-0.8333,-0.8615,-0.882,-0.8953,-0.9218,-0.9588,-0.9785,-0.9639,-0.9375,-0.9543,-0.9431,-0.9175,-0.9397,-0.9549,-0.962,-1.0067,-0.9885,-0.9555,-0.9776,-0.9691,-0.9652,-1.011,-1.11,-1.2157,-1.2879,-1.348,-1.406,-1.4694,-1.4343,-1.3999,-1.428,-1.4222,-1.4222,-1.4362,-1.4316,-1.4305,-1.458,-1.4127,-1.39,-1.4262,-1.4219,-1.431,-1.4752,-1.5007,-1.5557,-1.6517,-1.6467,-1.6664,-1.7308,-1.7586,-1.8164,-1.9193,-1.9452,-1.9663,-1.9877,-2.0336,-2.05,-2.0334,-2.1784,-2.2723,-2.3095,-2.4237,-2.5082,-2.5679,-2.5625,-2.6164,1.32,1.3641,1.4101,1.4999,1.5215,1.5223,1.5436,1.5359,1.5112,1.4761,1.4544,1.422,1.3516,1.2755,1.1914,1.1008,0.9781,0.8563,0.7655,0.6833,0.5999,0.5146,0.3514,0.2065,0.0951,-0.115,-0.2597,-0.2867,-0.3762,-0.43,-0.43,-0.4655,-0.5085,-0.5369,-0.5555,-0.5733,-0.5733,-0.6169,-0.6428,-0.6432,-0.7149,-0.7499,-0.7464,-0.8197,-0.8378,-0.8106,-0.891,-0.908,-0.8915,-0.9694,-0.9833,-0.9649,-1.0149,-1.0039,-0.9566,-0.9566,-0.9581,-0.962,-0.9846,-0.9992,-1.0293,-1.0663,-1.0538,-1.0327,-1.0534,-1.0232,-0.9926,-1.0618,-1.1919,-1.3281,-1.425,-1.4289,-1.4266,-1.4925,-1.462,-1.428,-1.4523,-1.4581,-1.4662,-1.4858,-1.5006,-1.5187,-1.5534,-1.5035,-1.4775,-1.5298,-1.4896,-1.469,-1.5225,-1.5853,-1.6432,-1.6834,-1.7412,-1.7902,-1.8149,-1.8494,-1.8893,-1.938,-1.9591,-1.9823,-2.0098,-2.1001,-2.1138,-2.0415,-2.2945,-2.3894,-2.3102,-2.4843,-2.5657,-2.5601,-2.56,-2.6463,1.3267,1.3983,1.4542,1.4734,1.5151,1.5545,1.5689,1.5833,1.5922,1.5808,1.5291,1.4597,1.4077,1.3187,1.2082,1.0731,0.9729,0.8774,0.7627,0.6748,0.5854,0.5012,0.2902,0.1112,0.0087,-0.1241,-0.2241,-0.2867,-0.3496,-0.3942,-0.43,-0.445,-0.4714,-0.5099,-0.5295,-0.5468,-0.5725,-0.6166,-0.652,-0.6704,-0.7238,-0.7531,-0.7488,-0.8019,-0.8371,-0.8452,-0.8682,-0.9026,-0.9393,-0.9498,-0.9654,-0.9833,-0.9994,-0.9846,-0.9625,-0.9935,-0.9905,-0.9846,-1.0218,-1.0368,-1.0443,-1.0738,-1.0538,-1.0327,-1.0673,-1.0552,-1.0555,-1.1677,-1.247,-1.3162,-1.4096,-1.4175,-1.4164,-1.4761,-1.4736,-1.4673,-1.4891,-1.5028,-1.5119,-1.5289,-1.5546,-1.578,-1.5969,-1.5483,-1.5184,-1.5562,-1.5134,-1.4984,-1.5579,-1.62,-1.6773,-1.7272,-1.7766,-1.817,-1.8393,-1.8753,-1.9111,-1.9462,-1.9688,-1.9915,-2.0089,-2.1051,-2.1469,-2.1293,-2.3314,-2.4241,-2.3999,-2.5137,-2.567,-2.5639,-2.6776,-2.7549,1.3537,1.4166,1.4675,1.4944,1.5301,1.5673,1.6111,1.6243,1.6272,1.6202,1.5661,1.4972,1.4287,1.3352,1.2193,1.0842,0.9899,0.8978,0.7955,0.7032,0.5924,0.4453,0.2565,0.0935,-0.0172,-0.1139,-0.1957,-0.2689,-0.3317,-0.3765,-0.4123,-0.418,-0.4442,-0.4741,-0.4949,-0.5275,-0.5478,-0.6092,-0.6421,-0.6631,-0.7152,-0.7415,-0.7411,-0.7924,-0.8177,-0.8341,-0.8569,-0.8937,0.0,-0.9548,-0.969,-0.9922,-1.0021,-0.9907,-0.9735,-0.997,-1.0067,-1.0067,-1.0368,-1.0594,-1.072,-1.0849,-1.0747,-1.0634,-1.0929,-1.0972,-1.1163,-1.2081,-1.2563,-1.3024,-1.3877,-1.3939,-1.4016,-1.4686,-1.4865,-1.4903,-1.5119,-1.53,-1.548,-1.5647,-1.5913,-1.6175,-1.6405,-1.594,-1.5599,-1.5941,-1.5553,-1.5404,-1.5963,-1.6549,-1.7085,-1.7608,-1.8086,-1.8452,-1.8699,-1.8996,-1.9286,-1.9553,-1.9804,-2.0162,-2.065,-2.1586,-2.2126,-2.2236,-2.3973,-2.4737,-2.4393,-2.5248,-2.5642,-2.5634,-2.7298,-2.8036,0.0,1.4227,1.4599,1.5431,1.5504,1.5683,1.6629,1.6533,0.0,1.6132,1.578,1.5184,1.4282,1.3242,1.2241,1.1335,1.0236,0.9228,0.8342,0.753,0.6089,0.368,0.2481,0.1311,0.0,-0.0856,-0.1748,-0.2498,-0.3215,-0.3751,-0.3929,-0.412,-0.42,-0.4277,-0.4723,-0.5032,-0.5201,-0.5798,-0.6241,-0.6274,-0.703,-0.7368,-0.7364,-0.7769,-0.8016,-0.8098,-0.85,-0.8901,-0.938,-0.9786,-0.9977,-0.9933,-1.0183,-1.0126,-0.9916,-0.9916,-1.0067,-1.0293,-1.0443,-1.0801,-1.1107,-1.0972,-1.1024,-1.1066,-1.1206,-1.1413,-1.1643,-1.1936,-1.2362,-1.2823,-1.3483,-1.367,-1.382,-1.4688,-1.4879,-1.5006,-1.5255,-1.5537,-1.5748,-1.5988,-1.6144,-1.6417,-1.6876,-1.6323,-1.5978,-1.6487,-1.607,-1.5909,-1.6389,-1.6926,-1.7422,-1.7885,-1.8356,-1.8771,-1.9091,-1.9237,-1.9434,-1.9701,-1.9904,-2.0499,-2.1552,-2.2448,-2.299,-2.319,-2.4842,-2.533,-2.4589,-2.535,-2.5727,-2.5813,-2.7372,-2.8055,1.412,0.0,1.5065,1.5157,1.5431,1.5726,0.0,0.0,0.0,1.6473,1.5833,1.5037,1.4379,1.336,1.2178,1.1083,1.001,0.9,0.8023,0.6367,0.4691,0.3136,0.2084,0.106,0.0082,-0.1004,-0.1953,-0.2562,-0.3416,-0.3927,-0.4014,-0.416,-0.4242,-0.4097,-0.4348,-0.4628,-0.4858,-0.5537,-0.5975,-0.6274,-0.7191,-0.7608,-0.7608,-0.8024,-0.8349,-0.8509,-0.8689,-0.9016,-0.9553,-0.9622,-0.975,-0.9926,-1.0155,-1.0198,-1.0143,-1.0519,-1.0588,-1.0663,-1.0887,-1.0979,-1.1025,-1.0816,-1.0836,-1.1066,-1.1206,-1.1323,-1.1526,-1.2338,-1.2427,-1.2502,-1.3342,-1.365,-1.3889,-1.4526,-1.4878,-1.5153,-1.557,-1.5748,-1.5881,-1.6293,-1.6565,-1.6876,-1.7282,-1.6698,-1.6374,-1.6952,-1.635,-1.613,-1.6834,-1.7318,-1.7781,-1.8298,-1.8698,-1.9034,-1.9301,-1.9444,-1.9625,-1.9839,-2.004,-2.0598,-2.1555,-2.2481,-2.3325,-2.4086,-2.5158,-2.5937,-2.6395,-2.6581,-2.6985,-2.7599,-2.8611,-2.9035,1.3889,1.4518,1.497,1.5016,1.5304,1.5733,1.6133,0.0,0.0,1.6254,1.5613,1.484,1.4209,1.3258,1.2224,1.1111,1.0056,0.8846,0.7318,0.5619,0.4148,0.2902,0.1906,0.0885,-0.0081,-0.1069,-0.2078,-0.294,-0.3615,-0.412,-0.4285,-0.4281,-0.4281,-0.4285,-0.4242,-0.4408,-0.4631,-0.5397,-0.5903,-0.6244,-0.7053,-0.7541,-0.778,-0.7856,-0.8175,-0.8564,-0.8461,-0.8805,-0.9488,-0.9443,-0.962,-0.9922,-0.9992,-1.0143,-1.0218,-1.0443,-1.0663,-1.0812,-1.0887,-1.0931,-1.0886,-1.0929,-1.1026,-1.1184,-1.1243,-1.1346,-1.1499,-1.2135,-1.2286,-1.2428,-1.3041,-1.3516,-1.3962,-1.4488,-1.4891,-1.53,-1.5703,-1.5881,-1.6144,-1.6607,-1.6892,-1.7227,-1.7733,-1.7214,-1.6952,-1.7489,-1.689,-1.6612,-1.7248,-1.7659,-1.8215,-1.9085,-1.9417,-1.9873,-2.0571,-2.08,-2.062,-1.9996,-2.0116,-2.0808,-2.2133,-2.2716,-2.3629,-2.4976,-2.5466,-2.6125,-2.7007,-2.6977,-2.7361,-2.8164,-2.8985,-2.9309,1.3548,1.4092,1.4529,1.4942,1.5274,1.5601,1.6131,0.0,0.0,1.5762,1.5188,1.4553,1.3863,1.3046,1.215,1.1186,0.9992,0.847,0.6395,0.5079,0.3995,0.2902,0.1885,0.0871,-0.0242,-0.1212,-0.2198,-0.3154,-0.3743,-0.4242,-0.4656,-0.4568,-0.4568,-0.4736,-0.4489,-0.4442,-0.4598,-0.5396,-0.5896,-0.6244,-0.6945,-0.7411,-0.7723,-0.7642,-0.7868,-0.8327,-0.825,-0.8637,-0.9322,-0.9322,-0.9544,-0.9922,-0.9922,-1.0067,-1.0218,-1.0293,-1.0513,-1.0801,-1.0799,-1.0838,-1.0891,-1.1095,-1.1269,-1.137,-1.1346,-1.1434,-1.1624,-1.1847,-1.2154,-1.2395,-1.2773,-1.3362,-1.3952,-1.4523,-1.4983,-1.5447,-1.5792,-1.61,-1.6405,-1.6876,-1.7214,-1.7585,-1.809,-1.7741,-1.7525,-1.7882,-1.744,-1.7248,-1.7786,-1.8151,-1.8796,-1.9937,-2.0227,-2.0807,-2.1863,-2.2136,-2.173,-2.0499,-2.0532,-2.1377,-2.306,-2.3305,-2.4131,-2.5672,-2.5703,-2.6119,-2.6988,-2.7054,-2.7501,-2.8327,-2.9101,-2.9447,1.3606,1.3717,1.3799,1.478,1.5132,1.535,1.578,1.5568,1.5346,0.0,1.4697,1.4057,1.3637,1.2746,1.1781,1.0738,0.8927,0.7096,0.5854,0.4768,0.3756,0.2666,0.1805,0.0865,-0.0237,-0.1262,-0.2209,-0.3087,-0.388,-0.4434,-0.4673,-0.4985,-0.5061,-0.498,-0.5045,-0.5115,-0.5193,-0.55,-0.5957,-0.656,-0.7176,-0.7484,-0.7561,-0.7872,-0.8025,-0.8178,-0.8479,-0.8861,-0.9322,-0.9473,-0.9695,-0.9916,-1.0067,-1.0293,-1.0443,-1.0663,-1.0887,-1.1045,-1.0883,-1.1013,-1.1268,-1.1182,-1.129,-1.1556,-1.1638,-1.1723,-1.1903,-1.2075,-1.2068,-1.2149,-1.2949,-1.3542,-1.4118,-1.472,-1.5244,-1.5748,-1.6231,-1.6392,-1.665,-1.7269,-1.7666,-1.7942,-1.8004,-1.7846,-1.7713,-1.7731,-1.7458,-1.7679,-1.8808,-1.9293,-1.9713,-2.0191,-2.0466,-2.0838,-2.1299,-2.1411,-2.1732,-2.2326,-2.2441,-2.299,-2.4113,-2.4896,-2.5422,-2.5683,-2.5709,-2.6094,-2.6922,-2.7649,-2.8404,-2.9225,-2.9976,-3.0289,1.2888,1.3032,1.3176,1.3988,1.4405,1.4746,1.5234,1.5137,1.4912,1.4744,1.439,1.377,1.2928,1.2247,1.1332,0.9865,0.817,0.6714,0.5857,0.464,0.3611,0.2769,0.175,0.068,-0.0378,-0.145,-0.2459,-0.3379,-0.4119,-0.4698,-0.501,-0.5165,-0.5321,-0.5321,-0.5321,-0.5398,-0.5631,-0.5864,-0.6173,-0.6641,-0.7103,-0.7488,-0.7646,-0.7876,-0.8025,-0.825,-0.8551,-0.9008,-0.9473,-0.9695,-0.9922,-1.0218,-1.0293,-1.0513,-1.0663,-1.1037,-1.1243,-1.1275,-1.1153,-1.118,-1.1315,-1.1333,-1.1498,-1.1712,-1.1674,-1.1866,-1.2011,-1.2121,-1.2122,-1.2314,-1.3074,-1.3637,-1.4165,-1.4766,-1.5334,-1.5804,-1.6188,-1.6607,-1.7018,-1.7557,-1.7807,-1.8172,-1.8804,-1.8241,-1.7891,-1.8419,-1.8037,-1.7935,-1.8672,-1.9096,-1.9597,-2.0328,-2.1031,-2.1751,-2.2477,-2.308,-2.3247,-2.2868,-2.3381,-2.3921,-2.4372,-2.5244,-2.5703,-2.5699,-2.5696,-2.6326,-2.759,-2.7962,-2.8799,-3.0059,-3.0356,-3.043,1.2058,1.2309,1.258,1.3173,1.358,1.4014,1.4598,1.4585,1.4455,1.4268,1.3998,1.346,1.2451,1.1696,1.0713,0.9129,0.7772,0.6652,0.5966,0.4634,0.3446,0.285,0.1696,0.0583,-0.051,-0.1482,-0.2546,-0.3595,-0.4265,-0.4772,-0.5231,-0.5334,-0.5508,-0.5665,-0.5616,-0.5709,-0.6018,-0.6254,-0.649,-0.6637,-0.7026,-0.7411,-0.7723,-0.7804,-0.803,-0.8403,-0.8627,-0.9084,-0.9695,-0.9846,-1.0143,-1.0513,-1.0513,-1.0628,-1.0873,-1.131,-1.1499,-1.1499,-1.1423,-1.1376,-1.1393,-1.16,-1.1695,-1.1829,-1.1816,-1.1911,-1.2032,-1.2126,-1.2274,-1.2569,-1.3276,-1.3752,-1.4258,-1.4869,-1.5379,-1.5881,-1.6318,-1.6863,-1.7434,-1.7948,-1.8158,-1.8535,-1.9461,-1.8687,-1.8183,-1.8947,-1.8473,-1.8207,-1.867,-1.9199,-1.9863,-2.0735,-2.1797,-2.2825,-2.3712,-2.4694,-2.4778,-2.3603,-2.428,-2.4703,-2.4695,-2.5348,-2.5701,-2.5698,-2.5681,-2.6403,-2.7867,-2.8009,-2.8819,-3.025,-3.0413,-3.0394,1.1469,1.1646,1.2003,1.26,1.299,1.3438,1.407,1.3934,1.3682,1.407,1.3492,1.2914,1.2638,1.1298,0.9969,0.8866,0.7664,0.6637,0.5891,0.4664,0.3501,0.2701,0.175,0.0729,-0.051,-0.1312,-0.226,-0.3427,-0.4014,-0.46,-0.5183,-0.5519,-0.5741,-0.5972,-0.611,-0.6257,-0.6261,-0.649,-0.6714,-0.6865,-0.7103,-0.7334,-0.7561,-0.7723,-0.803,-0.8403,-0.8627,-0.916,-0.9846,-0.9922,-1.0143,-1.0513,-1.0513,-1.0666,-1.0953,-1.1312,-1.1563,-1.1546,-1.1315,-1.1528,-1.192,-1.1844,-1.1776,-1.1811,-1.2028,-1.1948,-1.1904,-1.2195,-1.252,-1.29,-1.343,-1.3999,-1.4512,-1.5119,-1.5647,-1.6163,-1.6934,-1.731,-1.7747,-1.8664,-1.9089,-1.9298,-1.9311,-1.9135,-1.8919,-1.8667,-1.8376,-1.8551,-1.9573,-2.0696,-2.1512,-2.1768,-2.2816,-2.3662,-2.4049,-2.4934,-2.5459,-2.5401,-2.5527,-2.5609,-2.5607,-2.5662,-2.5697,-2.5707,-2.5632,-2.6033,-2.6896,-2.766,-2.8415,-2.9231,-3.0037,-3.0349,1.1174,1.1075,1.1021,1.165,1.1864,1.2224,1.3502,1.3437,1.3237,1.3484,1.3283,1.2634,1.128,1.0116,0.9113,0.8253,0.7428,0.6659,0.5898,0.4684,0.3622,0.2985,0.1891,0.0758,-0.0271,-0.1235,-0.2287,-0.3326,-0.4007,-0.4711,-0.5369,-0.5716,-0.5964,-0.6037,-0.6169,-0.6127,-0.5976,-0.6046,-0.6194,-0.6419,-0.6927,-0.7257,-0.7334,-0.7799,-0.8102,-0.8403,-0.9008,-0.9544,-1.0056,-1.0205,-1.0431,-1.0779,-1.0754,-1.091,-1.1235,-1.1381,-1.1539,-1.1734,-1.168,-1.1775,-1.1903,-1.2034,-1.2011,-1.1956,-1.2181,-1.2141,-1.2131,-1.2445,-1.2852,-1.3276,-1.3621,-1.4046,-1.4558,-1.5244,-1.578,-1.6318,-1.7031,-1.7639,-1.8212,-1.893,-1.9117,-1.9262,-1.9609,-1.9023,-1.8598,-1.8816,-1.8977,-1.9275,-1.9912,-2.0971,-2.1763,-2.2009,-2.3076,-2.41,-2.4841,-2.5299,-2.5581,-2.5652,-2.5691,-2.5696,-2.57,-2.5703,-2.5673,-2.5648,-2.5619,-2.624,-2.7559,-2.7851,-2.8647,-2.991,-3.0157,-3.0221,1.0159,1.0131,1.0155,1.0539,0.0,1.098,1.2367,1.2704,1.2797,1.2856,1.2715,1.1972,1.0164,0.9361,0.8643,0.7806,0.717,0.6482,0.5751,0.4671,0.3703,0.3103,0.193,0.0784,0.0,-0.1099,-0.2159,-0.314,-0.3959,-0.4668,-0.5312,-0.5758,-0.6026,-0.6097,-0.6072,-0.595,-0.5875,-0.5946,-0.6018,-0.6025,-0.683,-0.7167,-0.7171,-0.7618,-0.8062,-0.851,-0.903,-0.9622,-1.0126,-1.0312,-1.0592,-1.0929,-1.095,-1.1158,-1.135,-1.1492,-1.1633,-1.1761,-1.1882,-1.1859,-1.1829,-1.2142,-1.2067,-1.1931,-1.2193,-1.2228,-1.228,-1.2694,-1.3142,-1.361,-1.3952,-1.428,-1.4731,-1.5457,-1.5867,-1.6245,-1.7074,-1.7701,-1.8342,-1.9023,-1.9306,-1.9566,-1.9908,-1.9208,-1.8706,-1.8968,-1.9373,-1.9752,-2.0099,-2.1315,-2.2377,-2.298,-2.3816,-2.4639,-2.5364,-2.5543,-2.5639,-2.5699,-2.5707,-2.5693,-2.5703,-2.5699,-2.5661,-2.5591,-2.5853,-2.6657,-2.7995,-2.8232,-2.9049,-3.0374,-3.0247,-3.0152,0.823,0.8777,0.946,0.9325,0.9436,0.9773,1.0588,1.1498,1.2182,1.2258,1.1703,1.0791,0.9635,0.9113,0.8638,0.7801,0.7022,0.6215,0.5512,0.455,0.367,0.2973,0.188,0.0945,0.0246,-0.08,-0.1907,-0.2891,-0.3731,-0.4432,-0.5065,-0.542,-0.5721,-0.6069,-0.5934,-0.5871,-0.6093,-0.6301,-0.6158,-0.5796,-0.6722,-0.7153,-0.7023,-0.7158,-0.7726,-0.8579,-0.8579,-0.9141,-1.0049,-1.0188,-1.0528,-1.0867,-1.1211,-1.1303,-1.1245,-1.1645,-1.1703,-1.1622,-1.174,-1.176,-1.1716,-1.1953,-1.1825,-1.1682,-1.2105,-1.2142,-1.2215,-1.2832,-1.3409,-1.3905,-1.4362,-1.4731,-1.5085,-1.5812,-1.586,-1.6006,-1.7085,-1.7557,-1.8035,-1.8842,-1.9762,-2.0327,-2.0127,-1.9756,-1.9382,-1.9026,-1.9404,-1.9834,-2.0192,-2.1897,-2.363,-2.4968,-2.522,-2.535,-2.5485,-2.556,-2.5639,-2.5699,-2.5709,-2.5703,-2.57,-2.5707,-2.5675,-2.5615,-2.6384,-2.7205,-2.8017,-2.8741,-2.9498,-3.0312,-3.0245,-3.0128,0.8095,0.8153,0.818,0.8477,0.874,0.8974,0.9065,1.01,1.1088,1.1132,1.0653,0.9884,0.9007,0.8507,0.7952,0.701,0.6548,0.5994,0.5018,0.4336,0.369,0.3026,0.2076,0.1089,0.0358,-0.0715,-0.1729,-0.2625,-0.3485,-0.414,-0.4661,-0.506,-0.5353,-0.5459,-0.5508,-0.5519,-0.563,-0.5759,-0.5755,-0.5688,-0.63,-0.664,-0.6738,-0.7442,-0.808,-0.8649,-0.9141,-0.9701,-1.0245,-1.0596,-1.0738,-1.0685,-1.1074,-1.1148,-1.1192,-1.1517,-1.1703,-1.1772,-1.1896,-1.1929,-1.1921,-1.2028,-1.2079,-1.2105,-1.2368,-1.2581,-1.2832,-1.3266,-1.3752,-1.4222,-1.4789,-1.522,-1.5656,-1.6207,-1.6278,-1.6402,-1.7273,-1.7463,-1.7763,-1.8867,-1.9458,-1.9704,-1.9564,-1.9525,-1.9258,-1.854,-1.9154,-2.0325,-2.2025,-2.292,-2.3827,-2.4981,-2.5224,-2.5354,-2.5486,-2.5605,-2.5675,-2.5703,-2.5701,-2.5703,-2.5701,-2.5703,-2.5967,-2.6505,-2.6701,-2.7481,-2.884,-2.9028,-2.948,-3.0232,-3.0113,-3.0007,0.7078,0.7028,0.6982,0.7145,0.7583,0.7942,0.802,0.8973,0.9906,0.9968,0.9444,0.8879,0.8249,0.7728,0.7122,0.6391,0.5978,0.5452,0.4562,0.4064,0.3564,0.2928,0.2064,0.1242,0.05,-0.0618,-0.1585,-0.2435,-0.3297,-0.4021,-0.4577,-0.4877,-0.5105,-0.5258,-0.5202,-0.5209,-0.5289,-0.5484,-0.555,-0.5554,-0.6214,-0.6597,-0.6741,-0.7491,-0.8108,-0.8727,-0.9541,-1.0147,-1.047,-1.0889,-1.0907,-1.0814,-1.1185,-1.131,-1.1296,-1.1414,-1.1608,-1.1738,-1.1764,-1.1783,-1.1849,-1.1977,-1.214,-1.228,-1.2577,-1.2889,-1.3256,-1.3752,-1.4176,-1.4584,-1.4989,-1.5644,-1.6219,-1.6346,-1.6349,-1.6399,-1.6874,-1.705,-1.7364,-1.8188,-1.9045,-1.9527,-1.9023,-1.9332,-1.9345,-1.8358,-1.9177,-2.0551,-2.2404,-2.3154,-2.3825,-2.451,-2.5043,-2.5387,-2.5493,-2.5605,-2.5662,-2.5694,-2.5703,-2.5698,-2.5691,-2.5707,-2.5913,-2.6374,-2.6968,-2.7741,-2.8686,-2.9252,-2.9755,-3.0157,-3.0022,-2.991,0.5626,0.5688,0.5897,0.5695,0.6112,0.6721,0.7146,0.7868,0.851,0.8598,0.8263,0.779,0.7318,0.6716,0.6173,0.5862,0.529,0.4725,0.4094,0.3744,0.328,0.2632,0.1943,0.124,0.0657,-0.0468,-0.1483,-0.2278,-0.32,-0.3952,-0.4531,-0.4611,-0.4819,-0.522,-0.4971,-0.4913,-0.5048,-0.5377,-0.5519,-0.5408,-0.6322,-0.6793,-0.6946,-0.7396,-0.8047,-0.8964,-0.9919,-1.0434,-1.0688,-1.1003,-1.1122,-1.1122,-1.1498,-1.1608,-1.1542,-1.1421,-1.1523,-1.1682,-1.159,-1.1532,-1.1604,-1.1956,-1.2175,-1.2403,-1.2725,-1.31,-1.3595,-1.4215,-1.4585,-1.4855,-1.5109,-1.5894,-1.6584,-1.6205,-1.6142,-1.6186,-1.6225,-1.6481,-1.6819,-1.7147,-1.8542,-1.942,-1.8542,-1.9159,-1.9435,-1.8412,-1.9302,-2.0498,-2.1646,-2.2697,-2.3436,-2.3664,-2.4659,-2.5298,-2.5383,-2.5512,-2.5632,-2.5696,-2.5703,-2.5707,-2.5697,-2.5683,-2.5697,-2.5718,-2.7144,-2.7873,-2.7894,-2.9365,-3.0051,-2.9965,-2.9905,-2.9771,0.5786,0.5374,0.4926,0.4979,0.5153,0.5366,0.5686,0.5994,0.6407,0.7042,0.6974,0.6633,0.5956,0.5673,0.5294,0.4624,0.4383,0.4061,0.3399,0.3184,0.2892,0.2362,0.1774,0.1194,0.0655,-0.0254,-0.1123,-0.1788,-0.2599,-0.3148,-0.3363,-0.3752,-0.3998,-0.4014,-0.4136,-0.4312,-0.4631,-0.4941,-0.531,-0.5631,-0.6332,-0.6857,-0.7138,-0.7782,-0.8624,-0.9606,-1.0244,-1.0681,-1.0996,-1.1373,-1.1373,-1.1303,-1.1809,-1.1706,-1.1338,-1.1569,-1.1678,-1.1688,-1.1718,-1.1803,-1.1948,-1.2264,-1.2577,-1.286,-1.2888,-1.3265,-1.3816,-1.4226,-1.4244,-1.4388,-1.5249,-1.5642,-1.5745,-1.5613,-1.6089,-1.6521,-1.6404,-1.6218,-1.6305,-1.7055,-1.7731,-1.8211,-1.831,-1.8676,-1.8873,-1.863,-1.8932,-1.9627,-2.0874,-2.1302,-2.1828,-2.2767,-2.3765,-2.4428,-2.4547,-2.524,-2.5684,-2.5701,-2.57,-2.5679,-2.5625,-2.5613,-2.5902,-2.6533,-2.6839,-2.7248,-2.7824,-2.8747,-2.9127,-2.9007,-2.9451,-2.9608,0.5397,0.4718,0.4054,0.396,0.3979,0.41,0.4459,0.4525,0.4605,0.5025,0.5371,0.5486,0.4968,0.4662,0.4268,0.3788,0.3516,0.3211,0.278,0.2707,0.2512,0.1995,0.1713,0.1298,0.062,-0.0145,-0.0883,-0.1523,-0.2284,-0.2763,-0.2915,-0.3184,-0.3347,-0.3346,-0.3584,-0.3814,-0.4114,-0.454,-0.5009,-0.5589,-0.6142,-0.6807,-0.7606,-0.8451,-0.9204,-0.9926,-1.0744,-1.1185,-1.1373,-1.1685,-1.1809,-1.1725,-1.1875,-1.1759,-1.1552,-1.1467,-1.1575,-1.1764,-1.1704,-1.1877,-1.2208,-1.2497,-1.2763,-1.2996,-1.309,-1.3519,-1.4013,-1.422,-1.4458,-1.4752,-1.5081,-1.5487,-1.5748,-1.5398,-1.5882,-1.6364,-1.6094,-1.5994,-1.6146,-1.6709,-1.7373,-1.784,-1.7863,-1.8212,-1.8551,-1.873,-1.8896,-1.9279,-2.0088,-2.0661,-2.1431,-2.2524,-2.3514,-2.4312,-2.4877,-2.5401,-2.5701,-2.5697,-2.5698,-2.5668,-2.5593,-2.5566,-2.5723,-2.6119,-2.6508,-2.6844,-2.7132,-2.8267,-2.8734,-2.8612,-2.9214,-2.9472,0.4844,0.402,0.3319,0.2944,0.2892,0.2988,0.34,0.3427,0.332,0.3272,0.3852,0.4249,0.4008,0.356,0.3187,0.2997,0.2668,0.239,0.217,0.2183,0.2115,0.1737,0.1651,0.1348,0.0629,0.0,-0.0613,-0.1179,-0.1868,-0.2348,-0.2572,-0.2658,-0.2749,-0.2907,-0.3147,-0.3365,-0.3568,-0.4111,-0.4727,-0.5363,-0.5984,-0.6892,-0.8097,-0.9063,-0.9668,-1.004,-1.1163,-1.156,-1.1553,-1.1935,-1.2035,-1.1997,-1.1771,-1.1768,-1.1823,-1.1357,-1.1472,-1.1791,-1.1604,-1.1868,-1.2308,-1.257,-1.2765,-1.2926,-1.3194,-1.3617,-1.4059,-1.4118,-1.4636,-1.5065,-1.4846,-1.5362,-1.582,-1.5329,-1.5674,-1.5999,-1.5728,-1.5898,-1.6179,-1.6355,-1.7199,-1.7801,-1.7524,-1.7936,-1.841,-1.8752,-1.8967,-1.92,-1.9476,-2.0294,-2.1221,-2.2153,-2.3225,-2.4208,-2.5084,-2.5493,-2.5694,-2.5709,-2.5698,-2.5662,-2.5604,-2.5549,-2.5466,-2.5398,-2.609,-2.6418,-2.6395,-2.7775,-2.8455,-2.8457,-2.91,-2.9328,0.4484,0.3688,0.2877,0.2433,0.2397,0.2517,0.271,0.2872,0.2905,0.2732,0.286,0.2879,0.2534,0.2357,0.2116,0.1666,0.1746,0.181,0.1537,0.1774,0.1872,0.1661,0.1491,0.1262,0.0895,0.0406,-0.0091,-0.0496,-0.1114,-0.1516,-0.1575,-0.2046,-0.2233,-0.214,-0.2593,-0.2936,-0.317,-0.368,-0.4358,-0.5246,-0.6515,-0.7553,-0.8263,-0.9048,-0.9575,-0.9949,-1.1133,-1.1498,-1.1344,-1.1677,-1.1734,-1.1577,-1.166,-1.167,-1.1585,-1.1556,-1.1679,-1.1846,-1.1643,-1.1827,-1.218,-1.2379,-1.2561,-1.2721,-1.2718,-1.2991,-1.3406,-1.3827,-1.3968,-1.4158,-1.4881,-1.5023,-1.5005,-1.516,-1.5447,-1.5713,-1.5814,-1.6026,-1.6207,-1.6301,-1.6905,-1.746,-1.7698,-1.804,-1.8393,-1.8753,-1.8984,-1.9216,-1.9541,-1.9769,-2.0042,-2.0403,-2.1959,-2.3083,-2.3331,-2.4798,-2.5691,-2.57,-2.5698,-2.5673,-2.5601,-2.5549,-2.5464,-2.5404,-2.5399,-2.5704,-2.6319,-2.7093,-2.7744,-2.826,-2.8979,-2.9218,0.3752,0.3153,0.2498,0.2216,0.2068,0.2056,0.2285,0.2281,0.2234,0.2254,0.2018,0.1833,0.1949,0.1786,0.1532,0.1199,0.1114,0.1069,0.0995,0.1245,0.1428,0.1491,0.1617,0.1598,0.1209,0.0839,0.0448,0.0089,-0.0463,-0.0859,-0.1074,-0.1336,-0.1547,-0.1741,-0.2107,-0.2519,-0.2963,-0.3466,-0.4274,-0.541,-0.6562,-0.7284,-0.7745,-0.8676,-0.9362,-0.9939,-1.0775,-1.1189,-1.1182,-1.1325,-1.1503,-1.1587,-1.1519,-1.1602,-1.1754,-1.1757,-1.1787,-1.1853,-1.1856,-1.2005,-1.2182,-1.2392,-1.2611,-1.2765,-1.2776,-1.3129,-1.3619,-1.3753,-1.4111,-1.454,-1.484,-1.4973,-1.5086,-1.5314,-1.561,-1.587,-1.6026,-1.6151,-1.6355,-1.667,-1.7076,-1.7479,-1.7833,-1.81,-1.8371,-1.8734,-1.8966,-1.9214,-1.9509,-1.9662,-2.0024,-2.0756,-2.1981,-2.3006,-2.3675,-2.49,-2.5655,-2.5694,-2.5702,-2.5681,-2.566,-2.5554,-2.5471,-2.5412,-2.5274,-2.5337,-2.5621,-2.6726,-2.7355,-2.7605,-2.8734,-2.9152,0.281,0.2627,0.2345,0.2152,0.2026,0.1963,0.2045,0.1988,0.193,0.1914,0.1454,0.1148,0.1398,0.1243,0.1014,0.0819,0.0561,0.0434,0.0602,0.0823,0.1089,0.1443,0.1778,0.1818,0.1485,0.1159,0.0837,0.0529,0.0045,-0.0322,-0.057,-0.0691,-0.097,-0.1365,-0.1737,-0.2263,-0.2868,-0.3619,-0.4519,-0.5622,-0.6495,-0.7041,-0.7371,-0.8257,-0.9072,-0.9685,-1.0457,-1.0872,-1.1035,-1.1015,-1.1208,-1.1463,-1.1309,-1.1538,-1.1973,-1.1986,-1.1965,-1.1929,-1.2034,-1.2077,-1.2121,-1.2265,-1.2468,-1.2678,-1.2829,-1.3313,-1.3795,-1.3799,-1.4333,-1.4957,-1.4921,-1.5086,-1.5328,-1.5522,-1.5812,-1.6095,-1.6262,-1.6355,-1.6581,-1.7076,-1.732,-1.7612,-1.7983,-1.818,-1.8408,-1.8769,-1.9001,-1.9227,-1.9462,-1.9681,-2.013,-2.0956,-2.1857,-2.2731,-2.3534,-2.4628,-2.5304,-2.5369,-2.5586,-2.5683,-2.5687,-2.556,-2.5478,-2.5393,-2.5244,-2.5218,-2.5367,-2.6378,-2.7039,-2.7363,-2.8394,-2.8905,0.1682,0.2118,0.2591,0.2194,0.2374,0.2516,0.202,0.2247,0.2373,0.175,0.1292,0.0902,0.0534,0.046,0.0396,0.0257,0.006,0.0063,0.0471,0.067,0.1036,0.1596,0.1806,0.181,0.1612,0.1353,0.1095,0.0887,0.05,0.019,0.0048,-0.0296,-0.0656,-0.1011,-0.1518,-0.213,-0.2819,-0.428,-0.5238,-0.5622,-0.6495,-0.709,-0.7521,-0.8121,-0.8665,-0.909,-1.0156,-1.0701,-1.0842,-1.0825,-1.0856,-1.0971,-1.1088,-1.1453,-1.1954,-1.2184,-1.2263,-1.2168,-1.2057,-1.1922,-1.1821,-1.1821,-1.2014,-1.2281,-1.2698,-1.3154,-1.3586,-1.3914,-1.4383,-1.4882,-1.5131,-1.5314,-1.5551,-1.5741,-1.5926,-1.6163,-1.6517,-1.6686,-1.6892,-1.7224,-1.7486,-1.7794,-1.813,-1.8342,-1.8563,-1.8843,-1.907,-1.9264,-1.9471,-1.9686,-1.9868,-2.0045,-2.0976,-2.1597,-2.1726,-2.3344,-2.4397,-2.4459,-2.5234,-2.5661,-2.56,-2.554,-2.5464,-2.5395,-2.5203,-2.5431,-2.6057,-2.5995,-2.6671,-2.8047,-2.7996,-2.8305,0.1891,0.2408,0.2714,0.3047,0.307,0.3008,0.2945,0.272,0.2439,0.212,0.1525,0.0933,0.0489,0.0264,0.0046,-0.0268,-0.0339,-0.0279,-0.0119,0.0275,0.0758,0.131,0.1709,0.1947,0.1937,0.1718,0.1587,0.1595,0.121,0.0845,0.064,0.0333,-0.0146,-0.0729,-0.1361,-0.2232,-0.3445,-0.4436,-0.523,-0.5723,-0.6436,-0.6982,-0.7365,-0.8008,-0.8474,-0.8903,-0.9388,-0.9865,-1.0287,-1.0446,-1.0661,-1.0924,-1.0905,-1.1358,-1.2012,-1.1921,-1.1988,-1.2057,-1.2037,-1.1919,-1.1897,-1.2014,-1.2389,-1.2838,-1.3057,-1.3412,-1.3861,-1.4319,-1.4655,-1.4966,-1.5314,-1.558,-1.5841,-1.6163,-1.6394,-1.6623,-1.6873,-1.6965,-1.7075,-1.7313,-1.7479,-1.7687,-1.8005,-1.8215,-1.84,-1.8675,-1.8931,-1.9148,-1.9402,-1.9647,-1.9849,-1.999,-2.0853,-2.1496,-2.1649,-2.2779,-2.3731,-2.4358,-2.4687,-2.5102,-2.5632,-2.5604,-2.5518,-2.5393,-2.5293,-2.5275,-2.5389,-2.5744,-2.6389,-2.7344,-2.7779,-2.829,0.0961,0.2138,0.3066,0.3207,0.3343,0.3481,0.3519,0.3277,0.2929,0.2546,0.179,0.1048,0.0564,0.0082,-0.0316,-0.057,-0.0671,-0.0649,-0.0401,0.0028,0.0557,0.1256,0.1752,0.2078,0.2156,0.2043,0.1952,0.2007,0.1665,0.1327,0.1072,0.0735,0.0141,-0.0856,-0.1563,-0.253,-0.3764,-0.4602,-0.5279,-0.5887,-0.6431,-0.6923,-0.7365,-0.7842,-0.8315,-0.8725,-0.884,-0.9275,-0.9947,-1.011,-1.0399,-1.0723,-1.0805,-1.1268,-1.1798,-1.1733,-1.1744,-1.187,-1.1969,-1.1971,-1.1945,-1.221,-1.2685,-1.3207,-1.3421,-1.3769,-1.4189,-1.4637,-1.4935,-1.5165,-1.5448,-1.5784,-1.6151,-1.6501,-1.6722,-1.6908,-1.7108,-1.7141,-1.7224,-1.7425,-1.7526,-1.7687,-1.7983,-1.8134,-1.8301,-1.8524,-1.8843,-1.9134,-1.9375,-1.9601,-1.983,-1.9971,-2.0595,-2.1065,-2.1217,-2.2317,-2.329,-2.392,-2.4507,-2.509,-2.5679,-2.5639,-2.5544,-2.5445,-2.5351,-2.5217,-2.5019,-2.5642,-2.6293,-2.6954,-2.7651,-2.8227,0.0,0.0,0.0,0.2562,0.3154,0.3921,0.3655,0.3847,0.3824,0.2989,0.2078,0.1269,0.0718,-0.0074,-0.0631,-0.0599,-0.0942,-0.0981,-0.0395,-0.0084,0.0485,0.1464,0.1868,0.2139,0.2281,0.2221,0.2152,0.2027,0.1836,0.1621,0.1428,0.0938,0.0046,-0.1327,-0.2087,-0.2903,-0.3804,-0.4651,-0.5369,-0.5982,-0.647,-0.6956,-0.7498,-0.7599,-0.8019,-0.8587,-0.8659,-0.9112,-0.9769,-0.9917,-1.0081,-1.0318,-1.0772,-1.1067,-1.123,-1.1567,-1.1598,-1.1541,-1.1861,-1.1976,-1.1982,-1.2389,-1.2871,-1.3387,-1.3789,-1.4181,-1.4578,-1.4825,-1.5193,-1.5507,-1.561,-1.6024,-1.6463,-1.667,-1.6866,-1.7034,-1.7174,-1.7248,-1.7368,-1.7566,-1.7704,-1.7856,-1.807,-1.8205,-1.8351,-1.8473,-1.8825,-1.9153,-1.936,-1.9569,-1.9757,-1.9977,-2.0117,-2.023,-2.0287,-2.1942,-2.2998,-2.3081,-2.4718,-2.5662,-2.5696,-2.5643,-2.5576,-2.5503,-2.537,-2.5239,-2.5101,-2.5721,-2.6362,-2.7027,-2.765,-2.8196,-0.0748,0.0,0.0,0.0,0.0,0.0,0.3423,0.3347,0.3233,0.2987,0.2585,0.1985,0.1064,0.085,0.0521,-0.0378,-0.0824,-0.0944,-0.0643,-0.0109,0.0423,0.0895,0.1501,0.1922,0.2009,0.2029,0.2073,0.2149,0.1957,0.1771,0.1619,0.0813,-0.0086,-0.1087,-0.1927,-0.2794,-0.3717,-0.4424,-0.5061,-0.5709,-0.5916,-0.6323,-0.6878,-0.7078,-0.7369,-0.7751,-0.8118,-0.8524,-0.9045,-0.9414,-0.973,-1.0044,-1.0215,-1.0657,-1.1208,-1.1145,-1.1355,-1.173,-1.1872,-1.2132,-1.2449,-1.2838,-1.3288,-1.3795,-1.4144,-1.4465,-1.478,-1.5149,-1.5433,-1.5754,-1.6203,-1.6474,-1.6686,-1.6991,-1.7141,-1.7216,-1.7257,-1.733,-1.7386,-1.7448,-1.7496,-1.7589,-1.7833,-1.7988,-1.8142,-1.833,-1.8659,-1.8984,-1.9216,-1.9438,-1.965,-1.9896,-2.005,-2.0169,-2.0287,-2.1384,-2.2353,-2.3065,-2.4147,-2.5039,-2.5666,-2.5644,-2.5565,-2.5505,-2.5412,-2.5274,-2.5091,-2.5745,-2.6411,-2.71,-2.8285,-2.8864,0.0,0.0,0.0985,0.1524,0.0,0.0,0.3114,0.3072,0.3007,0.307,0.2768,0.2227,0.1406,0.1106,0.0703,-0.0153,-0.0454,-0.0606,-0.0683,-0.0196,0.0321,0.0687,0.1262,0.1692,0.1833,0.1967,0.2078,0.2136,0.2037,0.1809,0.1465,0.0654,-0.0165,-0.1006,-0.1805,-0.2687,-0.3691,-0.4263,-0.4881,-0.5585,-0.5795,-0.6142,-0.6627,-0.6821,-0.7104,-0.7421,-0.7682,-0.8052,-0.8465,-0.8811,-0.9278,-0.9756,-1.0002,-1.0382,-1.081,-1.0803,-1.1169,-1.1718,-1.1864,-1.227,-1.2791,-1.3151,-1.3661,-1.4208,-1.4529,-1.4811,-1.5133,-1.5433,-1.5725,-1.605,-1.6554,-1.6773,-1.6917,-1.7149,-1.7281,-1.7338,-1.7232,-1.7273,-1.7306,-1.7353,-1.7361,-1.7455,-1.7658,-1.7816,-1.8031,-1.8191,-1.8489,-1.8807,-1.9117,-1.9365,-1.9585,-1.9828,-1.9991,-2.0143,-2.0238,-2.1139,-2.1954,-2.2516,-2.3378,-2.4257,-2.5127,-2.5116,-2.524,-2.5538,-2.5445,-2.5447,-2.5565,-2.593,-2.6411,-2.7028,-2.7803,-2.8098,0.0,0.0,0.0,0.0335,0.113,0.0,0.2486,0.2666,0.279,0.3044,0.2705,0.2226,0.1752,0.1151,0.0593,0.0188,0.016,0.0,-0.0562,-0.023,0.0258,0.0724,0.1133,0.1489,0.1735,0.1941,0.2044,0.2061,0.2062,0.178,0.1159,0.0544,-0.0159,-0.099,-0.1698,-0.2545,-0.3599,-0.4111,-0.4756,-0.5519,-0.5823,-0.6117,-0.6496,-0.6681,-0.6961,-0.7327,-0.7348,-0.7637,-0.8107,-0.8333,-0.8848,-0.9521,-0.9978,-1.0212,-1.0351,-1.0649,-1.1057,-1.1553,-1.1872,-1.2389,-1.3,-1.3412,-1.4,-1.4596,-1.4859,-1.5165,-1.5507,-1.571,-1.6065,-1.6421,-1.6789,-1.6977,-1.7126,-1.7207,-1.7338,-1.7394,-1.7158,-1.7149,-1.7199,-1.7248,-1.7305,-1.7384,-1.7462,-1.7687,-1.7927,-1.8065,-1.8353,-1.8698,-1.9014,-1.9289,-1.9555,-1.9763,-1.9969,-2.0116,-2.0192,-2.1108,-2.1721,-2.1784,-2.2606,-2.3452,-2.4215,-2.4347,-2.4732,-2.5446,-2.5414,-2.5627,-2.6081,-2.6086,-2.6392,-2.6935,-2.6801,-2.6702,-0.2766,-0.1829,-0.1143,-0.116,-0.061,0.0,0.0606,0.0866,0.1256,0.2201,0.2602,0.2646,0.2163,0.2441,0.2323,0.1085,0.116,0.0997,-0.0069,0.0239,0.0596,0.0708,0.1036,0.133,0.1539,0.1682,0.1793,0.1868,0.1765,0.1542,0.1184,0.0723,0.0111,-0.06,-0.1386,-0.2158,-0.2964,-0.3768,-0.4414,-0.496,-0.5405,-0.5676,-0.5903,-0.6205,-0.6463,-0.6675,-0.7062,-0.7504,-0.7968,-0.8348,-0.8766,-0.929,-0.9672,-1.0047,-1.0418,-1.0791,-1.1196,-1.1653,-1.221,-1.2731,-1.3285,-1.3756,-1.431,-1.489,-1.5133,-1.5507,-1.587,-1.6313,-1.6554,-1.6789,-1.7191,-1.724,-1.7224,-1.7384,-1.7337,-1.7232,-1.7199,-1.7115,-1.7023,-1.6908,-1.705,-1.7199,-1.732,-1.7526,-1.7749,-1.7988,-1.8225,-1.8471,-1.8807,-1.9082,-1.9368,-1.9701,-1.9851,-2.0011,-2.0197,-2.108,-2.1659,-2.1725,-2.2594,-2.3174,-2.3358,-2.3985,-2.4399,-2.4544,-2.5054,-2.5318,-2.5317,-2.5849,-2.6456,-2.7153,-2.7065,-2.6972,-0.3216,-0.2305,-0.1789,-0.1919,-0.1286,0.0,0.0,0.0118,0.0779,0.175,0.2215,0.2425,0.2363,0.2787,0.2845,0.1897,0.1641,0.1437,0.1099,0.0871,0.0694,0.056,0.0848,0.111,0.1227,0.1525,0.1745,0.1838,0.1724,0.1524,0.126,0.0783,0.0213,-0.0437,-0.12,-0.1959,-0.2757,-0.347,-0.4173,-0.474,-0.5139,-0.5453,-0.5723,-0.5976,-0.6227,-0.652,-0.6999,-0.7503,-0.7987,-0.8472,-0.8918,-0.9368,-0.9625,-1.0059,-1.0534,-1.0981,-1.1315,-1.157,-1.2126,-1.2494,-1.2881,-1.3641,-1.4258,-1.479,-1.5345,-1.5826,-1.6274,-1.6554,-1.6815,-1.7068,-1.7337,-1.7384,-1.7361,-1.7384,-1.7337,-1.7216,-1.7083,-1.6956,-1.6821,-1.6686,-1.6727,-1.6857,-1.7076,-1.7288,-1.7502,-1.7794,-1.8018,-1.8293,-1.8643,-1.8965,-1.9243,-1.9523,-1.9732,-1.9918,-2.0088,-2.0589,-2.094,-2.1046,-2.1513,-2.2001,-2.2421,-2.284,-2.3426,-2.4224,-2.4551,-2.4841,-2.5145,-2.5444,-2.5745,-2.5995,-2.5933,-2.5849,-0.3682,-0.282,-0.2354,-0.243,-0.183,-0.1168,0.0,0.0,0.0,0.1304,0.166,0.194,0.2384,0.2592,0.2694,0.2711,0.194,0.1586,0.2272,0.1627,0.0953,0.0596,0.0752,0.0933,0.1035,0.1384,0.167,0.1826,0.1728,0.1559,0.1325,0.0838,0.0305,-0.0322,-0.1073,-0.1796,-0.2583,-0.3238,-0.3935,-0.4664,-0.505,-0.5374,-0.5717,-0.5888,-0.6186,-0.6605,-0.6981,-0.7445,-0.7962,-0.8439,-0.8915,-0.931,-0.9748,-1.0205,-1.0715,-1.11,-1.1335,-1.1499,-1.1927,-1.2147,-1.2392,-1.3359,-1.4139,-1.4788,-1.5628,-1.6215,-1.6617,-1.6763,-1.6921,-1.7091,-1.7209,-1.7303,-1.7286,-1.7162,-1.7214,-1.7175,-1.694,-1.6753,-1.6607,-1.6501,-1.6448,-1.6528,-1.6799,-1.7027,-1.7264,-1.7572,-1.7805,-1.8107,-1.8469,-1.8825,-1.9095,-1.9316,-1.9591,-1.9835,-1.9971,-2.0122,-2.025,-2.0376,-2.0471,-2.0827,-2.1523,-2.1718,-2.2555,-2.4174,-2.4161,-2.4484,-2.5243,-2.5176,-2.5032,-2.4842,-2.4783,-2.4692,-0.4233,-0.3747,-0.3427,-0.3091,-0.3051,-0.2805,-0.1675,0.0,-0.082,0.0462,0.0,0.1361,0.2171,0.0,0.0,0.3576,0.2308,0.1575,0.283,0.25,0.1877,0.119,0.0933,0.0932,0.1231,0.125,0.1337,0.1525,0.1519,0.1447,0.1319,0.1023,0.0544,-0.0102,-0.0845,-0.1524,-0.2154,-0.3013,-0.3809,-0.4532,-0.4974,-0.5428,-0.5782,-0.5867,-0.6262,-0.6859,-0.6922,-0.7194,-0.7656,-0.8012,-0.8314,-0.8647,-0.9791,-1.0505,-1.0912,-1.1058,-1.1331,-1.1631,-1.185,-1.2108,-1.2496,-1.3065,-1.4116,-1.5288,-1.6233,-1.6712,-1.6968,-1.7108,-1.6877,-1.6592,-1.6663,-1.6685,-1.6663,-1.6514,-1.6811,-1.7076,-1.6866,-1.6623,-1.6409,-1.6355,-1.6274,-1.6316,-1.6596,-1.6841,-1.7117,-1.732,-1.7618,-1.7927,-1.8208,-1.855,-1.8859,-1.9107,-1.9434,-1.9701,-1.9885,-2.0097,-2.0219,-2.0308,-2.043,-2.0545,-2.064,-2.1393,-2.2555,-2.4174,-2.4198,-2.4579,-2.5378,-2.5312,-2.5164,-2.4966,-2.4912,-2.4846,-0.4273,-0.384,-0.3617,-0.3288,-0.2988,-0.2598,-0.1988,-0.1432,-0.0767,0.022,0.0,0.0,0.0,0.0,0.0,0.0,0.3575,0.2934,0.3239,0.292,0.2318,0.1427,0.1177,0.1152,0.1286,0.1196,0.1269,0.1588,0.1623,0.1604,0.1531,0.1252,0.0808,0.0223,-0.0638,-0.1378,-0.1974,-0.2746,-0.3557,-0.4435,-0.4562,-0.4914,-0.549,-0.5415,-0.5671,-0.6233,-0.6456,-0.6861,-0.7391,-0.787,-0.8237,-0.8611,-0.9526,-1.0137,-1.0521,-1.1104,-1.1222,-1.1118,-1.1492,-1.1629,-1.1813,-1.281,-1.4141,-1.5396,-1.5469,-1.6224,-1.6995,-1.6709,-1.6613,-1.6605,-1.6545,-1.6567,-1.6466,-1.5904,-1.638,-1.6813,-1.6244,-1.6197,-1.6262,-1.6136,-1.6024,-1.5968,-1.6123,-1.6436,-1.6738,-1.7027,-1.732,-1.7641,-1.7975,-1.833,-1.8605,-1.8842,-1.9164,-1.9438,-1.9645,-1.988,-2.0105,-2.0288,-2.0422,-2.0529,-2.0565,-2.0873,-2.1837,-2.3534,-2.3517,-2.4148,-2.5464,-2.4876,-2.4543,-2.4415,-2.4309,-2.4238,-0.42,-0.3862,-0.3673,-0.3315,-0.2887,-0.2453,-0.2125,-0.1396,-0.0585,0.017,0.0299,0.0,0.0,0.0,0.3107,0.4406,0.0,0.4172,0.3794,0.3377,0.2742,0.1717,0.1406,0.1249,0.1171,0.1054,0.1153,0.1561,0.1592,0.1622,0.167,0.1369,0.0951,0.0389,-0.0519,-0.1289,-0.1868,-0.2556,-0.3341,-0.4225,-0.4192,-0.4528,-0.52,-0.5007,-0.5222,-0.5763,-0.6125,-0.6564,-0.704,-0.7619,-0.8072,-0.8413,-0.9186,-0.968,-1.0083,-1.0923,-1.107,-1.0862,-1.1202,-1.1329,-1.1576,-1.2765,-1.4015,-1.5003,-1.4824,-1.5794,-1.6781,-1.6153,-1.6197,-1.6336,-1.603,-1.5983,-1.5812,-1.513,-1.5658,-1.6184,-1.5641,-1.567,-1.5811,-1.5853,-1.5711,-1.5595,-1.5654,-1.5968,-1.634,-1.667,-1.6935,-1.7256,-1.7664,-1.8018,-1.833,-1.8584,-1.8913,-1.9212,-1.9429,-1.9707,-2.0002,-2.0313,-2.0413,-2.0504,-2.0565,-2.0527,-2.1201,-2.2708,-2.2929,-2.3625,-2.4807,-2.435,-2.397,-2.3669,-2.3547,-2.3434,-0.4064,-0.3986,-0.3749,-0.3151,-0.3088,-0.295,-0.21,-0.1333,-0.0573,0.0229,0.029,0.0359,0.0875,0.0921,0.1557,0.3596,0.4467,0.0,0.0,0.4043,0.328,0.2202,0.1555,0.1105,0.0837,0.0762,0.0885,0.1286,0.1317,0.1401,0.159,0.1334,0.0913,0.0335,-0.0537,-0.1263,-0.1787,-0.2482,-0.3139,-0.381,-0.4019,-0.4417,-0.5007,-0.4793,-0.5091,-0.5794,-0.609,-0.6338,-0.6581,-0.723,-0.7611,-0.7822,-0.8755,-0.9316,-0.9678,-1.0325,-1.0818,-1.1176,-1.1131,-1.1534,-1.2198,-1.3031,-1.3557,-1.4004,-1.4773,-1.5654,-1.6282,-1.5612,-1.5573,-1.5556,-1.477,-1.453,-1.4404,-1.4198,-1.4512,-1.4952,-1.5261,-1.5049,-1.4989,-1.5418,-1.5344,-1.5253,-1.5313,-1.561,-1.5924,-1.6176,-1.6512,-1.685,-1.7191,-1.7585,-1.7963,-1.8365,-1.8698,-1.9033,-1.9289,-1.9606,-1.9963,-2.0366,-2.04,-2.0429,-2.0508,-2.0501,-2.0918,-2.1813,-2.2666,-2.3084,-2.3086,-2.3831,-2.3739,-2.2832,-2.2777,-2.2626,-0.3465,-0.3509,-0.3444,-0.3197,-0.3105,-0.2938,-0.241,-0.131,-0.0288,0.0113,0.0761,0.1281,0.1352,0.1705,0.2276,0.3164,0.3714,0.4015,0.0,0.3497,0.3017,0.2608,0.1908,0.1365,0.1088,0.0923,0.1013,0.1467,0.1464,0.1549,0.1848,0.149,0.1063,0.0573,-0.024,-0.0958,-0.1533,-0.219,-0.2951,-0.3725,-0.3732,-0.4049,-0.4649,-0.4416,-0.4621,-0.5169,-0.5523,-0.587,-0.6229,-0.6997,-0.7486,-0.7859,-0.8656,-0.9228,-0.9682,-1.0423,-1.0819,-1.105,-1.1327,-1.1762,-1.2241,-1.2645,-1.325,-1.3796,-1.3743,-1.5023,-1.623,-1.507,-1.5204,-1.552,-1.4717,-1.4424,-1.418,-1.353,-1.4039,-1.4497,-1.3906,-1.4201,-1.4608,-1.4587,-1.4786,-1.4932,-1.4963,-1.5072,-1.5285,-1.5811,-1.616,-1.6485,-1.6825,-1.7183,-1.7555,-1.7949,-1.8353,-1.8699,-1.9012,-1.9511,-1.9924,-2.018,-2.027,-2.0376,-2.0503,-2.0497,-2.0913,-2.1774,-2.2088,-2.2484,-2.2999,-2.2685,-2.2346,-2.1933,-2.1327,-2.1283,-0.2784,-0.2841,-0.2838,-0.288,-0.2825,-0.2578,-0.1871,-0.0888,0.0016,0.0525,0.12,0.1677,0.1641,0.1987,0.243,0.2923,0.3217,0.3444,0.0,0.3361,0.3075,0.2883,0.2138,0.1577,0.1428,0.1164,0.1199,0.1664,0.1605,0.1668,0.1978,0.1563,0.1098,0.065,-0.0074,-0.0771,-0.1425,-0.2091,-0.2765,-0.3483,-0.3495,-0.3799,-0.4308,-0.4163,-0.4355,-0.4844,-0.5334,-0.5765,-0.6206,-0.7038,-0.7627,-0.8078,-0.8761,-0.9304,-0.9827,-1.0427,-1.0868,-1.121,-1.1593,-1.1997,-1.2323,-1.2538,-1.3025,-1.3497,-1.3218,-1.4379,-1.553,-1.4356,-1.4668,-1.5166,-1.4346,-1.4019,-1.3742,-1.3077,-1.3352,-1.3593,-1.2993,-1.3443,-1.3967,-1.3941,-1.4268,-1.4588,-1.462,-1.462,-1.4811,-1.5359,-1.5739,-1.6077,-1.6459,-1.6825,-1.7199,-1.7681,-1.8044,-1.8457,-1.8959,-1.943,-1.9798,-2.005,-2.0188,-2.0308,-2.0425,-2.0453,-2.0733,-2.1327,-2.1637,-2.1908,-2.2111,-2.1833,-2.1494,-2.1089,-2.048,-2.0459]}]]